[[{"header":{"parameterUnit":"m.s-1","parameterCategory":1,"la1":30.6,"la2":28.766,"lo1":-90.7593,"lo2":-88.6598,"dy":0.0162,"dx":0.0183,"nx":116,"ny":114,"refTime":"2024-04-02T00:00:00:Z","depth":0,"parameterNumber":2,"parameterNumberName":"U-component_of_WINDS"},"data":[0.0,0.0,0.0,0.0,0.0,0.0,0.0,0.0,0.0,0.0,0.0,0.0,0.0,0.0,0.0,0.0,0.0,0.0,0.0,0.0,0.0,0.0,0.0,0.0,0.0,0.0,0.0,0.0,0.0,0.0,0.0,0.0,0.0,0.0,0.0,0.0,0.0,0.0,0.0,0.0,0.0,0.0,0.0,0.0,0.0,0.0,0.0,0.0,0.0,0.0,0.0,0.0,0.0,0.0,0.0,0.0,0.0,0.0,0.0,0.0,0.0,0.0,0.0,0.0,0.0,0.0,0.0,0.0,0.0,0.0,0.0,0.0,0.0,0.0,0.0,0.0,0.0,0.0,0.0,0.0,0.0,0.0,0.0,0.0,0.0,0.0,0.0,0.0,0.0,0.0,0.0,0.0,0.0,0.0,0.0,0.0,0.0,0.0,0.0,0.0,0.0,0.0,0.0,0.0,0.0,0.0,0.0,0.0,0.0,0.0,0.0,0.0,0.0,0.0,0.0,0.0,0.0,0.0,0.0,0.0,0.0,0.0,0.0,0.0,0.0,0.0,0.0,0.0,0.0,0.0,0.0,0.0,0.0,0.0,0.0,0.0,0.0,0.0,0.0,0.0,0.0,0.0,0.0,0.0,0.0,0.0,0.0,0.0,0.0,0.0,0.0,0.0,0.0,0.0,0.0,0.0,0.0,0.0,0.0,0.0,0.0,0.0,0.0,0.0,0.0,0.0,0.0,0.0,0.0,0.0,0.0,0.0,0.0,0.0,0.0,0.0,0.0,0.0,0.0,0.0,0.0,0.0,0.0,0.0,0.0,0.0,0.0,0.0,0.0,0.0,0.0,0.0,0.0,0.0,0.0,0.0,0.0,0.0,0.0,0.0,0.0,0.0,0.0,0.0,0.0,0.0,0.0,0.0,0.0,0.0,0.0,0.0,0.0,0.0,0.0,0.0,0.0,0.0,0.0,0.0,0.0,0.0,0.0,0.0,0.0,0.0,0.0,0.0,0.0,0.0,0.0,0.0,0.0,0.0,0.0,0.0,0.0,0.0,0.0,0.0,0.0,0.0,0.0,0.0,0.0,0.0,0.0,0.0,0.0,0.0,0.0,0.0,0.0,0.0,0.0,0.0,0.0,0.0,0.0,0.0,0.0,0.0,0.0,0.0,0.0,0.0,0.0,0.0,0.0,0.0,0.0,0.0,0.0,0.0,0.0,0.0,0.0,0.0,0.0,0.0,0.0,0.0,0.0,0.0,0.0,0.0,0.0,0.0,0.0,0.0,0.0,0.0,0.0,0.0,0.0,0.0,0.0,0.0,0.0,0.0,0.0,0.0,0.0,0.0,0.0,0.0,0.0,0.0,0.0,0.0,0.0,0.0,0.0,0.0,0.0,0.0,0.0,0.0,0.0,0.0,0.0,0.0,0.0,0.0,0.0,0.0,0.0,0.0,0.0,0.0,0.0,0.0,0.0,0.0,0.0,0.0,0.0,0.0,0.0,0.0,0.0,0.0,0.0,0.0,0.0,0.0,0.0,0.0,0.0,0.0,0.0,0.0,0.0,0.0,0.0,0.0,0.0,0.0,0.0,0.0,0.0,0.0,0.0,0.0,0.0,0.0,0.0,0.0,0.0,0.0,0.0,0.0,0.0,0.0,0.0,0.0,0.0,0.0,0.0,0.0,0.0,0.0,0.0,0.0,0.0,0.0,0.0,0.0,0.0,0.0,0.0,0.0,0.0,0.0,0.0,0.0,0.0,0.0,0.0,0.0,0.0,0.0,0.0,0.0,0.0,0.0,0.0,0.0,0.0,0.0,0.0,0.0,0.0,0.0,0.0,0.0,0.0,0.0,0.0,0.0,0.0,0.0,0.0,0.0,0.0,0.0,0.0,0.0,0.0,0.0,0.0,0.0,0.0,0.0,0.0,0.0,0.0,0.0,0.0,0.0,0.0,0.0,0.0,0.0,0.0,0.0,0.0,0.0,0.0,0.0,0.0,0.0,0.0,0.0,0.0,0.0,0.0,0.0,0.0,0.0,0.0,0.0,0.0,0.0,0.0,0.0,0.0,0.0,0.0,0.0,0.0,0.0,0.0,0.0,0.0,0.0,0.0,0.0,0.0,0.0,0.0,0.0,0.0,0.0,0.0,0.0,0.0,0.0,0.0,0.0,0.0,0.0,0.0,0.0,0.0,0.0,0.0,0.0,0.0,0.0,0.0,0.0,0.0,0.0,0.0,0.0,0.0,0.0,0.0,0.0,0.0,0.0,0.0,0.0,0.0,0.0,0.0,0.0,0.0,0.0,0.0,0.0,0.0,0.0,0.0,0.0,0.0,0.0,0.0,0.0,0.0,0.0,0.0,0.0,0.0,0.0,0.0,0.0,0.0,0.0,0.0,0.0,0.0,0.0,0.0,0.0,0.0,0.0,0.0,0.0,0.0,0.0,0.0,0.0,0.0,0.0,0.0,0.0,0.0,0.0,0.0,0.0,0.0,0.0,0.0,0.0,0.0,0.0,0.0,0.0,0.0,0.0,0.0,0.0,0.0,0.0,0.0,0.0,0.0,0.0,0.0,0.0,0.0,0.0,0.0,0.0,0.0,0.0,0.0,0.0,0.0,0.0,0.0,0.0,0.0,0.0,0.0,0.0,0.0,0.0,0.0,0.0,0.0,0.0,0.0,0.0,0.0,0.0,0.0,0.0,0.0,0.0,0.0,0.0,0.0,0.0,0.0,0.0,0.0,0.0,0.0,0.0,0.0,0.0,0.0,0.0,0.0,0.0,0.0,0.0,0.0,0.0,0.0,0.0,0.0,0.0,0.0,0.0,0.0,0.0,0.0,0.0,0.0,0.0,0.0,0.0,0.0,0.0,0.0,0.0,0.0,0.0,0.0,0.0,0.0,0.0,0.0,0.0,0.0,0.0,0.0,0.0,0.0,0.0,0.0,0.0,0.0,0.0,0.0,0.0,0.0,0.0,0.0,0.0,0.0,0.0,0.0,0.0,0.0,0.0,0.0,0.0,0.0,0.0,0.0,0.0,0.0,0.0,0.0,0.0,0.0,0.0,0.0,0.0,0.0,0.0,0.0,0.0,0.0,0.0,0.0,0.0,0.0,0.0,0.0,0.0,0.0,0.0,0.0,0.0,0.0,0.0,0.0,0.0,0.0,0.0,0.0,0.0,0.0,0.0,0.0,0.0,0.0,0.0,0.0,0.0,0.0,0.0,0.0,0.0,0.0,0.0,0.0,0.0,0.0,0.0,0.0,0.0,0.0,0.0,0.0,0.0,0.0,0.0,0.0,0.0,0.0,0.0,0.0,0.0,0.0,0.0,0.0,0.0,0.0,0.0,0.0,0.0,0.0,0.0,0.0,0.0,0.0,0.0,0.0,0.0,0.0,0.0,0.0,0.0,0.0,0.0,0.0,0.0,0.0,0.0,0.0,0.0,0.0,0.0,0.0,0.0,0.0,0.0,0.0,0.0,0.0,0.0,0.0,0.0,0.0,0.0,0.0,0.0,0.0,0.0,0.0,0.0,0.0,0.0,0.0,0.0,0.0,0.0,0.0,0.0,0.0,0.0,0.0,0.0,0.0,0.0,0.0,0.0,0.0,0.0,0.0,0.0,0.0,0.0,0.0,0.0,0.0,0.0,0.0,0.0,0.0,0.0,0.0,0.0,0.0,0.0,0.0,0.0,0.0,0.0,0.0,0.0,0.0,0.0,0.0,0.0,0.0,0.0,0.0,0.0,0.0,0.0,0.0,0.0,0.0,0.0,0.0,0.0,0.0,0.0,0.0,0.0,0.0,0.0,0.0,0.0,0.0,0.0,0.0,0.0,0.0,0.0,0.0,0.0,0.0,0.0,0.0,0.0,0.0,0.0,0.0,0.0,0.0,0.0,0.0,0.0,0.0,0.0,0.0,0.0,0.0,0.0,0.0,0.0,0.0,0.0,0.0,0.0,0.0,0.0,0.0,0.0,0.0,0.0,0.0,0.0,0.0,0.0,0.0,0.0,0.0,0.0,0.0,0.0,0.0,0.0,0.0,0.0,0.0,0.0,0.0,0.0,0.0,0.0,0.0,0.0,0.0,0.0,0.0,0.0,0.0,0.0,0.0,0.0,0.0,0.0,0.0,0.0,0.0,0.0,0.0,0.0,0.0,0.0,0.0,0.0,0.0,0.0,0.0,0.0,0.0,0.0,0.0,0.0,0.0,0.0,0.0,0.0,0.0,0.0,0.0,0.0,0.0,0.0,0.0,0.0,0.0,0.0,0.0,0.0,0.0,0.0,0.0,0.0,0.0,0.0,0.0,0.0,0.0,0.0,0.0,0.0,0.0,0.0,0.0,0.0,0.0,0.0,0.0,0.0,0.0,0.0,0.0,0.0,0.0,0.0,0.0,0.0,0.0,0.0,0.0,0.0,0.0,0.0,0.0,0.0,0.0,0.0,0.0,0.0,0.0,0.0,0.0,0.0,0.0,0.0,0.0,0.0,0.0,0.0,0.0,0.0,0.0,0.0,0.0,0.0,0.0,0.0,0.0,0.0,0.0,0.0,0.0,0.0,0.0,0.0,0.0,0.0,0.0,0.0,0.0,0.0,0.0,0.0,0.0,0.0,0.0,0.0,0.0,0.0,0.0,0.0,0.0,0.0,0.0,0.0,0.0,0.0,0.0,0.0,0.0,0.0,0.0,0.0,0.0,0.0,0.0,0.0,0.0,0.0,0.0,0.0,0.0,0.0,0.0,0.0,0.0,0.0,0.0,0.0,0.0,0.0,0.0,0.0,0.0,0.0,0.0,0.0,0.0,0.0,0.0,0.0,0.0,0.0,0.0,0.0,0.0,0.0,0.0,0.0,0.0,0.0,0.0,0.0,0.0,0.0,0.0,0.0,0.0,0.0,0.0,0.0,0.0,0.0,0.0,0.0,0.0,0.0,0.0,0.0,0.0,0.0,0.0,0.0,0.0,0.0,0.0,0.0,0.0,0.0,0.0,0.0,0.0,0.0,0.0,0.0,0.0,0.0,0.0,0.0,0.0,0.0,0.0,0.0,0.0,0.0,0.0,0.0,0.0,0.0,0.0,0.0,0.0,0.0,0.0,0.0,0.0,0.0,0.0,0.0,0.0,0.0,0.0,0.0,0.0,0.0,0.0,0.0,0.0,0.0,0.0,0.0,0.0,0.0,0.0,0.0,0.0,0.0,0.0,0.0,0.0,0.0,0.0,0.0,0.0,0.0,0.0,0.0,0.0,0.0,0.0,0.0,0.0,0.0,0.0,0.0,0.0,0.0,0.0,0.0,0.0,0.0,0.0,0.0,0.0,0.0,0.0,0.0,0.0,0.0,0.0,0.0,0.0,0.0,0.0,0.0,0.0,0.0,0.0,0.0,0.0,0.0,0.0,0.0,0.0,0.0,0.0,0.0,0.0,0.0,0.0,0.0,0.0,0.0,0.0,0.0,0.0,0.0,0.0,0.0,0.0,0.0,0.0,0.0,0.0,0.0,0.0,0.0,0.0,0.0,0.0,0.0,0.0,0.0,0.0,0.0,0.0,0.0,0.0,0.0,0.0,0.0,0.0,0.0,0.0,0.0,0.0,0.0,0.0,0.0,0.0,0.0,0.0,0.0,0.0,0.0,0.0,0.0,0.0,0.0,0.0,0.0,0.0,0.0,0.0,0.0,0.0,0.0,0.0,0.0,0.0,0.0,0.0,0.0,0.0,0.0,0.0,0.0,0.0,0.0,0.0,0.0,0.0,0.0,0.0,0.0,0.0,0.0,0.0,0.0,0.0,0.0,0.0,0.0,0.0,0.0,0.0,0.0,0.0,0.0,0.0,0.0,0.0,0.0,0.0,0.0,0.0,0.0,0.0,0.0,0.0,0.0,0.0,0.0,0.0,0.0,0.0,0.0,0.0,0.0,0.0,0.0,0.0,0.0,0.0,0.0,0.0,0.0,0.0,0.0,0.0,0.0,0.0,0.0,0.0,0.0,0.0,0.0,0.0,0.0,0.0,0.0,0.0,0.0,0.0,0.0,0.0,0.0,0.0,0.0,0.0,0.0,0.0,0.0,0.0,0.0,0.0,0.0,0.0,0.0,0.0,0.0,0.0,0.0,2.6302,0.0,0.0,0.0,0.0,0.0,0.0,0.0,0.0,0.0,0.0,0.0,0.0,0.0,0.0,0.0,0.0,0.0,0.0,0.0,0.0,0.0,0.0,0.0,0.0,2.5625,2.5664,2.5703,2.5703,2.5703,2.5703,0.0,0.0,0.0,0.0,0.0,2.5644,2.5615,2.5578,2.5549,2.5551,2.5543,2.5543,2.5506,2.5479,2.5447,0.0,0.0,0.0,0.0,0.0,0.0,0.0,0.0,0.0,0.0,0.0,0.0,0.0,0.0,0.0,0.0,0.0,0.0,0.0,0.0,0.0,0.0,0.0,0.0,0.0,0.0,0.0,0.0,0.0,0.0,0.0,0.0,0.0,0.0,0.0,0.0,0.0,0.0,0.0,0.0,0.0,0.0,0.0,0.0,0.0,0.0,0.0,0.0,0.0,0.0,0.0,0.0,0.0,0.0,0.0,0.0,0.0,0.0,0.0,0.0,0.0,0.0,0.0,0.0,0.0,0.0,0.0,0.0,0.0,0.0,0.0,2.6841,0.0,0.0,0.0,0.0,0.0,0.0,0.0,0.0,0.0,0.0,0.0,0.0,0.0,0.0,0.0,0.0,0.0,0.0,0.0,0.0,0.0,2.5684,2.5625,2.5664,2.5703,2.5703,2.5703,2.5703,2.5703,2.5703,2.5703,2.5703,2.5703,2.5703,2.5703,2.5703,2.5673,2.5611,2.563,2.562,2.5611,2.5626,2.5579,2.5534,2.5511,0.0,0.0,0.0,0.0,0.0,0.0,0.0,0.0,0.0,0.0,0.0,0.0,0.0,0.0,0.0,0.0,0.0,0.0,0.0,0.0,0.0,0.0,0.0,0.0,0.0,0.0,0.0,0.0,0.0,0.0,0.0,0.0,0.0,0.0,0.0,0.0,0.0,0.0,0.0,0.0,0.0,0.0,0.0,0.0,0.0,0.0,0.0,0.0,0.0,0.0,0.0,0.0,0.0,0.0,0.0,0.0,0.0,0.0,0.0,0.0,0.0,0.0,0.0,2.7699,2.8101,2.8273,2.8996,2.933,2.9256,2.7862,2.7187,2.7103,0.0,0.0,0.0,0.0,0.0,0.0,0.0,0.0,0.0,0.0,0.0,0.0,0.0,0.0,0.0,0.0,0.0,0.0,0.0,0.0,2.5703,2.5684,2.5684,2.5703,2.5703,2.5703,2.5703,2.5703,2.5703,2.5703,2.5703,2.5703,2.5703,2.5703,2.5703,2.5703,2.5696,2.5698,2.5688,2.5698,2.5691,0.0,2.5675,2.555,2.5502,0.0,0.0,0.0,0.0,0.0,0.0,0.0,0.0,0.0,0.0,0.0,0.0,0.0,0.0,0.0,0.0,0.0,0.0,0.0,0.0,0.0,0.0,0.0,0.0,0.0,0.0,0.0,0.0,0.0,0.0,0.0,0.0,0.0,0.0,0.0,0.0,0.0,0.0,0.0,0.0,0.0,0.0,2.6659,2.6842,0.0,0.0,0.0,0.0,0.0,0.0,0.0,0.0,0.0,0.0,0.0,0.0,0.0,0.0,2.9287,2.9118,2.9035,2.9035,2.8891,2.8851,2.8879,2.9007,2.9044,2.9044,2.8823,0.0,2.9035,2.9077,0.0,0.0,0.0,0.0,0.0,0.0,0.0,0.0,0.0,0.0,0.0,0.0,0.0,0.0,0.0,0.0,0.0,0.0,0.0,0.0,0.0,2.5703,2.5703,2.5703,2.5703,2.5703,2.5703,2.5703,2.5703,2.5703,2.5703,2.5703,2.5703,2.5703,2.5703,2.5703,2.5707,2.5706,2.5706,0.0,0.0,0.0,2.5636,2.5607,2.5607,2.5568,0.0,0.0,0.0,0.0,0.0,0.0,0.0,0.0,0.0,0.0,0.0,0.0,0.0,0.0,0.0,0.0,0.0,0.0,0.0,0.0,0.0,0.0,0.0,0.0,0.0,0.0,0.0,0.0,0.0,0.0,0.0,0.0,0.0,0.0,0.0,0.0,0.0,0.0,0.0,2.8333,2.8333,2.8295,2.8333,2.8427,0.0,0.0,0.0,0.0,0.0,0.0,0.0,0.0,0.0,2.9412,2.9412,2.9373,2.9314,2.9225,2.9178,2.916,2.9062,2.8994,2.8994,2.8994,2.8994,2.8994,2.8994,2.9067,2.9178,2.9178,2.9375,2.9643,0.0,0.0,0.0,0.0,2.9225,2.8994,0.0,0.0,0.0,0.0,0.0,0.0,0.0,0.0,0.0,0.0,0.0,0.0,2.5703,2.5703,2.5703,2.5703,2.5703,2.5703,2.5703,2.5703,2.5703,2.5703,2.5703,2.5703,2.5703,2.5703,2.5703,2.5703,2.5703,2.5703,0.0,0.0,0.0,0.0,0.0,0.0,0.0,0.0,0.0,0.0,0.0,0.0,0.0,0.0,0.0,0.0,0.0,0.0,0.0,0.0,0.0,0.0,0.0,0.0,0.0,0.0,0.0,0.0,0.0,0.0,0.0,0.0,0.0,0.0,0.0,0.0,0.0,0.0,0.0,0.0,0.0,0.0,0.0,0.0,0.0,0.0,0.0,2.9607,2.9661,2.9551,2.9625,2.9748,0.0,0.0,0.0,0.0,0.0,0.0,2.9763,2.9731,2.9625,2.9474,2.9414,2.931,2.9112,2.9314,2.9406,2.9406,2.9609,2.9747,2.9817,2.9817,2.9706,2.9499,2.9499,2.9388,2.9163,2.9044,2.9181,2.9455,2.9332,2.9414,2.9551,2.9434,2.931,2.9163,0.0,0.0,0.0,0.0,0.0,0.0,0.0,0.0,0.0,0.0,0.0,2.5703,2.5703,2.5703,2.5703,2.5703,2.5703,2.5703,2.5703,2.5703,2.5703,2.5703,2.5703,2.5703,2.5703,2.5703,2.5703,2.5703,0.0,0.0,0.0,0.0,0.0,0.0,0.0,0.0,0.0,0.0,0.0,0.0,0.0,0.0,0.0,0.0,0.0,0.0,0.0,0.0,0.0,0.0,0.0,0.0,0.0,0.0,0.0,0.0,0.0,0.0,0.0,0.0,0.0,0.0,0.0,0.0,0.0,0.0,0.0,0.0,0.0,0.0,0.0,0.0,0.0,0.0,0.0,0.0,0.0,0.0,0.0,2.9954,2.9813,0.0,0.0,0.0,0.0,3.0343,3.0355,3.0241,2.9999,2.9796,2.9696,2.9678,2.9494,2.9392,2.9392,3.0134,3.0509,3.0532,3.1297,3.1798,3.2034,3.2034,3.1619,3.0884,3.0884,3.0431,2.9625,2.9185,2.9272,2.9643,2.9185,2.9418,2.9924,2.9551,2.9513,2.9643,0.0,0.0,0.0,0.0,0.0,2.5703,2.5703,2.5703,2.5703,2.5703,2.5703,2.5703,2.5703,2.5703,2.5703,2.5703,2.5703,2.5703,2.5703,2.5703,2.5703,2.5703,2.5703,2.5703,2.5703,2.5703,2.5703,2.5703,0.0,0.0,0.0,0.0,0.0,0.0,0.0,0.0,0.0,0.0,0.0,0.0,0.0,0.0,0.0,0.0,0.0,0.0,0.0,0.0,0.0,0.0,0.0,0.0,0.0,0.0,0.0,0.0,0.0,0.0,0.0,0.0,0.0,0.0,0.0,0.0,0.0,0.0,0.0,0.0,0.0,0.0,0.0,0.0,0.0,0.0,0.0,0.0,0.0,0.0,0.0,3.0013,3.0095,0.0,0.0,3.015,3.0028,3.0136,3.0018,2.9912,2.9813,3.0275,3.0542,3.0542,3.096,3.1205,3.1205,3.1487,3.1637,3.1638,3.192,3.2109,3.2203,3.2203,3.2052,3.1769,3.1769,3.1599,3.1298,3.1128,3.0509,2.9678,2.9514,2.9607,2.978,2.9662,2.9625,2.9696,0.0,0.0,0.0,0.0,2.5703,2.5703,2.5703,2.5703,2.5703,2.5703,2.5703,2.5703,2.5703,2.5703,2.5703,2.5703,2.5703,2.5703,2.5703,2.5703,2.5703,2.5703,2.5703,2.5703,2.5703,2.5996,2.6133,0.0,0.0,0.0,0.0,0.0,0.0,0.0,0.0,0.0,0.0,0.0,0.0,0.0,0.0,0.0,3.076,0.0,0.0,0.0,0.0,0.0,0.0,0.0,0.0,0.0,0.0,0.0,0.0,0.0,0.0,0.0,0.0,0.0,0.0,0.0,0.0,0.0,0.0,0.0,0.0,0.0,0.0,0.0,0.0,0.0,0.0,0.0,0.0,0.0,0.0,0.0,3.0323,3.015,3.0299,3.0398,3.0398,3.0241,3.0251,3.0538,3.0441,3.0494,3.0779,3.1246,3.1569,3.1651,3.2079,3.2329,3.2329,3.2594,3.2746,3.2745,3.3031,3.3218,3.3304,3.3304,3.3151,3.2866,3.2866,3.2714,3.2447,3.2447,3.1784,3.0763,3.0614,3.0629,3.0763,3.0698,3.0715,3.0779,0.0,0.0,0.0,2.5703,2.5703,2.5703,2.5703,2.5703,2.5703,2.5703,2.5703,2.5703,2.5703,2.5703,2.5703,2.5703,2.5703,2.5703,2.5703,2.5703,2.5703,2.5703,2.5703,2.5703,2.5742,2.6562,0.0,0.0,0.0,0.0,0.0,0.0,0.0,0.0,0.0,0.0,0.0,0.0,0.0,0.0,0.0,0.0,3.0723,0.0,0.0,0.0,0.0,0.0,0.0,0.0,0.0,0.0,0.0,0.0,0.0,0.0,0.0,0.0,0.0,0.0,0.0,0.0,0.0,0.0,0.0,0.0,0.0,0.0,0.0,0.0,0.0,0.0,0.0,0.0,0.0,0.0,3.0398,3.0398,3.0398,3.0398,3.0417,3.0436,3.0436,3.0456,3.0833,3.1679,3.1737,3.2083,3.2852,3.2742,3.2747,3.2929,3.2781,3.2676,3.2676,3.3462,3.3843,3.3856,3.4702,3.5258,3.5493,3.5493,3.5045,3.4237,3.4237,3.3757,3.2987,3.2987,3.2987,3.2942,3.2433,3.2496,3.2878,3.2694,3.2737,3.2891,0.0,0.0,2.5573,2.5624,2.5625,2.5644,2.5684,2.5703,2.5703,2.5703,2.5703,2.5703,2.5703,2.5703,2.5703,2.5703,2.5703,2.5703,2.5703,2.5703,2.5703,2.5703,2.5703,2.5996,2.6621,0.0,0.0,0.0,0.0,0.0,0.0,0.0,0.0,0.0,0.0,0.0,0.0,0.0,0.0,0.0,0.0,0.0,3.0859,0.0,0.0,0.0,0.0,0.0,0.0,0.0,0.0,0.0,0.0,0.0,0.0,0.0,0.0,0.0,0.0,0.0,0.0,0.0,0.0,0.0,0.0,0.0,0.0,0.0,0.0,0.0,0.0,0.0,0.0,0.0,0.0,3.0398,3.0398,3.0398,3.0398,3.0398,3.0968,3.1352,3.1352,3.1872,3.2314,3.2545,3.2564,3.2679,3.2891,3.3448,3.3794,3.3833,3.4408,3.4707,3.4707,3.4904,3.5033,3.5033,3.5268,3.5432,3.5493,3.5493,3.5372,3.5141,3.5141,3.5007,3.4795,3.4795,3.4795,3.4647,3.3259,3.2793,3.2891,3.2839,3.2852,3.2891,0.0,2.5485,2.5499,2.5546,2.5551,2.5576,2.5644,2.5664,2.5664,2.5703,2.5703,2.5703,2.5703,2.5703,2.5703,2.5703,2.5703,2.5703,2.5703,2.5703,2.5703,2.5703,2.6055,2.6484,0.0,0.0,0.0,0.0,0.0,0.0,0.0,0.0,0.0,0.0,0.0,0.0,0.0,0.0,0.0,0.0,0.0,0.0,3.0898,3.0898,3.0898,3.0898,3.0898,3.0859,3.0781,3.0781,0.0,0.0,0.0,0.0,0.0,0.0,0.0,0.0,0.0,0.0,0.0,0.0,0.0,0.0,0.0,0.0,0.0,0.0,0.0,0.0,0.0,0.0,0.0,0.0,3.0398,3.0398,3.0398,3.0398,3.0533,3.091,3.1391,3.1833,3.2179,3.2622,3.3045,3.341,3.343,3.3603,3.3968,3.4468,3.4737,3.4737,3.5565,3.6007,3.6007,3.6372,3.6546,3.6546,3.6546,3.6546,3.6546,3.6546,3.6546,0.0,3.6546,3.6546,3.6546,3.6546,3.6334,0.0,0.0,0.0,0.0,0.0,3.3987,3.3987,2.5409,2.5447,2.5486,2.5486,2.5483,2.5507,2.5576,2.5604,2.5625,2.5684,2.5703,2.5703,2.5703,2.5703,2.5703,2.5703,2.5703,2.5703,2.5703,2.5703,2.5742,2.584,2.6582,2.709,0.0,0.0,0.0,0.0,0.0,0.0,0.0,0.0,0.0,0.0,0.0,0.0,0.0,0.0,0.0,0.0,0.0,0.0,3.0898,3.0898,3.0898,3.0898,3.0898,3.0898,3.0898,3.0898,0.0,0.0,0.0,0.0,0.0,0.0,0.0,0.0,0.0,0.0,0.0,0.0,0.0,0.0,0.0,0.0,0.0,0.0,0.0,0.0,0.0,0.0,0.0,0.0,3.0398,3.0417,3.0533,3.0552,3.0833,3.1621,3.1872,3.2256,3.2987,3.3141,3.3506,3.4295,3.4353,3.4718,3.5603,0.0,0.0,0.0,0.0,3.6853,3.6853,3.7603,3.8007,3.8007,3.8007,3.8007,3.8007,3.8007,3.8007,3.8007,3.8007,3.8007,3.8007,3.8007,3.7546,3.6776,3.5949,3.5641,3.5641,3.5641,3.5641,3.5622,2.5322,2.5322,2.537,2.5409,2.5428,2.5434,2.5514,2.5577,2.5605,2.5625,2.5664,2.5703,2.5703,2.5703,2.5703,2.5703,2.5703,2.5703,2.5703,0.0,2.6016,2.6719,0.0,0.0,0.0,0.0,0.0,0.0,0.0,0.0,0.0,0.0,0.0,0.0,0.0,0.0,0.0,0.0,0.0,0.0,0.0,0.0,3.0898,3.0898,3.0898,3.0898,3.0898,3.0898,3.0898,3.0898,3.0879,3.0859,3.0859,0.0,0.0,0.0,0.0,0.0,0.0,0.0,0.0,0.0,0.0,0.0,0.0,0.0,0.0,0.0,0.0,0.0,0.0,0.0,0.0,3.0398,3.0398,3.066,3.1352,3.1448,3.1506,3.1679,3.2891,3.3776,3.393,3.4584,3.5084,3.5238,3.5257,3.5622,3.643,3.6469,0.0,3.7488,3.768,3.7757,3.7757,3.7911,3.8007,3.8007,0.0,0.0,3.8007,3.8007,3.8007,3.8007,3.8007,3.8007,3.8007,3.8007,3.7892,3.7661,3.6796,3.6469,3.6469,3.6469,3.6469,3.6392,2.5303,2.5303,2.5303,2.5341,2.5341,2.537,2.5447,2.5478,2.5527,2.5585,2.5625,2.5664,2.5703,2.5703,2.5703,2.5703,2.5703,2.5703,0.0,2.5703,0.0,0.0,0.0,0.0,0.0,0.0,0.0,0.0,0.0,0.0,0.0,0.0,0.0,0.0,0.0,0.0,0.0,0.0,0.0,0.0,0.0,0.0,3.0898,3.0898,3.0898,3.0898,3.0898,3.0898,3.0898,3.0898,3.0898,3.0898,3.0898,3.0801,3.0698,0.0,0.0,0.0,0.0,0.0,0.0,0.0,0.0,0.0,0.0,0.0,0.0,0.0,0.0,3.0398,0.0,0.0,3.0398,3.0398,3.0775,3.1198,3.1641,3.2429,3.2949,3.2949,3.368,3.4372,3.4814,3.5238,3.5493,3.5493,3.5872,3.6276,3.668,3.7123,3.7546,3.7988,3.8411,3.8642,3.8642,3.9046,3.9238,3.9238,3.9238,3.9238,3.9238,3.9238,3.9238,3.9238,3.9238,3.9238,3.9219,3.8815,3.8642,3.8604,3.8161,3.7738,3.7353,3.7353,3.7353,3.7296,2.5303,2.5303,2.5303,2.5303,2.5303,2.5322,2.537,2.539,2.5445,2.5559,2.5583,2.5625,2.5684,2.5703,2.5703,2.5703,2.5703,0.0,0.0,0.0,0.0,0.0,0.0,0.0,0.0,0.0,0.0,0.0,0.0,0.0,0.0,0.0,0.0,0.0,0.0,0.0,0.0,0.0,0.0,0.0,0.0,0.0,3.0898,3.0898,3.0898,3.0898,3.0898,3.0898,3.0898,3.0898,3.0898,3.0898,3.0898,3.0839,3.0712,3.0638,3.0565,0.0,0.0,0.0,0.0,0.0,0.0,0.0,0.0,0.0,3.0398,3.0398,3.0398,3.0398,3.0398,3.0398,3.0398,3.0398,3.1141,3.1756,3.191,3.3237,3.4257,3.443,3.4449,3.4737,3.543,3.5493,3.5551,3.5718,3.6334,3.6853,3.7199,3.7873,3.8315,3.8469,3.9161,3.9527,3.9527,4.0181,4.0489,4.0489,4.0489,4.0489,4.0489,4.0489,4.0489,4.0489,4.0489,4.0489,4.045,3.9796,3.9527,3.9527,3.9527,3.9104,3.8469,3.8315,3.8257,3.8238,0.0,2.5303,2.5303,2.5303,2.5303,2.5303,2.5303,2.537,2.5428,2.5502,2.5551,2.5625,2.5684,2.5703,2.5703,2.5703,2.5703,0.0,0.0,0.0,0.0,0.0,0.0,0.0,0.0,0.0,0.0,0.0,0.0,0.0,0.0,0.0,0.0,0.0,0.0,0.0,0.0,0.0,0.0,0.0,0.0,0.0,3.0898,3.0898,3.0898,3.0898,3.0898,3.0898,3.0898,3.0898,3.0898,3.0898,3.0898,3.0899,3.0842,3.065,0.0,3.0564,3.0417,3.0398,3.0398,3.0398,3.0398,3.0398,0.0,0.0,3.0398,3.0398,3.0398,3.0398,3.0398,3.0398,3.0398,3.0398,3.1141,3.1948,3.2679,3.3583,3.4487,3.5257,3.5353,3.5391,3.5474,3.5493,3.5815,3.6507,3.6661,3.7373,3.8931,3.9104,3.9469,4.02,4.0296,4.0354,4.0354,4.045,4.0489,4.0489,4.0489,4.0489,4.0489,4.0489,4.0489,4.0489,4.0489,4.0489,4.0489,4.0392,4.0354,4.0354,4.0354,4.0296,4.0123,3.9411,3.9142,3.9027,0.0,2.5303,2.5303,2.5303,2.5303,2.5303,2.5303,2.5322,2.539,2.5486,2.551,2.5588,2.5683,2.5703,2.5703,2.5703,0.0,0.0,2.5703,0.0,0.0,0.0,0.0,0.0,0.0,0.0,0.0,0.0,0.0,0.0,0.0,0.0,0.0,0.0,0.0,0.0,0.0,0.0,0.0,0.0,0.0,0.0,3.0898,3.0898,3.0898,3.0898,3.0898,3.0898,0.0,0.0,3.0898,3.0898,3.0898,3.0894,3.0859,3.0664,3.0604,0.0,3.0448,3.0398,0.0,0.0,3.0398,3.0398,3.0398,3.0398,3.0398,3.0398,3.0398,3.0398,3.0398,3.0398,3.0398,0.0,3.1525,3.2526,3.2852,3.4083,3.5084,3.5468,3.5493,3.5493,3.5493,3.5493,3.5834,3.6642,3.718,3.8007,3.9219,3.9738,4.0142,4.0489,4.0489,4.0489,4.0489,4.0489,4.0489,4.0489,4.0489,4.0489,4.0489,4.0489,4.0489,4.0489,4.0489,4.0489,4.0489,4.0489,4.0489,4.0489,4.0489,4.0489,4.045,4.0123,3.9988,3.995,0.0,2.5303,2.5303,2.5303,2.5303,2.5303,2.5303,2.5322,2.537,2.5486,2.5519,2.5576,2.5683,2.5703,2.5703,2.5703,0.0,0.0,0.0,2.5703,0.0,0.0,0.0,0.0,0.0,0.0,0.0,0.0,0.0,0.0,0.0,0.0,0.0,0.0,0.0,0.0,0.0,0.0,0.0,0.0,0.0,0.0,3.0898,3.0898,3.0898,3.0898,3.0898,3.0898,0.0,0.0,3.0898,3.0898,3.0897,3.0867,3.0812,3.0652,3.0565,3.0525,3.0417,0.0,0.0,3.0398,3.0398,3.0398,3.0398,3.0398,3.0398,3.0398,3.0398,3.0398,3.0398,3.0398,0.0,3.0398,3.1814,3.2891,3.2891,3.441,3.5493,3.5493,3.5493,3.5493,3.5493,3.5699,3.618,3.7007,3.7873,3.8719,3.9585,4.0181,4.0489,4.0489,4.0489,4.0489,4.0489,4.0489,4.0489,4.0489,4.0489,4.0489,4.0489,4.0489,4.0489,4.0489,4.0489,4.0489,4.0489,4.0489,4.0489,4.0489,4.0489,4.0489,4.0489,4.0489,4.0489,4.0489,0.0,0.0,2.5303,2.5303,2.5303,2.5303,2.5303,2.537,2.5428,2.5486,2.5553,2.5626,2.5681,2.5703,2.5703,0.0,0.0,0.0,0.0,2.5703,0.0,0.0,0.0,0.0,0.0,0.0,0.0,0.0,0.0,0.0,0.0,0.0,0.0,0.0,0.0,0.0,0.0,0.0,0.0,0.0,0.0,0.0,3.0898,3.0898,3.0898,3.0898,3.0898,0.0,0.0,0.0,3.0898,3.0892,3.0896,3.0799,0.0,3.0613,3.0507,0.0,0.0,0.0,3.0398,3.0398,3.0398,3.0398,3.0398,3.0398,3.0398,3.0398,3.0398,3.0398,3.0398,3.0398,3.0398,3.0398,3.1814,3.2891,3.2891,3.441,3.5493,3.5493,3.5493,3.5493,0.0,3.6219,3.7026,3.7892,3.8757,3.9604,4.0412,4.0489,4.0489,4.0489,4.0489,4.0489,4.0489,4.0489,4.0489,4.0489,4.0489,4.0489,4.0489,4.0489,4.0489,4.0489,4.0489,4.0489,4.0489,4.0489,4.0489,4.0489,4.0489,4.0489,4.0489,4.0489,4.0489,4.0489,0.0,0.0,0.0,0.0,0.0,2.5303,2.5303,2.5322,2.537,2.5414,2.5537,0.0,0.0,0.0,0.0,0.0,0.0,0.0,0.0,2.5703,0.0,0.0,0.0,0.0,0.0,0.0,0.0,0.0,0.0,0.0,0.0,0.0,0.0,0.0,0.0,0.0,0.0,0.0,0.0,0.0,0.0,0.0,3.0897,3.08,3.077,3.0766,0.0,0.0,0.0,0.0,3.0898,3.0898,3.0905,0.0,0.0,3.0703,3.0546,3.0398,0.0,0.0,3.0398,3.0398,3.0398,3.0398,3.0398,3.0398,3.0398,3.0398,3.0398,3.0398,3.0398,3.0398,3.0398,3.0398,3.1814,3.2891,3.2891,3.441,3.5493,3.5493,3.5493,0.0,0.0,0.0,0.0,3.793,3.8815,3.9642,4.045,4.0489,4.0489,4.0489,4.0489,4.0489,4.0489,4.1066,4.1354,4.1373,4.195,4.222,4.222,4.222,4.222,4.222,4.222,4.222,4.222,4.222,4.222,4.222,4.222,4.222,4.222,4.222,4.222,4.2066,0.0,0.0,0.0,0.0,0.0,0.0,0.0,0.0,0.0,0.0,0.0,0.0,0.0,0.0,0.0,0.0,0.0,0.0,0.0,0.0,0.0,0.0,0.0,0.0,0.0,0.0,0.0,0.0,0.0,0.0,0.0,0.0,0.0,0.0,0.0,0.0,0.0,0.0,0.0,0.0,0.0,0.0,3.0777,3.0692,3.0653,0.0,0.0,0.0,0.0,0.0,0.0,0.0,3.0806,3.0769,3.0737,3.0621,3.0506,3.0398,0.0,3.0417,3.0398,3.0398,3.0398,3.0398,3.0398,3.0398,3.0398,3.0398,3.0398,3.0398,3.0398,3.0398,3.0398,3.0398,3.1814,3.2891,3.2891,3.441,3.5493,3.5493,3.5493,0.0,0.0,0.0,0.0,3.7969,3.9065,3.995,4.0469,4.0489,4.0489,4.0489,4.0796,4.095,4.095,4.1835,4.2258,4.2277,4.2835,4.3104,4.3104,4.3104,4.3104,4.3104,4.3104,4.3104,4.3104,4.3104,4.3104,4.3104,4.3104,4.3104,4.3104,4.3104,4.3104,4.2931,0.0,0.0,0.0,0.0,0.0,0.0,0.0,0.0,0.0,0.0,0.0,0.0,0.0,0.0,0.0,0.0,0.0,0.0,0.0,0.0,0.0,0.0,0.0,0.0,0.0,0.0,0.0,0.0,0.0,0.0,0.0,0.0,0.0,0.0,0.0,0.0,0.0,0.0,0.0,0.0,0.0,0.0,3.0594,3.0594,0.0,0.0,0.0,0.0,0.0,0.0,0.0,0.0,0.0,0.0,3.0487,3.0417,3.0398,3.0398,3.0398,3.0398,3.0398,3.0398,3.0398,3.0398,3.0398,3.0398,3.0398,3.0398,3.0398,3.0398,0.0,0.0,3.0398,3.0398,3.1814,3.2891,3.2891,3.441,3.5493,0.0,0.0,0.0,0.0,0.0,0.0,3.8065,0.0,4.0489,4.0489,4.0489,4.0508,4.0566,4.1373,4.1816,4.1873,4.2739,4.3181,4.322,4.322,4.322,4.322,4.322,4.322,4.322,4.322,4.322,4.322,4.322,4.322,4.322,4.322,4.322,4.322,4.322,4.322,4.322,0.0,0.0,0.0,0.0,0.0,0.0,0.0,0.0,0.0,0.0,0.0,0.0,0.0,0.0,0.0,0.0,0.0,0.0,0.0,0.0,0.0,0.0,0.0,0.0,0.0,0.0,0.0,0.0,0.0,0.0,0.0,0.0,0.0,0.0,0.0,0.0,0.0,0.0,0.0,0.0,0.0,0.0,3.0597,0.0,0.0,0.0,0.0,0.0,0.0,0.0,0.0,0.0,0.0,0.0,3.0506,3.0544,3.0487,3.0398,3.0467,3.0448,3.0398,3.0398,3.0398,3.0398,3.0398,3.0398,3.0398,3.0398,3.0398,3.0398,0.0,0.0,0.0,3.0398,3.1814,0.0,3.2891,3.441,0.0,0.0,0.0,3.5834,3.6622,3.7488,0.0,0.0,3.9912,4.0489,4.0489,4.0489,4.0796,4.145,4.1681,4.2104,4.2758,4.3585,4.4316,4.4951,4.4951,4.4951,4.4951,4.4951,4.4951,4.4951,4.4951,4.4951,4.4951,4.4951,4.4951,4.4951,4.4951,4.4951,4.4951,4.4951,4.4951,4.4951,0.0,0.0,0.0,0.0,0.0,0.0,0.0,0.0,0.0,0.0,0.0,0.0,0.0,0.0,0.0,0.0,0.0,0.0,0.0,0.0,0.0,0.0,0.0,0.0,0.0,0.0,0.0,0.0,0.0,0.0,0.0,0.0,0.0,0.0,0.0,0.0,0.0,0.0,0.0,0.0,0.0,0.0,0.0,0.0,0.0,0.0,0.0,0.0,0.0,0.0,0.0,3.0509,3.0552,3.0506,3.0467,3.0506,0.0,3.0398,3.0448,3.0417,3.0398,3.0398,3.0398,3.0398,3.0398,3.0398,3.0398,3.0398,3.0398,0.0,0.0,0.0,0.0,0.0,0.0,0.0,3.2852,3.4064,3.5064,0.0,3.5815,0.0,3.7199,3.8065,3.8911,0.0,4.0239,4.0489,4.0489,4.0854,4.1296,4.1777,4.2508,4.3316,4.4182,4.4643,4.5124,4.5586,4.5586,4.5586,4.5586,4.5586,4.5586,4.5586,0.0,4.5586,4.5586,4.5586,4.5586,4.5586,4.5586,4.5586,4.5586,4.5586,4.5586,4.5586,0.0,0.0,0.0,0.0,0.0,0.0,0.0,0.0,0.0,0.0,2.5303,0.0,0.0,0.0,0.0,0.0,0.0,0.0,0.0,0.0,0.0,0.0,0.0,0.0,0.0,0.0,0.0,0.0,0.0,0.0,0.0,0.0,0.0,0.0,0.0,0.0,0.0,0.0,0.0,0.0,0.0,0.0,0.0,0.0,0.0,0.0,0.0,0.0,0.0,0.0,3.0398,3.0398,3.0467,3.0448,3.0398,3.0398,3.0398,3.0398,3.0398,3.0398,3.0398,3.0398,3.0398,3.0398,3.0398,3.0398,3.0398,3.0398,0.0,0.0,3.0398,0.0,3.0398,3.0398,0.0,3.1987,3.2795,3.3641,3.4526,3.5411,3.6219,3.7046,3.7911,3.8796,3.9623,4.0431,4.0604,4.0662,4.0662,4.1393,4.1912,4.2124,4.3643,4.4836,4.5586,4.5586,4.5586,4.5586,4.5586,4.5586,4.5586,4.5586,4.5586,4.5586,0.0,0.0,4.5586,4.5586,4.5586,4.5586,4.5586,4.5586,4.5586,4.5586,4.5586,4.5586,0.0,0.0,0.0,0.0,0.0,0.0,0.0,0.0,0.0,0.0,2.5303,2.5303,0.0,0.0,0.0,0.0,0.0,0.0,0.0,0.0,0.0,0.0,0.0,0.0,0.0,0.0,0.0,0.0,0.0,0.0,0.0,0.0,0.0,0.0,0.0,0.0,0.0,0.0,0.0,0.0,0.0,0.0,0.0,0.0,0.0,0.0,0.0,0.0,0.0,0.0,3.0398,3.0398,3.0398,3.0398,3.0398,3.0398,3.0398,3.0398,3.0398,3.0398,3.0398,3.0398,3.0398,3.0398,3.0398,3.0398,0.0,0.0,0.0,3.0398,3.0398,3.0398,0.0,3.0398,0.0,0.0,0.0,0.0,3.4526,0.0,0.0,0.0,0.0,0.0,0.0,0.0,0.0,0.0,4.1566,4.172,4.2431,4.3816,4.4855,4.5451,4.5586,4.5586,4.5586,4.5586,4.5586,4.5586,4.5586,4.5586,4.5586,4.5586,4.5586,0.0,4.5586,4.5586,4.5586,4.5586,4.5586,4.5586,4.5586,4.5586,4.5586,4.5586,0.0,0.0,0.0,0.0,0.0,0.0,0.0,2.5138,2.5303,2.5303,2.5303,2.5303,2.5303,2.5303,2.5303,0.0,0.0,0.0,0.0,0.0,0.0,0.0,0.0,0.0,0.0,0.0,0.0,0.0,0.0,0.0,0.0,0.0,0.0,0.0,0.0,0.0,0.0,0.0,0.0,0.0,0.0,0.0,0.0,0.0,0.0,0.0,0.0,0.0,0.0,0.0,3.0398,3.0398,3.0398,3.0398,3.0398,3.0398,3.0398,3.0398,3.0398,3.0398,3.0398,3.0398,3.0398,3.0398,3.0398,0.0,0.0,0.0,0.0,3.0398,3.0398,0.0,0.0,0.0,0.0,0.0,0.0,0.0,0.0,0.0,0.0,0.0,0.0,0.0,0.0,0.0,0.0,0.0,4.1797,4.2624,4.3682,4.4932,4.5374,4.5586,4.5586,4.5586,4.5586,4.5586,4.5586,4.5586,4.5586,4.5586,4.5586,4.5586,4.5586,0.0,4.5586,4.5586,4.5586,4.5586,4.5586,4.5586,4.5586,4.5586,4.5586,4.5586,0.0,0.0,0.0,0.0,0.0,0.0,2.4818,2.5091,2.5303,2.5303,2.5303,2.5303,2.5303,2.5303,2.5303,0.0,0.0,0.0,0.0,0.0,0.0,0.0,0.0,0.0,0.0,0.0,0.0,0.0,0.0,0.0,0.0,0.0,0.0,0.0,0.0,0.0,0.0,0.0,0.0,0.0,0.0,0.0,0.0,0.0,0.0,0.0,0.0,0.0,0.0,0.0,3.0398,3.0398,3.0398,3.0398,3.0398,3.0398,3.0398,3.0398,3.0398,3.0398,3.0398,3.0398,3.0398,3.0398,3.0398,3.0398,0.0,0.0,0.0,0.0,0.0,0.0,0.0,0.0,0.0,0.0,0.0,0.0,0.0,0.0,0.0,0.0,0.0,0.0,0.0,0.0,0.0,0.0,4.2335,4.3758,4.4893,4.5566,4.5586,4.5586,4.5586,4.5586,4.5586,4.5586,4.5586,4.5586,4.5586,4.5586,4.5586,4.5586,4.5586,0.0,0.0,4.5586,4.5586,4.5586,4.5586,4.5586,4.5586,4.5586,4.5586,4.5586,0.0,0.0,0.0,0.0,0.0,0.0,2.4804,2.5091,2.5303,2.5303,2.5303,2.5303,2.5303,2.5303,2.5303,0.0,0.0,0.0,0.0,0.0,0.0,0.0,0.0,0.0,0.0,0.0,0.0,0.0,0.0,0.0,0.0,0.0,0.0,0.0,0.0,0.0,0.0,0.0,0.0,0.0,0.0,0.0,0.0,0.0,0.0,0.0,0.0,0.0,0.0,0.0,0.0,3.0398,3.0398,3.0398,3.0398,3.0398,0.0,0.0,3.0398,3.0398,3.0398,3.0398,3.0398,3.0398,3.0398,0.0,0.0,0.0,3.0398,3.0398,0.0,0.0,0.0,0.0,0.0,0.0,0.0,0.0,0.0,0.0,0.0,0.0,0.0,0.0,0.0,0.0,0.0,0.0,4.4066,4.497,4.5509,4.5586,4.5586,4.5586,4.5586,4.5586,4.5586,4.5586,4.5586,4.5586,4.5586,4.5586,4.5586,4.5586,4.5586,0.0,0.0,4.5586,4.5586,4.5586,4.5586,4.5586,4.5586,4.5586,4.5586,4.5586,0.0,0.0,0.0,0.0,0.0,0.0,2.493,2.5149,2.5303,2.5303,2.5303,2.5303,2.5303,2.5303,2.5303,2.5303,0.0,0.0,0.0,0.0,0.0,0.0,0.0,0.0,0.0,0.0,0.0,0.0,0.0,0.0,0.0,0.0,0.0,0.0,0.0,0.0,0.0,0.0,0.0,0.0,0.0,0.0,0.0,0.0,0.0,0.0,0.0,0.0,0.0,0.0,0.0,0.0,3.0398,3.0398,0.0,0.0,3.0398,3.0398,3.0398,3.0398,3.0398,3.0398,3.0398,3.0398,3.0398,0.0,0.0,3.0398,3.0398,3.0398,3.0398,0.0,0.0,0.0,0.0,0.0,0.0,0.0,0.0,0.0,0.0,0.0,0.0,0.0,0.0,0.0,0.0,0.0,4.5047,4.5413,4.5586,4.5586,4.5586,4.5586,4.5586,4.5586,4.5586,4.5586,4.5586,4.5586,4.5586,4.5586,4.5586,4.5586,4.5586,0.0,0.0,4.5586,4.5586,4.5586,4.5586,4.5586,4.5586,4.5586,4.5586,4.5586,0.0,0.0,0.0,0.0,0.0,2.501,2.501,2.5163,2.5303,2.5303,2.5303,2.5303,2.5303,2.5303,2.5274,2.5214,2.5264,0.0,0.0,0.0,0.0,0.0,0.0,0.0,0.0,0.0,0.0,0.0,0.0,0.0,0.0,0.0,0.0,0.0,0.0,0.0,0.0,0.0,0.0,0.0,0.0,0.0,0.0,0.0,0.0,0.0,0.0,0.0,0.0,0.0,0.0,0.0,0.0,0.0,0.0,0.0,3.0398,3.0398,3.0398,3.0398,3.0398,3.0398,3.0398,3.0398,0.0,0.0,0.0,3.0398,3.0398,3.0398,3.0398,3.0398,0.0,3.0398,0.0,0.0,0.0,0.0,0.0,0.0,0.0,0.0,0.0,0.0,0.0,0.0,0.0,0.0,0.0,4.5586,4.5586,4.5586,4.5586,4.5586,4.5586,4.5586,4.5586,4.5586,4.5586,4.5586,4.5586,4.5586,4.5586,4.5586,0.0,0.0,0.0,4.5586,4.5586,4.5586,4.5586,4.5586,4.5586,4.5586,4.5586,4.5586,0.0,0.0,0.0,0.0,0.0,0.0,2.501,2.5163,2.5303,2.5303,2.5303,2.5303,2.5303,2.5303,2.5214,2.5022,2.5192,0.0,0.0,0.0,0.0,0.0,0.0,0.0,0.0,0.0,2.5099,2.5303,2.5099,0.0,0.0,0.0,0.0,0.0,0.0,0.0,0.0,0.0,0.0,0.0,0.0,0.0,0.0,0.0,0.0,0.0,0.0,0.0,0.0,0.0,0.0,0.0,0.0,0.0,0.0,0.0,3.0398,3.0398,3.0398,3.0398,3.0398,3.0398,3.0398,3.0398,0.0,0.0,0.0,3.0398,3.0398,3.0398,3.0398,3.0398,3.0398,3.0398,3.0398,0.0,0.0,0.0,0.0,0.0,0.0,0.0,0.0,0.0,0.0,0.0,0.0,0.0,0.0,4.5586,4.5586,4.5586,4.5586,4.5586,4.5586,4.5586,4.5586,4.5586,4.5586,4.5586,4.5586,4.5586,4.5586,0.0,0.0,0.0,0.0,4.5586,4.5586,4.5586,4.5586,4.5586,4.5586,4.5586,4.5586,4.5586,0.0,0.0,0.0,0.0,0.0,0.0,2.501,2.5046,2.5053,2.4962,2.4968,2.4987,2.5088,2.5099,2.5077,2.501,2.5065,0.0,0.0,0.0,0.0,0.0,0.0,0.0,0.0,0.0,2.4943,2.5099,2.5034,2.5099,2.5303,2.5303,0.0,0.0,0.0,0.0,0.0,0.0,0.0,0.0,0.0,0.0,0.0,0.0,0.0,0.0,0.0,0.0,0.0,0.0,0.0,0.0,0.0,0.0,0.0,3.0398,3.0398,0.0,3.0398,3.0398,3.0398,3.0398,3.0398,3.0398,3.0398,0.0,0.0,0.0,3.0398,3.0398,3.0398,3.0398,3.0398,3.0398,3.0398,0.0,0.0,0.0,0.0,0.0,0.0,0.0,0.0,0.0,0.0,0.0,0.0,0.0,0.0,4.5586,4.5586,4.5586,4.5586,4.5586,4.5586,4.5586,4.5586,4.5586,4.5586,4.5586,4.5586,4.5586,0.0,0.0,0.0,0.0,0.0,4.5586,4.5586,4.5586,4.5586,4.5586,4.5586,4.5586,4.5586,4.5586,0.0,0.0,0.0,0.0,0.0,0.0,2.4911,2.4911,2.4891,2.4818,2.4804,2.4828,2.4917,2.4911,2.4885,2.4818,2.4804,0.0,0.0,0.0,0.0,0.0,0.0,0.0,2.4685,2.4685,2.4771,2.4911,2.4911,2.4981,2.5115,2.5466,2.5608,2.5607,0.0,0.0,0.0,0.0,0.0,0.0,0.0,0.0,3.0128,0.0,0.0,0.0,0.0,0.0,0.0,0.0,0.0,0.0,0.0,0.0,0.0,0.0,3.0398,3.0398,0.0,3.0398,3.0398,3.0398,3.0398,0.0,0.0,0.0,0.0,0.0,0.0,3.0398,3.0398,3.0398,3.0398,3.0398,3.0398,0.0,0.0,0.0,0.0,0.0,0.0,0.0,0.0,0.0,0.0,0.0,0.0,0.0,0.0,4.5586,4.5586,4.5586,4.5586,4.5586,4.5586,4.5586,4.5586,4.5586,4.5586,4.5586,4.5586,4.5586,0.0,0.0,0.0,0.0,0.0,4.5586,4.5586,4.5586,4.5586,4.5586,4.5586,4.5586,4.5586,4.5586,0.0,0.0,0.0,0.0,0.0,0.0,0.0,2.4775,2.4775,2.476,2.476,2.476,2.4775,2.4775,2.47,2.4528,2.4495,0.0,0.0,0.0,0.0,0.0,0.0,0.0,2.4478,2.4478,2.4594,2.4775,2.4832,2.4884,2.4917,2.5834,2.6205,2.6117,2.693,2.762,0.0,0.0,0.0,0.0,0.0,2.9696,0.0,0.0,0.0,0.0,0.0,0.0,0.0,0.0,0.0,0.0,0.0,0.0,0.0,0.0,0.0,0.0,0.0,3.0398,3.0398,3.0398,3.0398,3.0398,0.0,0.0,0.0,0.0,0.0,3.0398,3.0398,3.0398,3.0398,3.0398,3.0436,0.0,0.0,0.0,0.0,0.0,0.0,0.0,0.0,0.0,0.0,0.0,0.0,0.0,0.0,4.5586,4.5586,4.5586,4.5586,4.5586,4.5586,4.5586,4.5586,4.5586,4.5586,4.5586,4.5586,4.5586,0.0,0.0,0.0,0.0,0.0,4.5586,4.5586,4.5586,4.5586,4.5586,4.5586,4.5586,4.5586,4.5586,0.0,0.0,0.0,0.0,0.0,0.0,0.0,0.0,0.0,0.0,2.4339,2.441,2.4543,2.4559,2.4543,0.0,0.0,0.0,0.0,0.0,0.0,0.0,0.0,0.0,2.4266,2.4266,2.4375,2.4559,2.5196,2.5579,2.5755,2.6563,2.6959,2.6949,2.7756,2.8482,0.0,0.0,0.0,0.0,2.9474,2.9551,0.0,0.0,0.0,0.0,2.9746,2.9877,0.0,0.0,0.0,0.0,0.0,0.0,0.0,0.0,3.0398,3.0398,3.0398,0.0,3.0398,3.0398,3.0398,3.0398,0.0,0.0,0.0,0.0,0.0,3.0398,3.0398,3.0398,3.0398,3.0398,0.0,0.0,0.0,0.0,0.0,0.0,0.0,0.0,0.0,0.0,0.0,0.0,0.0,0.0,0.0,4.5586,4.5586,4.5586,4.5586,4.5586,4.5586,4.5586,4.5586,4.5586,4.5586,4.5586,4.5586,4.5586,0.0,0.0,0.0,0.0,4.5586,4.5586,4.5586,4.5586,4.5586,4.5586,4.5586,4.5586,4.5586,4.5586,0.0,0.0,0.0,0.0,0.0,0.0,0.0,0.0,0.0,0.0,2.419,2.4247,2.4339,2.4357,2.4357,0.0,0.0,0.0,0.0,0.0,0.0,0.0,0.0,2.419,2.419,2.419,2.4469,2.5051,2.5501,2.5927,2.6439,2.7246,2.7568,2.7512,2.8313,2.8866,2.9222,2.9044,2.9089,2.9222,2.9222,0.0,0.0,0.0,0.0,0.0,2.9514,2.9625,0.0,2.9939,3.0089,3.0241,0.0,0.0,0.0,0.0,3.0398,3.0398,3.0398,3.0398,3.0398,3.0398,3.0398,3.0398,3.0398,0.0,0.0,0.0,0.0,0.0,3.0398,0.0,0.0,0.0,0.0,0.0,0.0,0.0,0.0,0.0,0.0,0.0,0.0,0.0,0.0,0.0,0.0,0.0,0.0,4.5586,4.5586,4.5586,4.5586,4.5586,4.5586,4.5586,4.5586,4.5586,4.5586,4.5586,4.5586,4.5586,4.5586,0.0,0.0,0.0,4.5586,4.5586,4.5586,4.5586,4.5586,4.5586,4.5586,4.5586,4.5586,4.5586,0.0,0.0,0.0,0.0,0.0,0.0,0.0,0.0,0.0,0.0,0.0,0.0,0.0,0.0,0.0,0.0,0.0,0.0,0.0,0.0,0.0,0.0,2.419,2.419,2.419,2.4318,2.4801,2.565,2.5894,2.6358,2.7046,2.7863,2.8149,2.8007,2.8705,2.8994,2.8994,2.8994,2.8994,2.8994,2.8994,0.0,0.0,0.0,0.0,0.0,0.0,0.0,0.0,2.9796,2.9939,2.9999,3.0254,0.0,0.0,0.0,0.0,0.0,3.0398,3.0398,3.0398,3.0398,3.0398,3.0398,0.0,0.0,0.0,0.0,0.0,0.0,0.0,0.0,0.0,0.0,0.0,0.0,0.0,0.0,0.0,0.0,0.0,0.0,0.0,0.0,0.0,0.0,0.0,0.0,0.0,4.5586,4.5586,4.5586,4.5586,4.5586,4.5586,4.5586,4.5586,4.5586,4.5586,4.5586,4.5586,4.5586,4.5586,0.0,0.0,0.0,4.5586,4.5586,4.5586,4.5586,4.5586,4.5586,4.5586,4.5586,4.5586,4.5586,0.0,0.0,0.0,0.0,0.0,0.0,0.0,0.0,0.0,0.0,0.0,0.0,0.0,0.0,0.0,0.0,0.0,0.0,0.0,0.0,0.0,2.419,2.419,2.419,2.419,2.4869,2.5294,2.5444,2.6804,2.754,2.7669,2.8496,2.8838,2.881,2.8938,2.8994,2.8994,2.8994,2.8994,2.8994,2.8994,0.0,0.0,0.0,0.0,0.0,0.0,0.0,0.0,2.9474,2.9607,2.978,2.9984,0.0,0.0,0.0,0.0,0.0,3.0398,3.0398,3.0398,3.0398,3.0398,3.0398,0.0,0.0,0.0,0.0,0.0,0.0,0.0,0.0,0.0,0.0,0.0,0.0,0.0,0.0,0.0,0.0,0.0,0.0,0.0,0.0,0.0,0.0,0.0,0.0,0.0,0.0,4.5586,4.5586,4.5586,4.5586,4.5586,4.5586,4.5586,4.5586,4.5586,4.5586,4.5586,4.5586,4.5586,0.0,0.0,4.5586,4.5586,4.5586,4.5586,4.5586,4.5586,4.5586,4.5586,4.5586,4.5586,4.5586,0.0,0.0,0.0,0.0,0.0,0.0,0.0,0.0,0.0,0.0,0.0,0.0,0.0,0.0,0.0,0.0,0.0,0.0,0.0,0.0,2.419,2.419,2.419,2.419,2.419,2.4999,2.5685,2.6208,2.7285,2.8095,2.8669,2.8901,2.8994,2.8994,2.8994,2.8994,2.8994,2.8994,2.8994,2.8994,0.0,0.0,0.0,0.0,0.0,0.0,0.0,0.0,0.0,0.0,2.9514,2.9748,2.9939,0.0,0.0,0.0,0.0,0.0,3.0398,3.0398,3.0398,3.0398,3.0398,0.0,0.0,0.0,0.0,0.0,0.0,0.0,0.0,0.0,0.0,0.0,0.0,0.0,0.0,0.0,0.0,0.0,0.0,0.0,0.0,0.0,0.0,0.0,0.0,0.0,0.0,0.0,4.5586,4.5586,4.5586,4.5586,4.5586,4.5586,4.5586,4.5586,4.5586,4.5586,4.5586,4.5586,4.5586,4.5586,0.0,4.5586,4.5586,4.5586,4.5586,4.5586,4.5586,4.5586,4.5586,4.5586,4.5586,4.5586,0.0,0.0,0.0,0.0,0.0,0.0,0.0,0.0,0.0,0.0,0.0,0.0,0.0,0.0,0.0,0.0,0.0,0.0,0.0,2.419,2.419,2.419,2.419,2.4281,2.4483,2.5254,2.6147,2.7101,2.7748,2.8504,2.931,2.9089,2.8994,2.8994,2.8994,2.8994,2.8994,2.8994,2.8994,2.8994,0.0,0.0,0.0,0.0,0.0,0.0,0.0,0.0,0.0,0.0,0.0,0.0,0.0,0.0,0.0,3.0367,3.0398,3.0398,3.0398,3.0398,3.0398,0.0,0.0,0.0,0.0,0.0,0.0,0.0,0.0,0.0,0.0,0.0,0.0,0.0,0.0,0.0,0.0,0.0,0.0,0.0,0.0,0.0,0.0,0.0,0.0,0.0,0.0,0.0,0.0,0.0,4.5586,4.5586,4.5586,4.5568,4.5495,4.5495,4.5513,4.5586,4.5586,4.5586,4.5586,4.5586,4.5586,4.5586,4.5586,4.5586,4.5586,4.5586,4.5586,4.5586,4.5586,4.5586,4.5586,4.5586,4.5586,4.5586,0.0,0.0,0.0,0.0,0.0,0.0,0.0,0.0,0.0,0.0,0.0,0.0,0.0,0.0,0.0,0.0,0.0,0.0,0.0,2.419,2.419,2.419,2.419,2.4538,2.5311,2.6098,2.6906,2.7739,2.8521,2.8943,2.904,2.9017,2.8994,2.8994,2.8994,2.8994,2.8994,2.8994,2.8994,2.8994,2.8994,0.0,0.0,0.0,0.0,0.0,0.0,0.0,0.0,0.0,0.0,0.0,0.0,0.0,3.0075,3.0323,3.0398,3.0398,3.0398,3.0398,3.0398,3.0398,0.0,0.0,0.0,0.0,0.0,0.0,0.0,0.0,0.0,0.0,0.0,0.0,0.0,0.0,0.0,0.0,0.0,0.0,0.0,0.0,0.0,0.0,0.0,0.0,0.0,0.0,0.0,0.0,0.0,4.5586,4.5586,4.5438,4.514,4.5137,4.5302,4.5586,4.5586,4.5586,4.5586,4.5586,4.5586,4.5586,4.5586,4.5586,4.5586,4.5586,4.5586,4.5586,4.5586,4.5586,4.5586,4.5586,4.5586,4.5568,0.0,0.0,0.0,0.0,0.0,0.0,0.0,0.0,0.0,0.0,0.0,0.0,0.0,0.0,0.0,0.0,0.0,0.0,0.0,2.419,2.419,2.419,2.419,2.4814,2.6117,2.6447,2.6998,2.7787,2.8613,2.8994,2.8994,2.8994,2.8994,2.8994,2.8994,2.8994,2.8994,2.8994,2.8994,2.8994,2.8994,2.8994,0.0,0.0,0.0,0.0,0.0,0.0,0.0,0.0,2.9474,2.9625,2.9908,3.0103,3.0267,3.0367,3.0398,3.0398,3.0398,3.0267,3.0196,0.0,0.0,0.0,0.0,0.0,0.0,0.0,0.0,0.0,0.0,0.0,0.0,0.0,0.0,0.0,0.0,0.0,0.0,0.0,0.0,0.0,0.0,0.0,0.0,0.0,0.0,0.0,0.0,0.0,0.0,4.5302,4.5096,4.4919,4.48,4.48,4.4849,4.4988,4.4988,4.5201,4.5586,4.5381,4.54,4.5586,4.5381,4.5302,4.5302,4.5302,4.5302,4.5302,4.5302,4.5161,4.4988,4.4988,4.5118,4.5243,0.0,0.0,0.0,0.0,0.0,0.0,0.0,0.0,0.0,0.0,0.0,0.0,0.0,0.0,0.0,0.0,0.0,0.0,2.419,2.419,2.419,2.419,2.4428,2.5199,2.6576,2.6851,2.7365,2.8172,2.8741,2.8994,2.8994,2.8994,2.8994,2.8994,2.8994,2.8994,2.8994,2.8994,2.8994,2.8994,2.8994,2.8994,0.0,0.0,0.0,0.0,0.0,0.0,0.0,0.0,2.9514,2.9748,2.9939,3.0177,3.0398,3.0398,3.0343,3.0267,3.0267,3.0136,3.0028,0.0,0.0,0.0,0.0,0.0,0.0,0.0,0.0,0.0,0.0,0.0,0.0,0.0,0.0,0.0,0.0,0.0,0.0,0.0,0.0,0.0,0.0,0.0,0.0,0.0,0.0,0.0,0.0,0.0,0.0,0.0,4.4726,4.4527,4.4419,4.4419,4.4419,4.4419,4.4308,4.4612,4.5283,4.5052,4.5074,4.5263,4.5033,4.4943,4.4943,4.4943,4.4943,4.4943,4.4943,4.4781,4.458,4.458,4.4751,4.4896,0.0,0.0,0.0,0.0,0.0,0.0,0.0,0.0,2.419,2.419,2.419,0.0,0.0,0.0,0.0,0.0,0.0,0.0,2.419,2.419,2.419,2.419,2.498,2.5768,2.6594,2.7402,2.8209,2.8994,2.8994,2.8994,2.8994,2.8994,2.8994,2.8994,2.8994,2.8994,2.8994,2.8994,2.8994,2.8994,2.8994,2.8994,2.8994,0.0,0.0,0.0,0.0,0.0,0.0,0.0,2.9514,2.9748,2.9939,3.0177,3.0398,3.0398,3.0209,2.9999,2.9999,2.9999,0.0,0.0,0.0,0.0,0.0,0.0,0.0,0.0,0.0,0.0,0.0,0.0,0.0,0.0,0.0,0.0,0.0,0.0,0.0,0.0,0.0,0.0,0.0,0.0,0.0,0.0,0.0,0.0,0.0,0.0,0.0,0.0,4.458,4.4419,4.4016,4.4016,4.4016,4.3986,4.3646,4.3886,4.458,4.4599,4.4599,4.458,4.4599,4.458,4.458,4.458,4.458,4.458,4.458,4.458,4.458,4.458,4.458,4.4527,0.0,0.0,0.0,0.0,0.0,0.0,0.0,0.0,2.419,2.419,2.419,0.0,0.0,0.0,0.0,0.0,0.0,0.0,2.419,2.419,2.419,2.419,2.498,2.5768,2.6594,2.7952,2.8778,2.8994,2.8994,2.8994,2.8994,2.8994,2.8994,2.8994,2.8994,2.8994,2.8994,2.8994,2.8994,2.8994,2.8994,2.8994,2.8994,0.0,0.0,0.0,0.0,0.0,0.0,0.0,0.0,0.0,2.9939,3.0177,3.0398,3.0398,3.0336,3.0267,3.0267,0.0,0.0,0.0,0.0,0.0,0.0,0.0,0.0,0.0,0.0,0.0,0.0,0.0,0.0,0.0,0.0,0.0,0.0,0.0,0.0,0.0,0.0,0.0,0.0,0.0,0.0,0.0,0.0,0.0,0.0,0.0,0.0,0.0,4.3943,4.3758,4.3646,4.3646,4.3646,4.3646,4.3548,4.3886,4.458,4.4308,4.4318,4.458,4.429,4.4175,4.4175,4.4175,4.4175,4.4175,4.4175,4.4016,4.3823,4.3823,4.3974,4.4136,0.0,0.0,0.0,0.0,0.0,0.0,0.0,0.0,2.419,2.419,2.419,2.419,0.0,0.0,0.0,0.0,0.0,0.0,2.419,2.419,2.4337,2.4649,2.5438,2.6392,2.7548,2.848,2.8994,2.8994,2.8994,2.8994,2.8994,2.8994,2.8994,2.8994,2.8994,2.8994,2.8994,2.8994,2.8994,2.8994,2.8994,2.8994,2.8994,0.0,0.0,0.0,0.0,0.0,0.0,0.0,0.0,0.0,2.9813,3.0047,3.0241,3.0241,3.0182,3.0099,3.0026,0.0,0.0,0.0,0.0,0.0,0.0,0.0,0.0,0.0,0.0,0.0,0.0,0.0,0.0,0.0,0.0,0.0,0.0,0.0,0.0,0.0,0.0,0.0,0.0,0.0,0.0,0.0,0.0,0.0,0.0,0.0,0.0,0.0,4.3597,4.3497,4.3497,4.3497,4.3497,4.3497,4.3497,4.3744,4.4136,4.3912,4.3943,4.4154,4.3912,4.3804,4.3804,4.3804,4.3804,4.3804,4.3804,4.3679,4.3497,4.3497,4.3612,4.3772,0.0,0.0,2.419,2.419,0.0,0.0,0.0,0.0,2.419,2.419,2.419,2.419,0.0,0.0,0.0,0.0,0.0,0.0,2.419,2.419,2.4557,2.5366,2.6245,2.7438,2.8957,2.8994,2.8994,2.8994,2.8994,2.8994,2.8994,2.8994,2.8994,2.8994,2.8994,2.8994,2.8994,2.8994,2.8994,2.8994,2.8994,2.8994,2.8994,2.8994,0.0,0.0,0.0,0.0,0.0,0.0,0.0,0.0,2.9626,2.9813,2.9984,2.9999,2.9861,2.9661,0.0,0.0,0.0,0.0,0.0,0.0,0.0,0.0,0.0,0.0,0.0,0.0,0.0,0.0,0.0,0.0,0.0,0.0,0.0,0.0,0.0,0.0,0.0,0.0,0.0,0.0,0.0,0.0,0.0,0.0,0.0,0.0,0.0,0.0,4.3497,4.3497,4.3497,4.3497,4.3497,0.0,4.3497,4.3497,4.3497,4.3497,4.3497,4.3497,4.3497,4.3497,4.3497,4.3497,4.3497,4.3497,4.3497,4.3497,4.3497,4.3497,4.3497,4.3497,0.0,0.0,2.419,2.419,0.0,0.0,0.0,0.0,0.0,0.0,0.0,0.0,0.0,0.0,0.0,0.0,0.0,0.0,2.419,2.419,2.4557,2.5366,2.6778,2.8007,2.8975,2.8994,2.8994,2.8994,2.8994,2.8994,2.8994,2.8994,2.8994,2.8994,2.8994,2.8994,2.8994,2.8994,2.8994,2.8994,2.8994,2.8994,2.8994,2.8994,2.8994,0.0,0.0,0.0,0.0,0.0,0.0,0.0,2.9454,2.9607,2.9796,2.9954,2.9861,2.9765,0.0,0.0,0.0,0.0,0.0,0.0,0.0,0.0,0.0,0.0,0.0,0.0,0.0,0.0,0.0,0.0,0.0,0.0,0.0,0.0,0.0,0.0,0.0,0.0,0.0,0.0,0.0,0.0,0.0,0.0,0.0,0.0,0.0,4.3497,4.3497,4.3497,4.3497,4.3497,4.3497,0.0,4.3497,4.3497,4.3497,4.3497,4.3497,4.3497,4.3497,4.3497,4.3497,4.3497,4.3497,4.3497,4.3497,4.3497,4.3497,4.3497,4.3497,4.3497,0.0,0.0,0.0,0.0,0.0,0.0,0.0,0.0,0.0,0.0,0.0,0.0,0.0,0.0,0.0,0.0,0.0,0.0,2.419,2.4557,2.5309,2.6505,2.7714,2.8576,2.8975,2.8994,2.8994,2.8994,2.8994,2.8994,2.8994,2.8994,2.8994,2.8994,2.8994,2.8994,2.8994,2.8994,2.8994,2.8994,2.8994,2.8994,2.8994,2.8994,2.8994,2.8994,2.8994,0.0,0.0,0.0,0.0,0.0,0.0,0.0,2.957,2.9678,2.9625,2.9607,0.0,0.0,0.0,0.0,0.0,0.0,0.0,0.0,0.0,0.0,0.0,0.0,0.0,0.0,0.0,0.0,0.0,0.0,0.0,0.0,0.0,0.0,0.0,0.0,0.0,0.0,0.0,0.0,0.0,0.0,0.0,4.3497,4.3497,4.3497,4.3497,4.3497,4.3497,4.3497,4.3497,4.3497,4.3497,4.3497,4.3497,4.3497,4.3497,4.3497,4.3497,4.3497,4.3497,4.3497,4.3497,4.3497,4.3497,4.3497,4.3497,4.3497,4.3497,4.3497,0.0,0.0,0.0,0.0,0.0,0.0,0.0,0.0,0.0,0.0,0.0,0.0,0.0,0.0,0.0,0.0,0.0,0.0,2.441,2.5273,2.6413,2.7732,2.8576,2.8994,2.8994,2.8994,2.8994,2.8994,2.8994,2.8994,2.8994,2.8994,2.8994,2.8994,2.8994,2.8994,2.8994,2.8994,2.8994,2.8994,2.8994,2.8994,2.8994,2.8994,2.8994,2.8994,2.8994,2.8994,2.8994,2.8994,0.0,0.0,0.0,0.0,2.9351,2.9392,2.9372,2.9372,0.0,0.0,0.0,0.0,0.0,0.0,0.0,0.0,0.0,0.0,0.0,0.0,0.0,0.0,0.0,0.0,0.0,0.0,0.0,0.0,0.0,0.0,0.0,0.0,0.0,0.0,0.0,0.0,0.0,0.0,4.3497,4.3497,4.3497,4.3497,4.3497,4.3497,4.3497,4.3497,4.3497,4.3497,4.3497,4.3497,4.3497,4.3497,4.3497,4.3497,4.3497,4.3497,4.3497,4.3497,4.3497,4.3497,4.3497,4.3497,4.3497,4.3497,4.3497,4.3497,0.0,0.0,0.0,0.0,0.0,0.0,0.0,0.0,0.0,0.0,2.419,2.419,0.0,0.0,0.0,0.0,0.0,0.0,2.5256,0.0,0.0,2.7787,2.8576,2.8994,2.8994,2.8994,2.8994,2.8994,2.8994,2.8994,2.8994,2.8994,2.8994,2.8994,2.8994,2.8994,2.8994,2.8994,2.8994,2.8994,2.8994,2.8994,2.8994,2.8994,2.8994,2.8994,2.8994,2.8994,2.8994,2.8994,2.8994,0.0,0.0,0.0,0.0,2.933,0.0,0.0,0.0,0.0,0.0,0.0,0.0,0.0,0.0,0.0,0.0,0.0,0.0,0.0,0.0,0.0,0.0,0.0,0.0,0.0,0.0,0.0,0.0,0.0,0.0,0.0,0.0,0.0,0.0,0.0,0.0,0.0,4.3497,4.3497,4.3497,4.3497,4.3497,4.3497,4.3497,4.3497,4.3497,4.3497,4.3497,4.3497,4.3497,4.3497,4.3497,4.3497,4.3497,4.3497,4.3497,4.3497,4.3497,4.3497,4.3497,4.3497,4.3497,4.3497,4.3497,4.3497,0.0,0.0,0.0,0.0,0.0,0.0,0.0,0.0,0.0,0.0,0.0,2.419,0.0,0.0,0.0,2.4814,2.5201,2.5788,2.6686,2.7402,2.7989,2.8448,2.8815,2.8994,2.8994,2.8994,2.8994,2.8994,2.8994,0.0,0.0,2.8994,2.8994,0.0,0.0,0.0,2.8994,0.0,0.0,2.8994,2.8994,2.8994,2.8994,2.8994,2.8994,2.8994,2.8994,2.8994,2.8994,2.8994,2.8994,2.8994,2.8994,0.0,0.0,0.0,0.0,0.0,0.0,0.0,0.0,0.0,0.0,0.0,0.0,0.0,0.0,0.0,0.0,0.0,0.0,0.0,0.0,0.0,0.0,0.0,0.0,0.0,0.0,0.0,0.0,0.0,0.0,0.0,0.0,0.0,0.0,4.3497,4.3497,4.3497,4.3497,4.3497,4.3497,4.3497,4.3497,4.3497,4.3497,4.3497,4.3497,4.3497,4.3497,4.3497,4.3497,4.3497,4.3497,4.3497,4.3497,4.3497,4.3497,4.3497,4.3497,4.3497,4.3497,4.3497,4.3497,4.3497,0.0,0.0,0.0,0.0,0.0,0.0,0.0,0.0,0.0,0.0,0.0,0.0,0.0,0.0,0.0,0.0,2.5899,2.6594,2.8007,2.8099,2.8374,2.8957,2.8994,2.8994,2.8994,2.8994,2.8994,2.8994,0.0,0.0,2.8994,2.8994,2.8994,0.0,2.8994,0.0,0.0,0.0,0.0,0.0,2.8994,2.8994,2.8994,2.8994,2.8994,2.8994,2.8994,2.8994,2.8994,2.8994,2.8994,2.8994,2.8994,2.8994,0.0,0.0,0.0,0.0,0.0,0.0,0.0,0.0,0.0,0.0,0.0,0.0,0.0,0.0,0.0,0.0,0.0,0.0,0.0,0.0,0.0,0.0,0.0,0.0,0.0,0.0,0.0,0.0,0.0,0.0,0.0,0.0,0.0,4.3497,4.3497,4.3497,4.3497,4.3497,4.3497,4.3497,4.3497,4.3497,4.3497,4.3497,4.3497,4.3497,4.3497,4.3497,4.3497,4.3497,4.3497,4.3497,4.3497,4.3497,4.3497,4.3497,4.3497,4.3497,4.3497,4.3497,4.3497,4.3497,0.0,0.0,0.0,0.0,0.0,0.0,0.0,0.0,0.0,0.0,0.0,0.0,2.5256,2.5348,2.5658,2.6465,2.7236,2.8026,2.8865,2.892,2.8957,2.8994,2.8994,0.0,2.8994,2.8994,2.8994,0.0,0.0,0.0,2.8994,2.8994,2.8994,2.8994,2.8994,2.8994,2.8994,0.0,0.0,0.0,2.8994,2.8994,2.8994,0.0,0.0,0.0,0.0,0.0,0.0,2.8994,2.8994,2.8994,2.8994,2.8994,2.8994,0.0,0.0,0.0,0.0,0.0,0.0,0.0,0.0,0.0,0.0,0.0,0.0,0.0,0.0,0.0,0.0,0.0,0.0,0.0,0.0,0.0,0.0,0.0,0.0,0.0,0.0,0.0,0.0,0.0,0.0,0.0,0.0,4.3497,4.3497,4.3497,4.3497,4.3497,4.3497,4.3497,4.3497,4.3497,4.3497,4.3497,4.3497,4.3497,4.3497,4.3497,4.3497,4.3497,4.3497,4.3497,4.3497,4.3497,4.3497,4.3497,4.3497,4.3497,4.3497,4.3497,4.3497,4.3497,0.0,0.0,0.0,0.0,0.0,0.0,0.0,0.0,0.0,0.0,0.0,0.0,0.0,2.6172,2.6484,2.7291,2.8117,2.8705,2.8975,2.8994,2.8994,2.8994,2.8994,2.8994,2.8994,2.8994,0.0,0.0,0.0,2.8994,2.8994,2.8994,2.8994,2.8994,2.8994,2.8994,2.8994,2.8994,0.0,0.0,2.8994,2.8994,2.8994,0.0,0.0,0.0,0.0,0.0,0.0,0.0,0.0,2.8994,2.8994,2.8994,2.9021,2.9222,0.0,0.0,0.0,0.0,0.0,0.0,0.0,0.0,0.0,0.0,0.0,0.0,0.0,0.0,0.0,0.0,0.0,0.0,0.0,0.0,0.0,0.0,0.0,0.0,0.0,0.0,0.0,0.0,0.0,0.0,0.0,0.0,4.3497,4.3497,4.3497,4.3497,4.3497,4.3497,4.3497,4.3497,4.3497,4.3497,4.3497,4.3497,4.3497,4.3497,4.3497,4.3497,4.3497,4.3497,4.3497,4.3497,4.3497,4.3497,4.3497,4.3497,4.3497,4.3497,4.3497,4.3497,0.0,0.0,0.0,0.0,0.0,2.5481,2.6021,2.6298,2.6585,2.6983,0.0,0.0,0.0,0.0,2.7398,2.8136,2.8705,2.8994,2.8994,2.8994,2.8994,2.8994,2.8994,2.8994,2.8994,0.0,0.0,0.0,0.0,0.0,0.0,2.8994,2.8994,2.8994,2.8994,2.8994,0.0,0.0,0.0,2.8994,0.0,2.8994,2.8994,0.0,0.0,0.0,0.0,0.0,0.0,0.0,0.0,0.0,0.0,0.0,0.0,2.9739,3.0246,0.0,3.1543,0.0,0.0,0.0,0.0,0.0,0.0,0.0,0.0,0.0,0.0,0.0,0.0,0.0,0.0,0.0,0.0,0.0,0.0,0.0,0.0,0.0,0.0,0.0,0.0,0.0,0.0,0.0,0.0,0.0,4.3497,4.3497,4.3497,4.3497,4.3497,4.3497,4.3497,4.3497,4.3497,4.3497,4.3497,4.3497,4.3497,4.3497,4.3497,4.3497,4.3497,4.3497,4.3497,4.3497,4.3497,4.3497,4.3497,4.3497,4.3497,4.3497,4.3497,4.3497,0.0,0.0,2.5979,2.5779,2.6394,2.6916,2.6953,2.718,2.7361,2.738,0.0,0.0,0.0,0.0,0.0,2.8966,2.8994,2.8994,2.8994,2.8994,2.8994,2.8994,2.8994,2.8994,2.8994,0.0,0.0,0.0,0.0,0.0,0.0,0.0,2.8994,2.8994,2.8994,2.8994,2.8994,0.0,2.8994,2.8994,0.0,2.8994,2.8994,0.0,0.0,0.0,2.8994,2.8994,0.0,0.0,0.0,0.0,0.0,0.0,0.0,3.0575,3.1369,3.226,0.0,0.0,0.0,0.0,0.0,0.0,0.0,0.0,0.0,0.0,0.0,0.0,0.0,0.0,0.0,0.0,0.0,0.0,0.0,0.0,0.0,0.0,0.0,0.0,0.0,0.0,0.0,0.0,0.0,4.3497,4.3497,4.3497,4.3497,4.3497,4.3497,4.3497,4.3497,4.3497,4.3497,4.3497,4.3497,4.3497,4.3497,4.3497,4.3497,4.3497,4.3497,4.3497,4.3497,4.3497,4.3497,4.3497,4.3497,4.3497,4.3497,4.3497,4.3497,4.3497,0.0,2.6612,2.7087,2.6887,2.7153,2.7599,2.8202,2.8458,2.8772,0.0,0.0,0.0,0.0,0.0,2.8832,2.8998,2.8994,2.8994,2.8994,2.8994,2.8994,2.8994,2.8994,2.8994,2.8994,0.0,0.0,0.0,0.0,0.0,0.0,0.0,0.0,0.0,2.8994,2.8994,2.8994,2.8994,0.0,0.0,2.8994,2.8994,0.0,0.0,0.0,0.0,0.0,2.8994,0.0,0.0,2.9551,3.0365,0.0,0.0,0.0,3.1455,3.178,3.2279,3.2959,0.0,0.0,0.0,0.0,0.0,0.0,0.0,0.0,0.0,0.0,0.0,0.0,0.0,0.0,0.0,0.0,0.0,0.0,0.0,0.0,0.0,0.0,0.0,0.0,0.0,0.0,0.0,4.3497,4.3497,4.3497,4.3497,4.3497,4.3497,4.3497,4.3497,4.3497,4.3497,4.3497,4.3497,4.3497,4.3497,4.3497,4.3497,4.3497,4.3497,4.3497,4.3497,4.3497,4.3497,4.3497,4.3497,4.3497,4.3497,4.3497,4.3497,4.3497,4.3497,2.6991,2.758,2.8055,2.7956,2.8299,2.8769,2.9227,2.9506,2.9778,0.0,0.0,0.0,0.0,0.0,2.8994,2.8994,2.8994,2.8994,2.8994,2.8994,2.8994,2.8994,2.8994,2.8994,2.8994,0.0,0.0,0.0,0.0,0.0,0.0,0.0,0.0,0.0,2.8994,2.8994,0.0,0.0,0.0,0.0,2.8994,0.0,0.0,2.8994,2.8994,0.0,0.0,0.0,2.9658,2.954,3.0148,0.0,0.0,0.0,0.0,3.213,3.2542,3.3095,3.3602,0.0,0.0,0.0,0.0,0.0,3.4676,3.4595,0.0,0.0,0.0,0.0,0.0,0.0,0.0,0.0,0.0,0.0,0.0,0.0,0.0,0.0,0.0,0.0,0.0,0.0,0.0,4.3002,4.3296,4.3497,4.3497,4.3497,4.3497,4.3497,4.3497,4.3497,4.3497,4.3497,4.3497,4.3497,4.3497,4.3497,4.3497,4.3497,4.3497,4.3497,4.3497,4.3497,4.3497,4.3497,4.3497,4.3497,4.3497,4.3497,4.3497,4.3497,4.3497,4.3497,0.0,2.8542,2.8973,2.8973,2.9565,3.0042,3.0042,3.0254,3.0398,0.0,3.0136,0.0,0.0,0.0,0.0,0.0,2.8994,2.8994,2.8994,2.8994,2.8994,2.8994,2.8994,2.8994,2.8994,2.8994,0.0,0.0,0.0,0.0,0.0,0.0,0.0,0.0,2.8994,2.8994,0.0,0.0,0.0,2.8994,2.8994,2.8994,0.0,0.0,2.9049,0.0,2.9122,2.9787,3.0674,3.0554,3.0968,0.0,0.0,0.0,0.0,3.2742,3.3407,3.4171,0.0,0.0,0.0,0.0,0.0,0.0,3.4176,3.42,3.4123,0.0,0.0,0.0,0.0,0.0,0.0,0.0,0.0,0.0,0.0,0.0,0.0,0.0,0.0,0.0,0.0,4.1699,4.2176,4.2176,4.2818,4.3222,4.3222,4.3222,4.3222,4.3222,4.3314,4.3369,4.3369,4.3442,4.3497,4.3497,4.3497,4.3497,4.3497,4.3497,4.3497,4.3497,4.3497,4.3497,4.3497,4.3497,4.3497,4.3497,4.3497,4.3497,4.3497,4.3497,4.3497,4.3497,2.8871,2.954,3.0093,3.0093,3.0227,3.0311,3.0311,3.0367,3.0398,3.0398,3.0022,0.0,0.0,0.0,0.0,0.0,2.8994,2.8994,2.8994,2.8994,2.8994,2.8994,2.8994,2.8994,2.8994,2.8994,2.8994,0.0,0.0,0.0,0.0,0.0,0.0,0.0,2.8994,2.8994,0.0,0.0,0.0,2.8994,2.8994,0.0,2.8994,2.8994,2.9402,2.9971,2.9971,3.0533,3.1384,0.0,3.2416,3.2518,0.0,0.0,0.0,3.3568,0.0,0.0,0.0,0.0,0.0,0.0,0.0,0.0,3.4147,3.42,3.4195,0.0,0.0,0.0,0.0,0.0,0.0,0.0,0.0,0.0,0.0,0.0,0.0,0.0,0.0,0.0,0.0,4.0873,4.135,4.135,4.1497,4.1589,4.1589,4.1589,4.1589,4.1589,4.2194,4.2525,4.2525,4.3167,4.3497,4.3497,4.3497,4.3497,4.3497,4.3497,4.3497,4.3497,4.3497,4.3497,4.3497,4.3497,4.3497,4.3497,4.3497,4.3497,4.3497,4.3497,4.3497,4.3497,2.9756,3.0102,3.0398,3.0398,3.0398,3.0398,3.0398,3.0398,3.0398,3.0398,2.9992,0.0,0.0,0.0,0.0,0.0,0.0,0.0,0.0,2.8994,2.9044,2.9181,2.9067,2.9044,2.92,2.9067,2.8994,2.8994,0.0,0.0,0.0,0.0,0.0,0.0,0.0,0.0,0.0,0.0,2.9604,2.9604,2.9604,0.0,2.9641,3.0044,3.0448,3.0797,3.0797,3.1311,3.2151,3.325,3.3426,0.0,0.0,3.3902,3.3807,0.0,3.3807,3.3807,0.0,0.0,0.0,3.3807,0.0,0.0,0.0,3.4012,3.4012,0.0,0.0,0.0,0.0,0.0,0.0,0.0,0.0,0.0,0.0,0.0,0.0,0.0,0.0,0.0,0.0,4.0029,4.0671,4.1075,4.1111,4.1111,4.1111,4.1111,4.1111,4.1111,4.1497,4.1901,4.2304,4.269,4.3094,4.3497,4.3497,4.3497,4.3497,4.3497,4.3497,4.3497,4.3497,4.3497,4.3497,4.3497,4.3497,4.3497,4.3497,4.3497,4.3497,4.3497,4.3497,4.3497,3.0398,3.0398,3.0398,3.0398,3.0398,3.0398,3.0398,3.0398,3.0398,3.0398,0.0,0.0,0.0,0.0,0.0,0.0,0.0,0.0,0.0,0.0,2.916,2.9392,2.9156,2.9089,2.931,2.9112,2.8994,2.8994,0.0,0.0,0.0,0.0,0.0,0.0,0.0,0.0,0.0,0.0,0.0,3.0448,0.0,3.0577,3.0503,3.1146,3.1494,3.1641,3.1806,3.2284,3.2952,3.3821,0.0,3.3807,3.3807,3.3807,0.0,0.0,0.0,0.0,0.0,0.0,0.0,0.0,0.0,3.3807,0.0,0.0,0.0,0.0,0.0,0.0,0.0,0.0,0.0,0.0,0.0,0.0,0.0,0.0,0.0,0.0,0.0,0.0,0.0,3.9294,3.9937,4.0598,4.0653,4.0653,4.0653,4.0653,4.0653,4.0653,4.0799,4.1258,4.2066,4.2213,4.269,4.3497,4.3497,4.3497,4.3497,4.3497,4.3497,4.3497,4.3497,4.3497,4.3497,4.3497,4.3497,4.3497,4.3497,4.3497,4.3497,4.3497,4.3497,4.3497,3.0398,3.0398,3.0398,3.0398,3.0398,3.0398,3.0398,3.0398,3.0398,0.0,0.0,0.0,0.0,0.0,0.0,0.0,0.0,0.0,2.9625,0.0,0.0,2.9412,2.9156,2.8998,2.9044,2.9017,2.8994,2.8994,0.0,0.0,0.0,0.0,0.0,0.0,2.9751,0.0,0.0,0.0,3.1256,0.0,3.2045,3.1898,0.0,3.1366,3.1843,3.2559,3.3275,3.3587,3.3678,0.0,3.3815,3.3807,0.0,3.3807,0.0,0.0,0.0,0.0,0.0,0.0,0.0,0.0,3.3807,0.0,0.0,0.0,0.0,0.0,0.0,0.0,0.0,0.0,0.0,0.0,0.0,0.0,0.0,0.0,0.0,0.0,0.0,0.0,0.0,0.0,3.8872,3.8982,3.8982,3.8982,3.8982,3.8982,3.8982,3.8982,3.9662,4.0414,4.124,4.1937,4.269,4.3497,4.3497,4.3497,4.3497,4.3497,4.3497,4.3497,4.3497,4.3497,4.3497,4.3497,4.3497,4.3497,4.3497,4.3497,4.3497,4.3497,4.3497,4.3497,3.0398,3.0398,3.0398,3.0398,3.0398,3.0398,3.0398,3.0398,3.0336,0.0,0.0,0.0,0.0,0.0,0.0,0.0,0.0,2.9696,0.0,0.0,0.0,0.0,2.9225,0.0,2.9225,2.9067,2.8994,2.8994,2.8994,0.0,0.0,0.0,0.0,0.0,3.054,0.0,3.0944,0.0,0.0,0.0,0.0,0.0,0.0,3.2779,3.2999,3.3348,3.3678,3.3807,3.3807,0.0,3.3807,0.0,0.0,0.0,0.0,0.0,0.0,0.0,0.0,0.0,0.0,0.0,0.0,0.0,0.0,0.0,3.3807,0.0,0.0,0.0,0.0,0.0,0.0,0.0,0.0,0.0,0.0,0.0,0.0,0.0,0.0,0.0,0.0,0.0,0.0,0.0,0.0,3.8707,3.8707,3.8707,3.8707,3.8707,3.9038,3.9808,4.1111,4.1442,4.2249,4.3497,4.3497,4.3497,4.3497,4.3497,4.3497,4.3497,4.3497,4.3497,4.3497,4.3497,4.3497,4.3497,4.3497,4.3497,4.3497,4.3497,4.3497,4.3497,3.0398,0.0,3.0398,3.0398,3.0398,3.0398,3.0398,3.0398,0.0,0.0,0.0,0.0,2.988,2.9767,0.0,0.0,0.0,2.988,0.0,0.0,2.9551,0.0,0.0,0.0,0.0,2.9089,2.8994,2.8994,2.9237,2.9347,0.0,0.0,0.0,0.0,0.0,3.1733,3.177,0.0,0.0,3.2981,3.3568,3.3807,3.3807,3.3807,3.3807,3.3807,3.3807,3.3807,3.3807,3.3807,3.3807,0.0,3.3807,0.0,0.0,0.0,0.0,0.0,3.3807,0.0,0.0,0.0,0.0,0.0,0.0,0.0,0.0,0.0,0.0,0.0,0.0,0.0,0.0,0.0,0.0,0.0,0.0,0.0,0.0,0.0,0.0,0.0,0.0,0.0,0.0,0.0,3.8377,3.8469,3.8689,3.8707,3.8707,3.8707,3.8707,3.9478,4.1093,4.1111,4.1919,4.3497,4.3497,4.3497,4.3497,4.3497,4.3497,4.3497,4.3497,4.3497,4.3497,4.3497,4.3497,4.3497,4.3497,4.3497,4.3497,4.3497,4.3497,4.3497,3.0398,3.0398,0.0,0.0,0.0,3.0398,3.0398,0.0,0.0,0.0,0.0,0.0,0.0,0.0,0.0,0.0,0.0,3.0386,3.0386,0.0,2.9696,0.0,0.0,0.0,0.0,0.0,2.8994,2.8994,2.9787,3.0173,0.0,0.0,0.0,0.0,0.0,3.2577,3.2614,3.3421,3.3752,3.3752,3.3788,3.3807,3.3807,0.0,3.3807,3.3807,3.3807,0.0,0.0,3.3807,3.3807,0.0,0.0,0.0,0.0,0.0,0.0,0.0,0.0,0.0,0.0,3.3807,0.0,0.0,0.0,0.0,3.3807,0.0,0.0,0.0,0.0,0.0,0.0,3.3807,0.0,0.0,0.0,0.0,0.0,0.0,0.0,0.0,0.0,0.0,0.0,3.7459,3.7533,3.7863,3.867,3.8707,3.8707,3.8707,3.8707,3.9478,4.1093,4.1111,4.1919,4.3497,4.3497,4.3497,4.3497,4.3497,4.3497,4.3497,4.3497,4.3497,4.3497,4.3497,4.3497,4.3497,4.3497,4.3497,4.3497,4.3497,4.3497,4.3497,3.0398,0.0,0.0,0.0,0.0,0.0,0.0,3.0398,0.0,0.0,0.0,0.0,0.0,0.0,3.0209,0.0,0.0,3.0398,3.0398,3.0095,0.0,0.0,0.0,2.9181,0.0,0.0,2.9787,2.9787,3.0595,0.0,0.0,0.0,0.0,0.0,0.0,3.3385,0.0,0.0,0.0,0.0,0.0,3.3807,3.3807,0.0,0.0,3.3807,3.3807,3.3807,0.0,3.3807,3.3807,3.3807,3.3807,3.3807,3.3807,3.3807,3.3807,0.0,0.0,0.0,3.3807,3.3807,0.0,0.0,0.0,0.0,0.0,0.0,0.0,0.0,0.0,0.0,3.3807,3.3807,3.3807,0.0,0.0,0.0,0.0,0.0,0.0,0.0,0.0,0.0,0.0,3.6633,3.7184,3.7606,0.0,3.8414,3.8707,3.8707,3.8707,3.9478,4.1093,4.1111,4.1919,4.3497,4.3497,4.3497,4.3497,4.3497,4.3497,4.3497,4.3497,4.3497,4.3497,4.3497,4.3497,4.3497,4.3497,4.3497,4.3497,4.3497,4.3497,4.3497,3.0398,0.0,0.0,0.0,0.0,0.0,0.0,0.0,0.0,0.0,3.0136,0.0,3.0136,0.0,3.0209,0.0,3.0398,3.0398,3.0398,3.008,0.0,2.9713,2.9695,0.0,0.0,0.0,3.0632,3.0632,0.0,3.1825,0.0,0.0,0.0,0.0,0.0,0.0,0.0,0.0,3.3807,0.0,0.0,3.3807,0.0,0.0,3.3807,3.3807,0.0,3.3807,3.3807,3.3807,3.3807,3.3807,3.3807,3.3807,3.3807,3.3807,3.3807,3.3807,3.3807,3.3807,0.0,3.3807,3.3807,0.0,3.3807,0.0,0.0,0.0,0.0,0.0,0.0,0.0,0.0,3.3807,3.3807,3.3807,0.0,3.3807,0.0,0.0,0.0,0.0,0.0,0.0,3.4926,3.5771,3.6321,3.6872,0.0,0.0,3.8395,3.8689,3.8707,3.9478,4.1093,4.1111,4.1919,4.3497,4.3497,4.3497,4.3497,4.3497,4.3497,4.3497,4.3497,4.3497,4.3497,4.3497,4.3497,4.3497,4.3497,4.3497,4.3497,4.3497,4.3375,4.325,3.0398,3.0398,0.0,0.0,3.0398,0.0,0.0,0.0,3.0398,0.0,3.0398,3.0398,3.0398,3.0398,3.0398,3.0398,3.0398,0.0,3.0444,3.0034,0.0,0.0,3.0105,3.0289,3.0265,0.0,0.0,0.0,0.0,0.0,0.0,0.0,0.0,0.0,3.3807,0.0,3.3807,3.3807,3.3807,3.3807,3.3807,3.3807,3.3807,3.3807,3.3807,3.3807,3.3807,3.3807,3.3807,3.3807,3.3807,3.3807,3.3807,3.3807,3.3807,3.3807,3.3807,3.3807,3.3844,3.3825,3.3825,3.3899,0.0,0.0,0.0,0.0,3.3844,0.0,0.0,0.0,0.0,0.0,0.0,3.3807,3.3807,3.3807,0.0,0.0,0.0,0.0,0.0,0.0,0.0,3.3807,3.4119,3.4862,3.4972,0.0,0.0,0.0,3.7863,3.867,3.8707,3.9478,4.1093,4.1111,4.1919,4.3497,4.3497,4.3497,4.3497,4.3497,4.3497,4.3497,4.3497,4.3479,4.3444,4.3497,4.3479,4.3444,4.3479,4.3479,4.3444,4.3479,4.3124,4.2732,3.0398,3.0398,3.0398,0.0,3.0398,3.0398,0.0,0.0,0.0,0.0,3.0398,3.0398,3.0398,3.0398,3.0398,3.0398,3.0398,0.0,0.0,0.0,0.0,3.125,3.1343,3.1293,3.1115,3.188,0.0,3.2302,0.0,0.0,3.3495,0.0,0.0,0.0,0.0,0.0,3.3807,3.3807,3.3807,3.3807,3.3807,3.3807,0.0,0.0,3.3807,3.3807,3.3807,3.3807,3.3807,3.3807,3.3807,3.3807,3.3807,3.3807,3.3807,3.3807,3.3807,3.3935,3.4541,3.4266,3.41,3.5349,3.5183,3.4679,0.0,0.0,0.0,0.0,0.0,0.0,0.0,0.0,0.0,0.0,0.0,0.0,0.0,0.0,0.0,0.0,0.0,0.0,3.3807,3.3807,3.3899,3.41,3.4642,0.0,0.0,0.0,0.0,3.867,3.8707,3.9478,4.1093,4.1111,4.1919,4.3497,4.3497,4.3497,4.3497,4.3497,4.3497,4.3497,4.3497,4.325,4.2939,4.3339,4.325,4.2939,4.3321,4.325,4.2939,4.3375,4.2865,4.2103,3.0398,0.0,0.0,3.0398,0.0,0.0,3.0398,0.0,0.0,3.0398,3.0398,0.0,3.0398,3.0737,3.0968,3.0968,3.1295,0.0,0.0,0.0,0.0,3.2128,3.2367,3.243,3.2277,3.3092,0.0,3.3303,0.0,0.0,3.3807,0.0,0.0,0.0,0.0,3.3807,0.0,3.3807,3.3807,3.3807,3.3807,0.0,0.0,3.3807,3.3807,3.3807,3.3807,3.3807,3.3807,3.3807,3.3807,3.3807,3.3807,3.4045,3.4321,3.4321,3.4596,3.4981,3.5459,3.5238,3.511,3.6064,3.5936,3.5569,3.5569,3.5569,3.544,0.0,0.0,0.0,0.0,0.0,0.0,0.0,0.0,0.0,0.0,0.0,0.0,0.0,0.0,0.0,3.3807,3.3807,3.3807,3.3807,0.0,0.0,0.0,0.0,0.0,3.867,3.8707,3.9478,4.1093,4.1111,4.1919,4.3497,4.3497,4.3497,4.3497,4.3497,4.3497,4.3497,4.325,4.2976,4.2732,4.3032,4.2976,4.275,4.3014,4.2657,4.1979,4.2562,4.2167,4.149,0.0,0.0,0.0,0.0,0.0,0.0,0.0,3.0456,0.0,3.0552,0.0,3.0609,3.0717,3.141,3.1852,3.1852,0.0,3.2936,3.3006,3.2847,3.2794,3.2877,3.3335,3.3582,3.3582,3.4278,0.0,0.0,0.0,0.0,0.0,0.0,0.0,0.0,0.0,0.0,0.0,3.3807,3.3807,0.0,3.3807,3.3807,3.3807,3.3807,3.3807,3.3807,3.3807,3.3807,3.3807,3.3807,3.3862,3.3972,3.3972,3.4523,3.5155,3.5155,3.5716,3.6321,3.6431,3.6376,3.634,3.656,3.6541,3.645,3.645,3.645,3.6431,3.6321,3.5697,3.5155,0.0,0.0,0.0,0.0,0.0,0.0,0.0,0.0,0.0,0.0,0.0,0.0,0.0,3.3807,0.0,0.0,0.0,0.0,0.0,0.0,0.0,3.8652,3.8707,0.0,4.1093,0.0,4.1919,4.3497,4.3497,4.3497,4.3497,4.3497,4.3444,4.3375,4.2902,4.2616,4.248,4.2559,4.2577,4.2577,4.2577,4.1895,4.0949,4.149,4.1313,4.0874,0.0,0.0,0.0,0.0,0.0,3.1468,3.1468,3.0871,3.066,3.1391,3.1468,3.1737,3.2391,3.2602,3.2699,3.2699,3.2814,0.0,0.0,0.0,0.0,3.4301,3.4412,3.4468,3.4468,3.4349,3.4246,0.0,0.0,0.0,0.0,0.0,0.0,0.0,0.0,0.0,3.3807,3.3807,0.0,3.3807,3.3807,3.3807,3.3807,3.3807,3.3807,3.3807,3.3807,3.3807,3.3807,3.3807,3.4247,3.477,3.477,3.5385,3.6064,3.6064,3.6174,3.6431,3.7092,3.6798,3.6615,3.7955,3.7771,3.7276,3.7276,3.7276,3.7092,3.6431,3.6174,3.6064,3.6064,0.0,0.0,0.0,0.0,0.0,0.0,0.0,0.0,0.0,0.0,0.0,0.0,0.0,0.0,0.0,0.0,0.0,0.0,0.0,0.0,0.0,3.8707,0.0,0.0,0.0,4.1919,4.3497,4.3497,4.3497,4.3497,4.3497,4.325,4.2826,4.275,4.2121,4.1251,4.175,4.1937,4.1937,4.1937,4.1534,4.0903,4.1041,4.0703,4.0336,0.0,0.0,0.0,0.0,0.0,0.0,0.0,3.1968,0.0,3.2275,3.2314,3.2468,3.2852,3.3295,3.3564,3.3564,3.3987,3.437,3.4668,3.4672,3.4799,3.5102,3.5105,0.0,3.5105,3.4813,3.4595,3.4445,0.0,0.0,0.0,0.0,0.0,0.0,0.0,3.3807,0.0,0.0,0.0,3.3807,3.3807,3.3807,3.3807,3.3807,3.3807,3.3844,3.4284,3.4431,3.4431,3.4431,3.4981,3.5679,3.5679,3.6248,3.6909,3.6909,3.7221,3.7624,3.801,3.7845,3.7734,3.8505,3.8414,3.812,3.812,3.812,3.801,3.7624,3.7202,3.678,3.6376,3.5954,0.0,0.0,0.0,0.0,0.0,0.0,0.0,0.0,0.0,0.0,0.0,0.0,0.0,0.0,0.0,0.0,0.0,0.0,0.0,0.0,0.0,0.0,0.0,0.0,0.0,4.3497,4.3497,4.3497,4.3497,4.3497,4.3214,4.2693,4.2382,4.1725,4.0903,4.1206,4.1358,4.1358,4.1358,4.0967,4.0497,4.0497,4.0336,4.0121,0.0,3.1968,0.0,0.0,3.3045,0.0,3.3179,3.3333,3.3391,3.3199,3.3179,3.3256,3.343,3.4064,3.4468,3.4468,3.5103,3.5493,3.5493,3.5493,3.5493,3.5493,3.5493,3.546,3.5417,3.5138,3.487,0.0,0.0,0.0,0.0,0.0,0.0,0.0,0.0,0.0,0.0,0.0,3.3807,3.3807,3.3807,3.3807,3.3825,3.399,3.4064,3.4174,3.5,3.5404,3.555,3.555,3.5991,3.656,3.656,3.711,3.7753,3.7753,3.8193,3.8707,3.8707,3.8707,3.8707,3.8707,3.8707,3.8707,3.8707,3.8707,3.8707,3.8707,3.8193,3.7496,3.6688,3.656,0.0,0.0,0.0,0.0,0.0,0.0,0.0,0.0,0.0,0.0,0.0,0.0,0.0,0.0,0.0,0.0,0.0,0.0,0.0,0.0,0.0,4.0286,4.1111,0.0,4.269,0.0,4.3497,4.3497,4.3497,4.3375,4.305,4.248,4.1853,4.1268,4.0733,4.0733,4.0733,4.0733,4.0733,4.0497,4.007,4.007,4.007,4.007,0.0,0.0,0.0,0.0,0.0,0.0,0.0,3.4757,3.4968,3.418,3.4083,3.4372,3.518,3.5334,3.5391,3.5391,3.5449,3.5493,3.5493,3.5493,3.5493,3.5493,3.5493,3.5383,3.5138,3.487,3.4572,0.0,0.0,0.0,0.0,0.0,0.0,0.0,0.0,0.0,0.0,3.3807,3.3807,3.3807,3.3807,3.3807,3.388,3.4605,3.488,3.499,3.5862,3.6652,3.7257,3.7257,3.7312,3.7397,3.7397,3.7936,3.8597,3.8597,3.8652,3.8707,3.8707,3.8707,3.8707,3.8707,3.8707,3.8707,3.8707,3.8707,3.8707,3.8707,3.8652,3.834,3.7533,3.7397,3.711,0.0,0.0,0.0,0.0,0.0,0.0,0.0,0.0,0.0,0.0,0.0,0.0,0.0,0.0,0.0,0.0,0.0,0.0,3.8652,0.0,4.0286,4.1111,4.1901,0.0,4.3497,4.3497,4.3497,4.3479,4.2976,4.2462,4.1853,4.1268,4.0672,4.0154,4.0154,4.0154,4.0154,4.0154,4.0171,4.007,4.007,4.007,4.007,0.0,0.0,0.0,0.0,0.0,0.0,0.0,3.5276,3.5372,3.5026,3.4988,3.5122,3.5468,3.5493,3.5493,3.5493,3.5493,3.5493,3.5493,3.5493,3.5493,3.5493,3.5493,3.5369,3.5105,3.4851,3.4529,0.0,0.0,0.0,0.0,0.0,0.0,0.0,0.0,3.3807,3.3807,3.3807,3.3807,3.3807,3.3807,3.41,3.4578,3.4862,3.5302,3.5899,3.6707,3.7221,3.7551,3.8046,3.8212,3.8212,3.8212,3.8432,3.8707,3.8707,3.8707,3.8707,3.8707,3.9056,3.9423,3.9423,3.979,4.0157,4.0157,4.0157,4.001,3.9515,3.9038,3.8597,3.8267,3.8212,3.7955,0.0,0.0,0.0,0.0,0.0,0.0,0.0,0.0,0.0,0.0,0.0,0.0,0.0,0.0,0.0,0.0,0.0,0.0,3.867,0.0,4.0235,4.0562,4.1501,4.216,4.2465,4.2846,4.2828,4.2465,4.2637,4.2162,4.1223,4.0672,4.0286,4.007,4.007,4.007,4.007,4.007,4.007,4.007,4.007,4.007,4.007,3.4468,0.0,3.4776,0.0,3.5493,3.5493,3.5493,3.5493,3.5493,3.5493,3.5493,3.5493,3.5493,3.5493,3.5493,3.5493,3.5493,3.5493,3.5493,3.5493,3.5493,3.5493,3.5493,0.0,3.4981,3.4812,3.4486,3.4074,3.3902,0.0,0.0,0.0,0.0,0.0,3.3807,3.3807,3.3807,3.3807,3.3807,3.3825,3.4064,3.4504,3.5045,3.5569,3.6119,3.6762,3.7551,3.7845,3.7936,3.8505,3.8707,3.8707,3.8707,3.8707,3.8762,3.8982,3.9056,3.9111,3.935,3.9827,4.0249,4.0249,4.0689,4.1111,4.1111,4.1111,4.0946,4.0377,3.9606,3.9056,3.9056,3.8854,3.8505,3.7936,0.0,0.0,0.0,0.0,0.0,0.0,0.0,3.3834,3.3465,0.0,0.0,0.0,0.0,0.0,0.0,0.0,0.0,0.0,0.0,0.0,0.0,4.1304,4.181,4.181,4.2203,4.2203,4.181,4.208,4.1639,4.0655,4.0237,4.007,4.007,4.007,4.007,4.007,4.007,4.007,4.007,4.007,4.007,4.007,3.5488,3.5488,3.5488,3.5493,3.5493,3.5493,3.5493,3.5493,3.5493,3.5493,3.5493,3.5493,3.5493,3.5493,3.5493,3.5493,3.5493,3.5493,3.5493,3.5493,3.5493,0.0,0.0,3.5239,3.4733,3.4694,3.4416,3.3788,0.0,0.0,3.3807,0.0,3.3807,3.3807,3.3807,3.3807,3.3807,3.3807,3.3807,3.3862,3.4688,3.499,3.5174,3.6835,3.7489,3.7569,3.8395,3.8689,3.8689,3.8707,3.8707,3.8707,3.8707,3.8707,3.8854,3.9643,3.9882,4.0065,4.0873,4.1093,4.1093,4.1093,4.1111,4.1111,4.1111,4.1111,4.1111,4.1093,4.0451,3.9882,3.9882,3.9239,3.8707,3.8689,0.0,0.0,0.0,0.0,0.0,0.0,3.4406,3.3894,3.2621,0.0,0.0,0.0,0.0,0.0,0.0,0.0,0.0,3.8249,3.9084,0.0,4.0601,4.1421,4.181,4.181,4.181,4.181,4.1768,4.1178,4.0607,4.0121,4.0121,4.007,4.007,4.007,4.007,4.007,4.007,4.007,4.007,4.007,4.007,4.007,3.5493,3.5493,3.5493,3.5493,3.5493,3.5493,3.5493,3.5493,3.5493,3.5493,3.5493,3.5493,3.5493,3.5493,3.5493,0.0,3.5493,3.5493,0.0,3.5493,3.5493,3.5493,3.532,3.507,3.4694,3.4486,3.4189,3.3807,0.0,0.0,0.0,3.3807,3.3807,3.3807,3.3807,3.3807,3.3807,3.3807,3.4119,3.4651,3.4899,3.5697,3.6762,3.7294,3.7826,3.834,3.8615,3.8707,3.8781,3.9331,3.9515,3.9606,4.0175,3.9974,3.968,4.0487,4.0726,4.0781,4.1038,4.1515,4.1919,4.1919,4.2323,4.2745,4.2745,4.2304,4.1919,4.1919,4.1277,4.0561,3.9992,3.968,3.9331,3.8799,3.8487,0.0,0.0,0.0,0.0,0.0,0.0,3.4445,0.0,3.42,0.0,0.0,0.0,0.0,0.0,0.0,0.0,0.0,3.9143,0.0,3.9956,4.0435,4.0642,4.0642,4.1013,4.1178,4.1178,4.0625,4.0237,4.007,4.007,4.007,4.007,4.007,4.007,4.007,4.007,4.007,4.007,4.007,4.007,4.007,3.5493,3.5493,3.5493,3.5493,3.5493,3.5493,3.5493,3.5493,3.5493,3.5493,3.5493,3.5493,3.5493,3.5493,0.0,3.5493,3.5493,3.5493,3.5493,3.5493,3.5493,3.5493,3.5354,3.5088,3.4694,0.0,0.0,3.3807,3.3807,3.3807,3.3807,3.3807,3.3807,3.3807,3.3807,3.3807,3.3825,3.4119,3.4559,3.5045,3.5697,3.656,3.7544,3.7826,3.8267,3.8707,3.8707,3.8891,3.9239,3.9717,4.0102,4.0487,4.1313,4.1222,4.0891,4.1405,4.1552,4.1625,4.1919,4.2378,4.2745,4.2745,4.313,4.3497,4.3497,4.3112,4.2745,4.2745,4.2121,4.1405,4.0891,4.0304,3.9735,3.9239,3.8729,3.83,3.7946,0.0,0.0,0.0,0.0,0.0,0.0,3.4453,0.0,0.0,0.0,0.0,0.0,0.0,0.0,3.8564,3.9118,0.0,3.9843,4.0016,4.007,4.0121,4.0449,4.0625,4.0577,4.0237,4.007,4.007,4.007,4.007,4.007,4.007,4.007,4.007,4.007,4.007,4.007,4.007,4.007,4.007,3.5493,3.5493,0.0,0.0,3.5493,0.0,3.5493,3.5493,3.5493,3.5493,3.5493,3.5493,3.5493,3.5493,3.5493,3.5493,0.0,0.0,0.0,3.5493,3.5493,3.5493,3.5493,3.5223,3.4714,3.4674,3.4375,3.3807,3.3807,3.3807,3.3807,3.3807,3.3807,3.3807,3.3807,3.3825,3.3935,3.466,3.5064,3.5302,3.6872,3.7544,3.7661,3.8414,3.8726,3.8781,3.8781,3.9294,3.9992,4.0047,4.0561,4.1332,4.2139,4.2378,4.2378,4.2378,4.2378,4.2543,4.3296,4.3497,4.3497,4.3497,4.3497,4.3497,4.3497,4.3497,4.3497,4.3497,4.2892,4.2378,4.2304,4.1075,4.0029,3.9918,3.8813,3.7966,3.7859,0.0,0.0,0.0,0.0,0.0,0.0,3.4218,3.4658,0.0,0.0,0.0,0.0,0.0,3.8019,3.8986,3.9039,3.9394,4.007,4.007,4.007,4.007,4.007,4.007,4.007,4.007,4.007,4.007,4.007,4.007,4.007,4.007,4.007,4.007,4.007,4.007,4.007,4.007,4.007,4.007,0.0,0.0,3.5493,3.5493,3.5493,3.5493,3.5493,3.5493,3.5493,3.5493,3.5493,3.5493,3.5493,3.5493,3.5493,3.5493,3.5493,3.5493,3.5493,3.5493,3.5493,3.5493,3.5304,3.5053,3.4694,3.4445,3.4165,3.3807,3.3807,3.3807,3.3807,3.3807,3.3807,3.3807,3.3807,3.4137,3.4715,3.4917,3.5752,3.6927,3.7331,3.7863,3.8432,3.8634,3.9074,3.9625,3.9625,4.0139,4.091,4.1515,4.1864,4.2158,4.2947,4.3222,4.3222,4.3222,4.3222,4.3259,4.3442,4.3497,4.3497,4.3497,4.3497,4.3497,4.3497,4.3497,4.3497,4.3497,4.3332,4.302,4.2415,4.1992,4.1332,4.0084,3.9286,3.8474,3.7522,3.6921,0.0,0.0,3.5511,3.5399,3.5115,3.5791,3.6248,0.0,0.0,0.0,0.0,3.8591,3.8744,3.8988,3.9529,3.9901,4.007,4.007,4.007,4.007,4.007,4.007,4.007,4.007,4.007,4.007,4.007,4.007,4.007,4.007,4.007,4.007,4.007,4.007,4.007,4.007,4.007,4.007,3.5493,3.5493,3.5493,3.5493,3.5493,3.5493,3.5493,3.5493,3.5493,3.5493,3.5493,3.5493,3.5493,3.5493,3.5493,3.5493,3.5493,3.5493,3.5493,3.5493,3.5493,3.5493,3.5369,3.5105,3.4694,3.4529,3.4237,3.3807,3.3807,3.3807,3.3807,3.3807,3.4009,3.4357,3.4357,3.4816,3.5624,3.5991,3.667,3.7544,3.79,3.8303,3.8744,3.9111,3.9515,3.9937,4.0322,4.0965,4.1735,4.2158,4.2543,4.291,4.3351,4.3497,4.3497,4.3497,4.3497,4.3497,4.3497,4.3497,4.3497,4.3497,4.3497,4.3497,4.3497,4.3497,4.3497,4.3497,4.3497,4.3369,4.2928,4.2543,4.2011,4.113,3.9922,3.8762,3.7889,3.6991,0.0,3.565,3.5926,3.6146,3.6146,3.684,3.7297,3.7297,0.0,0.0,3.8971,3.9309,3.9478,3.9478,3.9868,4.007,4.007,4.007,4.007,4.007,4.007,4.007,4.007,4.007,4.007,4.007,4.007,4.007,4.007,4.007,4.007,4.007,4.007,4.007,4.007,4.007,4.007,4.007,3.5493,3.5493,3.5493,3.5493,3.5493,3.5532,3.5661,3.568,3.5738,3.5872,3.5892,3.5892,3.5892,3.5892,3.5892,3.5892,3.5892,3.5776,3.5526,3.5493,3.5493,3.5493,3.546,3.5207,3.4714,3.4612,3.4307,3.3807,3.3917,3.399,3.399,3.4119,3.4541,3.5192,3.5192,3.5679,3.6523,3.7202,3.7551,3.7734,3.8414,3.8781,3.8964,3.9643,4.0047,4.0341,4.1038,4.1809,4.2488,4.2488,4.2928,4.3497,4.3497,4.3497,4.3497,4.3497,4.3497,4.3497,4.3497,4.3497,4.3497,4.3497,4.3497,4.3497,4.3497,4.3497,4.3497,4.3497,4.3497,4.3497,4.3497,4.2928,4.2433,4.2323,4.0721,3.9283,3.8768,0.0,3.6679,3.6151,3.6656,3.7063,3.6988,3.7635,3.8075,3.8075,3.8751,3.9157,0.0,3.9732,4.007,4.007,4.007,4.007,4.007,4.007,4.007,4.007,4.007,4.007,4.007,4.007,4.007,4.007,4.007,4.007,4.007,4.007,4.007,4.007,4.007,4.007,4.007,4.007,4.007,4.007,3.5493,3.5493,3.5493,3.5493,3.5493,3.5738,3.6411,3.6507,3.6776,3.7526,3.7603,3.7603,3.7603,3.7603,3.7603,3.7603,3.7603,3.7007,3.5603,3.5493,3.5493,3.5493,3.5289,3.5016,3.4713,3.4208,3.3895,3.3807,3.4486,3.4807,3.4825,3.5569,3.5973,3.6101,3.6101,3.6541,3.7312,3.747,3.7881,3.8524,3.8652,3.9111,3.9717,3.9845,4.0744,4.1937,4.2066,4.2635,4.3296,4.3296,4.3387,4.3497,4.3497,4.3497,4.3497,4.3497,4.3497,4.3497,4.3497,4.3497,4.3497,4.3497,4.3497,4.3497,4.3497,4.3497,4.3497,4.3497,4.3497,4.3497,4.3497,4.3387,4.3075,4.2415,4.1649,4.0871,4.0094,0.0,3.8878,3.8304,3.8321,3.8219,3.7767,3.8396,3.8819,3.8819,3.9495,3.9918,3.9918,4.002,4.007,4.007,4.007,4.007,4.007,4.007,4.007,4.007,4.007,4.007,4.007,4.007,4.007,4.007,4.007,4.007,4.007,4.007,4.007,4.007,4.007,4.007,4.007,4.007,4.007,4.007,3.6161,3.6295,3.6507,3.6796,3.6622,3.6642,3.7296,3.7411,3.7546,3.795,3.8007,3.8007,3.8007,3.8007,3.8007,3.8007,3.8007,3.7661,3.6911,3.6411,3.6161,3.6161,3.5892,3.5761,3.5768,3.5362,3.5147,3.5147,3.5532,3.5716,3.5716,3.6101,3.6523,3.6945,3.6945,3.7386,3.8138,3.8138,3.8358,3.8744,3.9166,3.957,3.9992,4.0855,4.1644,4.2359,4.2782,4.3167,4.3497,4.3497,4.3497,4.3497,4.3497,4.3497,4.3497,4.3497,4.3497,4.3497,4.3497,4.3497,4.3497,4.3497,4.3497,4.3497,4.3497,4.3497,4.3497,4.3497,4.3497,4.3497,4.3497,4.3497,4.3369,4.3002,4.2372,0.0,0.0,4.038,3.9807,3.923,3.9277,3.9202,3.898,3.9319,3.958,3.958,3.9884,4.007,4.007,4.007,4.007,4.007,4.007,4.007,4.007,4.007,4.007,4.007,4.007,4.007,4.007,4.007,4.007,4.007,4.007,4.007,4.007,4.007,4.007,4.007,4.007,4.007,4.007,4.007,4.007,4.007,3.7007,3.7219,3.7526,3.793,3.7661,3.7603,3.8219,3.8296,3.8373,3.8565,3.8584,3.8584,3.8584,3.8584,3.8584,3.8584,3.8584,3.8507,3.8315,3.768,3.7219,3.7007,3.6752,3.663,3.6714,3.6509,3.6352,3.6303,3.6486,3.6578,3.6578,3.6762,3.7184,3.7771,3.7771,3.812,3.8707,3.8909,3.8982,3.9056,3.9863,4.0286,4.0579,4.1827,4.2415,4.2653,4.3277,4.3497,4.3497,4.3497,4.3497,4.3497,4.3497,4.3497,4.3497,4.3497,4.3497,4.3497,4.3497,4.3497,4.3497,4.3497,4.3497,4.3497,4.3497,4.3497,4.3497,4.3497,4.3497,4.3497,4.3497,4.3497,4.3497,4.3497,0.0,0.0,0.0,4.1434,4.0817,4.0202,4.0217,4.0145,3.9888,3.9995,4.007,4.007,4.007,4.007,4.007,4.007,4.007,4.007,4.007,4.007,4.007,4.007,4.007,4.007,4.007,4.007,4.007,4.007,4.007,4.007,4.007,4.007,4.007,4.007,4.007,4.007,4.007,4.007,4.007,4.007,4.007,4.007,3.7892,3.7911,3.795,3.7988,3.7969,3.8238,3.9065,3.92,3.9469,4.0219,4.0315,4.0315,4.0315,4.0315,4.0315,4.0315,4.0315,3.9988,3.9238,3.9142,3.8738,3.795,3.7647,3.7259,3.6702,3.6696,3.6552,3.6303,3.7037,3.7404,3.7422,3.8175,3.856,3.8615,3.8615,3.8652,3.8762,3.9496,3.9808,3.9882,4.0689,4.146,4.2139,4.2249,4.2763,4.3406,4.3461,4.3497,4.3497,4.3497,4.3497,4.3497,4.3497,4.3497,4.3497,4.3497,4.3497,4.3497,4.3497,4.3497,4.3497,4.3497,4.3497,4.3497,4.3497,4.3497,4.3497,4.3497,4.3497,4.3497,4.3497,4.3497,4.3497,4.3497,0.0,0.0,4.3353,4.3298,4.285,4.176,4.1644,4.1243,4.0169,4.0087,4.007,4.007,4.007,4.007,4.007,4.007,4.007,4.007,4.007,4.007,4.007,4.007,4.007,4.007,4.007,4.007,4.007,4.007,4.007,4.007,4.007,4.007,4.007,4.007,4.007,4.007,4.007,4.007,4.007,4.007,4.007,4.007,3.8815,3.92,3.9546,3.9546,3.9546,3.9662,3.9988,4.0027,4.0142,4.045,4.0489,4.0489,4.0489,4.0489,4.0489,4.0489,4.0489,4.0354,4.0046,4.0027,3.958,3.8529,3.8917,3.885,3.8193,3.8186,3.8062,3.779,3.8083,3.823,3.8248,3.856,3.8707,3.8726,3.9221,3.9441,3.9496,4.0304,4.0653,4.0726,4.1534,4.2029,4.2359,4.2837,4.3222,4.3497,4.3497,4.3497,4.3497,4.3497,4.3497,4.3497,4.3497,4.3497,4.3497,4.3497,4.3497,4.3497,4.3497,4.3497,4.3497,4.3497,4.3497,4.3497,4.3497,4.3497,4.3497,4.3497,4.3497,4.3497,4.3497,4.3497,4.3497,4.3497,0.0,4.3497,4.3497,4.3497,4.3356,4.2903,4.2226,4.1639,4.1213,4.0514,4.007,4.007,4.007,4.007,4.007,4.007,4.007,4.007,4.007,4.007,4.007,4.007,4.007,4.007,4.007,4.007,4.007,4.007,4.007,4.007,4.007,4.007,4.007,4.007,4.007,4.007,4.007,4.007,4.007,4.007,4.007,4.007,3.9681,4.0123,4.0489,4.0489,4.0489,4.0489,4.0489,4.0489,4.0489,4.0489,4.0489,4.0489,4.0489,4.0489,4.0489,4.0489,4.0489,4.0489,4.0489,4.0489,4.0156,3.9372,3.9907,3.9924,3.9264,3.9257,3.9082,3.8707,3.8707,3.8707,3.8707,3.8707,3.8836,3.9093,3.9643,4.0029,4.0322,4.1148,4.1497,4.1552,4.2359,4.2671,4.2745,4.3277,4.3497,4.3497,4.3497,4.3497,4.3497,4.3497,4.3497,4.3497,4.3497,4.3497,4.3497,4.3497,4.3497,4.3497,4.3497,4.3497,4.3497,4.3497,4.3497,4.3497,4.3497,4.3497,4.3497,4.3497,4.3497,4.3497,4.3497,4.3497,4.3497,4.3497,4.3497,4.3497,4.3497,4.3497,4.3356,4.3014,4.2266,4.1682,4.1286,4.0563,4.007,4.007,4.007,4.007,4.007,4.007,4.007,4.007,4.007,4.007,4.007,4.007,4.007,4.007,4.007,4.007,4.007,4.007,4.007,4.007,4.007,4.007,4.007,4.007,4.007,4.007,4.007,4.007,4.007,4.007,4.007,4.007,4.0489,4.0489,4.0489,4.0489,4.0489,4.0489,4.0489,4.0489,4.0489,4.0489,4.0489,4.0489,4.0489,4.0489,4.0489,4.0489,4.0489,4.0489,4.0489,4.0489,4.0489,4.0489,4.0489,4.023,3.9622,3.9599,3.932,3.8707,3.8707,3.8707,3.8707,3.8707,3.9148,3.99,3.9918,4.0359,4.1167,4.1974,4.2304,4.2378,4.3167,4.3497,4.3497,4.3497,4.3497,4.3497,4.3497,4.3497,4.3497,4.3497,4.3497,4.3497,4.3497,4.3497,4.3497,4.3497,4.3497,4.3497,4.3497,4.3497,4.3497,4.3497,4.3497,4.3497,4.3497,4.3497,4.3497,4.3497,4.3497,4.3497,4.3497,4.3497,4.3497,4.3497,4.3497,4.3497,4.3497,4.3497,4.3069,4.1937,4.181,4.1375,4.0204,4.0121,4.0138,4.0138,4.0121,4.007,4.007,4.007,4.007,4.007,4.007,4.007,4.007,4.007,4.007,4.007,4.007,4.007,4.007,4.007,4.007,4.007,4.007,4.007,4.007,4.007,4.007,4.007,4.007,4.007,4.007,4.007,4.007,4.007,4.0489,4.0489,4.0489,4.0489,4.0489,4.0489,4.0489,4.0489,4.0489,4.0489,4.0489,4.0489,4.0489,4.0489,4.0489,4.0489,4.0489,4.0489,4.0489,4.0489,4.0489,4.0489,4.0489,4.0319,3.9943,3.9731,3.9408,3.8971,3.8773,3.9001,3.9533,3.9533,3.9974,4.0781,4.1332,4.1717,4.1992,4.28,4.313,4.3149,4.3387,4.3497,4.3497,4.3497,4.3497,4.3497,4.3497,4.3497,4.3497,4.3497,4.3497,4.3497,4.3497,4.3497,4.3497,4.3497,4.3497,4.3497,4.3497,4.3497,4.3497,4.3497,4.3497,4.3497,4.3497,4.3497,4.3497,4.3497,4.3497,4.3497,4.3497,4.3497,4.3497,4.3497,4.3497,4.3497,4.3497,4.3497,4.3356,4.3014,4.2675,4.2302,4.1955,4.115,4.0655,4.0655,4.0336,4.007,4.007,4.007,4.007,4.007,4.007,4.007,4.007,4.007,4.007,4.007,4.007,4.007,4.007,4.007,4.007,4.007,4.007,4.007,4.007,4.007,4.007,4.007,4.007,4.007,4.007,4.007,4.007,4.007,4.0489,4.0489,4.0489,4.0489,4.0489,4.0489,4.0489,4.0489,4.0489,4.0489,4.0489,4.0489,4.0489,4.0489,4.0489,4.0489,4.0489,4.0642,4.0989,4.1008,4.1162,4.1508,4.1527,4.1082,4.012,4.0075,3.9921,3.9583,3.9607,3.99,4.0377,4.0377,4.0799,4.1607,4.2084,4.2488,4.28,4.3277,4.3497,4.3497,4.3497,4.3497,4.3497,4.3497,4.3497,4.3497,4.3497,4.3497,4.3497,4.3497,4.3497,4.3497,4.3497,4.3497,4.3497,4.3497,4.3497,4.3497,4.3497,4.3497,4.3497,4.3497,4.3497,4.3497,4.3497,4.3497,4.3497,4.3497,4.3497,4.3497,4.3497,4.3497,4.3497,4.3497,4.3497,4.3497,4.3497,4.3497,4.341,4.3214,4.2902,4.2616,4.2342,4.149,4.0827,4.0625,4.0286,4.007,4.007,4.007,4.007,4.007,4.007,4.007,4.007,4.007,4.007,4.007,4.007,4.007,4.007,4.007,4.007,4.007,4.007,4.007,4.007,4.007,4.007,4.007,4.007,4.007,4.007,4.007,4.007,4.007,4.0489,4.0489,4.0489,4.0489,4.0489,4.0489,4.0489,4.0489,4.0489,4.0489,4.0489,4.0489,4.0489,4.0489,4.0527,4.0604,4.0681,4.1066,4.1873,4.1931,4.2277,4.3066,4.3069,4.2197,4.0348,4.0719,4.0741,4.0412,4.088,4.1148,4.1222,4.1222,4.1644,4.2415,4.2415,4.28,4.3497,4.3497,4.3497,4.3497,4.3497,4.3497,4.3497,4.3497,4.3497,4.3497,4.3497,4.3497,4.3497,4.3497,4.3497,4.3497,4.3497,4.3497,4.3497,4.3497,4.3497,4.3497,4.3497,4.3497,4.3497,4.3497,4.3497,4.3497,4.3497,4.3497,4.3497,4.3497,4.3497,4.3497,4.3497,4.3497,4.3497,4.3497,4.3497,4.3497,4.3497,4.3497,4.3339,4.2826,4.2788,4.2519,4.1937,4.1313,4.0703,4.0121,4.007,4.007,4.007,4.007,4.007,4.007,4.007,4.007,4.007,4.007,4.007,4.007,4.007,4.007,4.007,4.007,4.007,4.007,4.007,4.007,4.007,4.007,4.007,4.007,4.007,4.007,4.007,4.007,4.007,4.007,4.0489,4.0489,4.0489,4.0489,4.0489,4.0489,4.0489,4.0489,4.0489,4.0489,4.0489,4.0489,4.0489,4.0489,4.0758,4.147,4.2143,4.2624,4.2816,4.2816,4.2893,4.3085,4.2813,4.2429,4.1987,4.1874,4.1649,4.1324,4.1175,4.1423,4.2047,4.2047,4.247,4.3222,4.3222,4.3332,4.3497,4.3497,4.3497,4.3497,4.3497,4.3497,4.3497,4.3497,4.3497,4.3497,4.3497,4.3497,4.3497,4.3497,4.3497,4.3497,4.3497,4.3497,4.3497,4.3497,4.3497,4.3497,4.3497,4.3497,4.3497,4.3497,4.3497,4.3497,4.3497,4.3497,4.3497,4.3497,4.3497,4.3497,4.3497,4.3497,4.3497,4.3497,4.3497,4.3497,4.3497,4.3497,4.3444,4.3339,4.3339,4.3124,4.2559,4.1534,4.0703,4.0121,4.007,4.007,4.007,4.007,4.007,4.007,4.007,4.007,4.007,4.007,4.007,4.007,4.007,4.007,4.007,4.007,4.007,4.007,4.007,4.007,4.007,4.007,4.007,4.007,4.007,4.007,4.007,4.007,4.007,4.007,4.0489,4.0489,4.0489,4.0489,4.0489,4.0489,4.0489,4.0489,4.0489,4.0489,4.0854,4.1123,4.1123,4.1489,4.1912,4.2374,4.2835,4.3258,4.3643,4.3662,4.3855,4.4259,4.3943,4.3678,4.3502,4.3182,4.2717,4.218,4.2226,4.2451,4.2873,4.2873,4.3094,4.3497,4.3497,4.3497,4.3497,4.3497,4.3497,4.3497,4.3497,4.3497,4.3497,4.3497,4.3497,4.3497,4.3497,4.3497,4.3497,4.3497,4.3497,4.3497,4.3497,4.3497,4.3497,4.3497,4.3497,4.3497,4.3497,4.3497,4.3497,4.3497,4.3497,4.3497,4.3497,4.3497,4.3497,4.3497,4.3497,4.3497,4.3497,4.3497,4.3497,4.3497,4.3497,4.3497,4.3497,4.3497,4.341,4.3142,4.3142,4.279,4.1937,4.1268,4.0703,4.0121,4.007,4.007,4.007,4.007,4.007,4.007,4.007,4.007,4.007,4.007,4.007,4.007,4.007,4.007,4.007,4.007,4.007,4.007,4.007,4.007,4.007,4.007,4.007,4.007,4.007,4.007,4.007,4.007,4.007,4.007,4.0489,4.0489,4.0489,4.0489,4.0489,4.0546,4.07,4.0719,4.0777,4.0912,4.1566,4.2027,4.2027,4.2797,4.3316,4.3316,4.3431,4.3816,4.447,4.4509,4.4836,4.5566,4.5222,4.4896,4.4624,4.4165,4.3596,4.2916,4.3317,4.3497,4.3497,4.3497,4.3497,4.3497,4.3497,4.3497,4.3497,4.3497,4.3497,4.3497,4.3497,4.3497,4.3497,4.3497,4.3497,4.3497,4.3497,4.3497,4.3497,4.3497,4.3497,4.3497,4.3497,4.3497,4.3497,4.3497,4.3497,4.3497,4.3497,4.3497,4.3497,4.3497,4.3497,4.3497,4.3497,4.3497,4.3497,4.3497,4.3497,4.3497,4.3497,4.3497,4.3497,4.3497,4.3497,4.3497,4.3497,4.3497,4.3286,4.275,4.2519,4.1979,4.0995,4.0827,4.0577,4.0121,4.007,4.007,4.007,4.007,4.007,4.007,4.007,4.007,4.007,4.007,4.007,4.007,4.007,4.007,4.007,4.007,4.007,4.007,4.007,4.007,4.007,4.007,4.007,4.007,4.007,4.007,4.007,4.007,4.007,4.007,4.0489,4.0489,4.0489,4.0489,4.0489,4.0739,4.1508,4.1623,4.1893,4.2643,4.2854,4.2912,4.2912,4.3643,4.4143,4.4143,4.4816,4.5297,4.5413,4.5413,4.547,4.5586,4.4988,4.465,4.458,4.3931,4.3508,4.3416,4.3477,4.3497,4.3497,4.3497,4.3497,4.3497,4.3497,4.3497,4.3497,4.3497,4.3497,4.3497,4.3497,4.3497,4.3497,4.3497,4.3497,4.3497,4.3497,4.3497,4.3497,4.3497,4.3497,4.3497,4.3497,4.3497,4.3497,4.3497,4.3497,4.3497,4.3497,4.3497,4.3497,4.3497,4.3497,4.3497,4.3497,4.3497,4.3497,4.3497,4.3497,4.3497,4.3497,4.3497,4.3497,4.3497,4.3497,4.3497,4.3497,4.3497,4.3286,4.275,4.1768,4.1087,4.0903,4.0497,4.0154,4.0138,4.007,4.007,4.007,4.007,4.007,4.007,4.007,4.007,4.007,4.007,4.007,4.007,4.007,4.007,4.007,4.007,4.007,4.007,4.007,4.007,4.007,4.007,4.007,4.007,4.007,4.007,4.007,4.007,4.007,4.007,4.195,4.195,4.195,4.195,4.195,4.2085,4.247,4.2527,4.2662,4.3047,4.3489,4.3778,4.3778,4.4509,4.5028,4.5028,4.5374,4.5586,4.5586,4.5419,4.5322,4.5322,4.4638,4.4261,4.4261,4.3758,4.3497,4.3497,4.3497,4.3597,4.3772,4.3597,4.3597,4.3772,4.3597,4.3497,4.3497,4.3497,4.3497,4.3497,4.3497,4.3497,4.3497,4.3497,4.3497,4.3497,4.3497,4.3497,4.3497,4.3497,4.3497,4.3497,4.3497,4.3497,4.3497,4.3497,4.3497,4.3497,4.3497,4.3497,4.3497,4.3497,4.3497,4.3497,4.3497,4.3497,4.3497,4.3497,4.3497,4.3497,4.3497,4.3497,4.3497,4.3497,4.3497,4.3497,4.3497,4.325,4.2732,4.1828,4.0984,4.0449,4.0449,4.0254,4.007,4.007,4.007,4.007,4.007,4.007,4.007,4.007,4.007,4.007,4.007,4.007,4.007,4.007,4.007,4.007,4.007,4.007,4.007,4.007,4.007,4.007,4.007,4.007,4.007,4.007,4.007,4.007,4.007,4.007,4.007,4.007]},{"header":{"parameterUnit":"m.s-1","parameterCategory":1,"la1":30.6,"la2":28.766,"lo1":-90.7593,"lo2":-88.6598,"dy":0.0162,"dx":0.0183,"nx":116,"ny":114,"refTime":"2024-04-02T00:00:00:Z","depth":0,"parameterNumber":3,"parameterNumberName":"V-component_of_WINDS"},"data":[0.0,0.0,0.0,0.0,0.0,0.0,0.0,0.0,0.0,0.0,0.0,0.0,0.0,0.0,0.0,0.0,0.0,0.0,0.0,0.0,0.0,0.0,0.0,0.0,0.0,0.0,0.0,0.0,0.0,0.0,0.0,0.0,0.0,0.0,0.0,0.0,0.0,0.0,0.0,0.0,0.0,0.0,0.0,0.0,0.0,0.0,0.0,0.0,0.0,0.0,0.0,0.0,0.0,0.0,0.0,0.0,0.0,0.0,0.0,0.0,0.0,0.0,0.0,0.0,0.0,0.0,0.0,0.0,0.0,0.0,0.0,0.0,0.0,0.0,0.0,0.0,0.0,0.0,0.0,0.0,0.0,0.0,0.0,0.0,0.0,0.0,0.0,0.0,0.0,0.0,0.0,0.0,0.0,0.0,0.0,0.0,0.0,0.0,0.0,0.0,0.0,0.0,0.0,0.0,0.0,0.0,0.0,0.0,0.0,0.0,0.0,0.0,0.0,0.0,0.0,0.0,0.0,0.0,0.0,0.0,0.0,0.0,0.0,0.0,0.0,0.0,0.0,0.0,0.0,0.0,0.0,0.0,0.0,0.0,0.0,0.0,0.0,0.0,0.0,0.0,0.0,0.0,0.0,0.0,0.0,0.0,0.0,0.0,0.0,0.0,0.0,0.0,0.0,0.0,0.0,0.0,0.0,0.0,0.0,0.0,0.0,0.0,0.0,0.0,0.0,0.0,0.0,0.0,0.0,0.0,0.0,0.0,0.0,0.0,0.0,0.0,0.0,0.0,0.0,0.0,0.0,0.0,0.0,0.0,0.0,0.0,0.0,0.0,0.0,0.0,0.0,0.0,0.0,0.0,0.0,0.0,0.0,0.0,0.0,0.0,0.0,0.0,0.0,0.0,0.0,0.0,0.0,0.0,0.0,0.0,0.0,0.0,0.0,0.0,0.0,0.0,0.0,0.0,0.0,0.0,0.0,0.0,0.0,0.0,0.0,0.0,0.0,0.0,0.0,0.0,0.0,0.0,0.0,0.0,0.0,0.0,0.0,0.0,0.0,0.0,0.0,0.0,0.0,0.0,0.0,0.0,0.0,0.0,0.0,0.0,0.0,0.0,0.0,0.0,0.0,0.0,0.0,0.0,0.0,0.0,0.0,0.0,0.0,0.0,0.0,0.0,0.0,0.0,0.0,0.0,0.0,0.0,0.0,0.0,0.0,0.0,0.0,0.0,0.0,0.0,0.0,0.0,0.0,0.0,0.0,0.0,0.0,0.0,0.0,0.0,0.0,0.0,0.0,0.0,0.0,0.0,0.0,0.0,0.0,0.0,0.0,0.0,0.0,0.0,0.0,0.0,0.0,0.0,0.0,0.0,0.0,0.0,0.0,0.0,0.0,0.0,0.0,0.0,0.0,0.0,0.0,0.0,0.0,0.0,0.0,0.0,0.0,0.0,0.0,0.0,0.0,0.0,0.0,0.0,0.0,0.0,0.0,0.0,0.0,0.0,0.0,0.0,0.0,0.0,0.0,0.0,0.0,0.0,0.0,0.0,0.0,0.0,0.0,0.0,0.0,0.0,0.0,0.0,0.0,0.0,0.0,0.0,0.0,0.0,0.0,0.0,0.0,0.0,0.0,0.0,0.0,0.0,0.0,0.0,0.0,0.0,0.0,0.0,0.0,0.0,0.0,0.0,0.0,0.0,0.0,0.0,0.0,0.0,0.0,0.0,0.0,0.0,0.0,0.0,0.0,0.0,0.0,0.0,0.0,0.0,0.0,0.0,0.0,0.0,0.0,0.0,0.0,0.0,0.0,0.0,0.0,0.0,0.0,0.0,0.0,0.0,0.0,0.0,0.0,0.0,0.0,0.0,0.0,0.0,0.0,0.0,0.0,0.0,0.0,0.0,0.0,0.0,0.0,0.0,0.0,0.0,0.0,0.0,0.0,0.0,0.0,0.0,0.0,0.0,0.0,0.0,0.0,0.0,0.0,0.0,0.0,0.0,0.0,0.0,0.0,0.0,0.0,0.0,0.0,0.0,0.0,0.0,0.0,0.0,0.0,0.0,0.0,0.0,0.0,0.0,0.0,0.0,0.0,0.0,0.0,0.0,0.0,0.0,0.0,0.0,0.0,0.0,0.0,0.0,0.0,0.0,0.0,0.0,0.0,0.0,0.0,0.0,0.0,0.0,0.0,0.0,0.0,0.0,0.0,0.0,0.0,0.0,0.0,0.0,0.0,0.0,0.0,0.0,0.0,0.0,0.0,0.0,0.0,0.0,0.0,0.0,0.0,0.0,0.0,0.0,0.0,0.0,0.0,0.0,0.0,0.0,0.0,0.0,0.0,0.0,0.0,0.0,0.0,0.0,0.0,0.0,0.0,0.0,0.0,0.0,0.0,0.0,0.0,0.0,0.0,0.0,0.0,0.0,0.0,0.0,0.0,0.0,0.0,0.0,0.0,0.0,0.0,0.0,0.0,0.0,0.0,0.0,0.0,0.0,0.0,0.0,0.0,0.0,0.0,0.0,0.0,0.0,0.0,0.0,0.0,0.0,0.0,0.0,0.0,0.0,0.0,0.0,0.0,0.0,0.0,0.0,0.0,0.0,0.0,0.0,0.0,0.0,0.0,0.0,0.0,0.0,0.0,0.0,0.0,0.0,0.0,0.0,0.0,0.0,0.0,0.0,0.0,0.0,0.0,0.0,0.0,0.0,0.0,0.0,0.0,0.0,0.0,0.0,0.0,0.0,0.0,0.0,0.0,0.0,0.0,0.0,0.0,0.0,0.0,0.0,0.0,0.0,0.0,0.0,0.0,0.0,0.0,0.0,0.0,0.0,0.0,0.0,0.0,0.0,0.0,0.0,0.0,0.0,0.0,0.0,0.0,0.0,0.0,0.0,0.0,0.0,0.0,0.0,0.0,0.0,0.0,0.0,0.0,0.0,0.0,0.0,0.0,0.0,0.0,0.0,0.0,0.0,0.0,0.0,0.0,0.0,0.0,0.0,0.0,0.0,0.0,0.0,0.0,0.0,0.0,0.0,0.0,0.0,0.0,0.0,0.0,0.0,0.0,0.0,0.0,0.0,0.0,0.0,0.0,0.0,0.0,0.0,0.0,0.0,0.0,0.0,0.0,0.0,0.0,0.0,0.0,0.0,0.0,0.0,0.0,0.0,0.0,0.0,0.0,0.0,0.0,0.0,0.0,0.0,0.0,0.0,0.0,0.0,0.0,0.0,0.0,0.0,0.0,0.0,0.0,0.0,0.0,0.0,0.0,0.0,0.0,0.0,0.0,0.0,0.0,0.0,0.0,0.0,0.0,0.0,0.0,0.0,0.0,0.0,0.0,0.0,0.0,0.0,0.0,0.0,0.0,0.0,0.0,0.0,0.0,0.0,0.0,0.0,0.0,0.0,0.0,0.0,0.0,0.0,0.0,0.0,0.0,0.0,0.0,0.0,0.0,0.0,0.0,0.0,0.0,0.0,0.0,0.0,0.0,0.0,0.0,0.0,0.0,0.0,0.0,0.0,0.0,0.0,0.0,0.0,0.0,0.0,0.0,0.0,0.0,0.0,0.0,0.0,0.0,0.0,0.0,0.0,0.0,0.0,0.0,0.0,0.0,0.0,0.0,0.0,0.0,0.0,0.0,0.0,0.0,0.0,0.0,0.0,0.0,0.0,0.0,0.0,0.0,0.0,0.0,0.0,0.0,0.0,0.0,0.0,0.0,0.0,0.0,0.0,0.0,0.0,0.0,0.0,0.0,0.0,0.0,0.0,0.0,0.0,0.0,0.0,0.0,0.0,0.0,0.0,0.0,0.0,0.0,0.0,0.0,0.0,0.0,0.0,0.0,0.0,0.0,0.0,0.0,0.0,0.0,0.0,0.0,0.0,0.0,0.0,0.0,0.0,0.0,0.0,0.0,0.0,0.0,0.0,0.0,0.0,0.0,0.0,0.0,0.0,0.0,0.0,0.0,0.0,0.0,0.0,0.0,0.0,0.0,0.0,0.0,0.0,0.0,0.0,0.0,0.0,0.0,0.0,0.0,0.0,0.0,0.0,0.0,0.0,0.0,0.0,0.0,0.0,0.0,0.0,0.0,0.0,0.0,0.0,0.0,0.0,0.0,0.0,0.0,0.0,0.0,0.0,0.0,0.0,0.0,0.0,0.0,0.0,0.0,0.0,0.0,0.0,0.0,0.0,0.0,0.0,0.0,0.0,0.0,0.0,0.0,0.0,0.0,0.0,0.0,0.0,0.0,0.0,0.0,0.0,0.0,0.0,0.0,0.0,0.0,0.0,0.0,0.0,0.0,0.0,0.0,0.0,0.0,0.0,0.0,0.0,0.0,0.0,0.0,0.0,0.0,0.0,0.0,0.0,0.0,0.0,0.0,0.0,0.0,0.0,0.0,0.0,0.0,0.0,0.0,0.0,0.0,0.0,0.0,0.0,0.0,0.0,0.0,0.0,0.0,0.0,0.0,0.0,0.0,0.0,0.0,0.0,0.0,0.0,0.0,0.0,0.0,0.0,0.0,0.0,0.0,0.0,0.0,0.0,0.0,0.0,0.0,0.0,0.0,0.0,0.0,0.0,0.0,0.0,0.0,0.0,0.0,0.0,0.0,0.0,0.0,0.0,0.0,0.0,0.0,0.0,0.0,0.0,0.0,0.0,0.0,0.0,0.0,0.0,0.0,0.0,0.0,0.0,0.0,0.0,0.0,0.0,0.0,0.0,0.0,0.0,0.0,0.0,0.0,0.0,0.0,0.0,0.0,0.0,0.0,0.0,0.0,0.0,0.0,0.0,0.0,0.0,0.0,0.0,0.0,0.0,0.0,0.0,0.0,0.0,0.0,0.0,0.0,0.0,0.0,0.0,0.0,0.0,0.0,0.0,0.0,0.0,0.0,0.0,0.0,0.0,0.0,0.0,0.0,0.0,0.0,0.0,0.0,0.0,0.0,0.0,0.0,0.0,0.0,0.0,0.0,0.0,0.0,0.0,0.0,0.0,0.0,0.0,0.0,0.0,0.0,0.0,0.0,0.0,0.0,0.0,0.0,0.0,0.0,0.0,0.0,0.0,0.0,0.0,0.0,0.0,0.0,0.0,0.0,0.0,0.0,0.0,0.0,0.0,0.0,0.0,0.0,0.0,0.0,0.0,0.0,0.0,0.0,0.0,0.0,0.0,0.0,0.0,0.0,0.0,0.0,0.0,0.0,0.0,0.0,0.0,0.0,0.0,0.0,0.0,0.0,0.0,0.0,0.0,0.0,0.0,0.0,0.0,0.0,0.0,0.0,0.0,0.0,0.0,0.0,0.0,0.0,0.0,0.0,0.0,0.0,0.0,0.0,0.0,0.0,0.0,0.0,0.0,0.0,0.0,0.0,0.0,0.0,0.0,0.0,0.0,0.0,0.0,0.0,0.0,0.0,0.0,0.0,0.0,0.0,0.0,0.0,0.0,0.0,0.0,0.0,0.0,0.0,0.0,0.0,0.0,0.0,0.0,0.0,0.0,0.0,0.0,0.0,0.0,0.0,0.0,0.0,0.0,0.0,0.0,0.0,0.0,0.0,0.0,0.0,0.0,0.0,0.0,0.0,0.0,0.0,0.0,0.0,0.0,0.0,0.0,0.0,0.0,0.0,0.0,0.0,0.0,0.0,0.0,0.0,0.0,0.0,0.0,0.0,0.0,0.0,0.0,0.0,0.0,0.0,0.0,0.0,0.0,0.0,0.0,0.0,0.0,0.0,0.0,0.0,0.0,0.0,0.0,0.0,0.0,0.0,0.0,0.0,0.0,0.0,0.0,0.0,0.0,0.0,0.0,0.0,0.0,0.0,0.0,0.0,0.0,0.0,0.0,0.0,0.0,0.0,0.0,0.0,0.0,0.0,0.0,0.0,0.0,0.0,0.0,0.0,0.0,0.0,0.0,0.0,0.0,0.0,0.0,0.0,0.0,0.0,0.0,0.0,0.0,0.0,0.0,0.0,0.0,0.0,0.0,0.0,0.0,0.0,0.0,0.0,0.0,0.0,0.0,0.0,0.0,0.0,0.0,0.0,0.0,0.0,0.0,0.0,0.0,0.0,0.0,0.0,0.0,0.0,0.0,0.0,0.0,-0.861,0.0,0.0,0.0,0.0,0.0,0.0,0.0,0.0,0.0,0.0,0.0,0.0,0.0,0.0,0.0,0.0,0.0,0.0,0.0,0.0,0.0,0.0,0.0,0.0,0.0,0.0,0.0,0.0,0.0,0.0,0.0,0.0,0.0,0.0,0.0,0.0,-0.0727,-0.1845,-0.3307,-0.4104,-0.4504,-0.4504,-0.3755,-0.3808,-0.4487,0.0,0.0,0.0,0.0,0.0,0.0,0.0,0.0,0.0,0.0,0.0,0.0,0.0,0.0,0.0,0.0,0.0,0.0,0.0,0.0,0.0,0.0,0.0,0.0,0.0,0.0,0.0,0.0,0.0,0.0,0.0,0.0,0.0,0.0,0.0,0.0,0.0,0.0,0.0,0.0,0.0,0.0,0.0,0.0,0.0,0.0,0.0,0.0,0.0,0.0,0.0,0.0,0.0,0.0,0.0,0.0,0.0,0.0,0.0,0.0,0.0,0.0,0.0,0.0,0.0,0.0,0.0,0.0,0.0,0.0,0.0,-0.8721,0.0,0.0,0.0,0.0,0.0,0.0,0.0,0.0,0.0,0.0,0.0,0.0,0.0,0.0,0.0,0.0,0.0,0.0,0.0,0.0,0.0,0.0,0.0,0.0,0.0,0.0,0.0,0.0,0.0,0.0,0.0,0.0,0.0,0.0,0.0,0.0,-0.1233,-0.3713,-0.4231,-0.4518,-0.4458,-0.2637,-0.2519,-0.3702,-0.3984,0.0,0.0,0.0,0.0,0.0,0.0,0.0,0.0,0.0,0.0,0.0,0.0,0.0,0.0,0.0,0.0,0.0,0.0,0.0,0.0,0.0,0.0,0.0,0.0,0.0,0.0,0.0,0.0,0.0,0.0,0.0,0.0,0.0,0.0,0.0,0.0,0.0,0.0,0.0,0.0,0.0,0.0,0.0,0.0,0.0,0.0,0.0,0.0,0.0,0.0,0.0,0.0,0.0,0.0,0.0,0.0,0.0,0.0,0.0,0.0,0.0,0.0,0.0,-1.0013,-0.9813,-0.9118,-0.9421,-0.953,-0.9506,-0.912,-0.9229,-0.9531,0.0,0.0,0.0,0.0,0.0,0.0,0.0,0.0,0.0,0.0,0.0,0.0,0.0,0.0,0.0,0.0,0.0,0.0,0.0,0.0,0.0,0.0,0.0,0.0,0.0,0.0,0.0,0.0,0.0,0.0,0.0,0.0,0.0,0.0,0.0,-0.0168,-0.0617,-0.3212,-0.4472,-0.4416,-0.1628,0.0,-0.0672,-0.1955,-0.2512,0.0,0.0,0.0,0.0,0.0,0.0,0.0,0.0,0.0,0.0,0.0,0.0,0.0,0.0,0.0,0.0,0.0,0.0,0.0,0.0,0.0,0.0,0.0,0.0,0.0,0.0,0.0,0.0,0.0,0.0,0.0,0.0,0.0,0.0,0.0,0.0,0.0,0.0,0.0,0.0,0.0,0.0,-0.944,-0.8657,0.0,0.0,0.0,0.0,0.0,0.0,0.0,0.0,0.0,0.0,0.0,0.0,0.0,0.0,-0.826,-0.8972,-0.9364,-0.9364,-1.016,-1.0501,-1.0368,-1.0415,-1.0428,-1.0428,-1.0349,0.0,-0.9364,-0.9168,0.0,0.0,0.0,0.0,0.0,0.0,0.0,0.0,0.0,0.0,0.0,0.0,0.0,0.0,0.0,0.0,0.0,0.0,0.0,0.0,0.0,0.0,0.0,0.0,0.0,0.0,0.0,0.0,0.0,0.0,0.0,0.0,0.0,0.0,0.0,-0.0,-0.1347,-0.1967,-0.1967,0.0,0.0,0.0,-0.0671,-0.095,-0.095,-0.0949,0.0,0.0,0.0,0.0,0.0,0.0,0.0,0.0,0.0,0.0,0.0,0.0,0.0,0.0,0.0,0.0,0.0,0.0,0.0,0.0,0.0,0.0,0.0,0.0,0.0,0.0,0.0,0.0,0.0,0.0,0.0,0.0,0.0,0.0,0.0,0.0,0.0,0.0,0.0,-0.8798,-0.8798,-0.8921,-0.8798,-0.8421,0.0,0.0,0.0,0.0,0.0,0.0,0.0,0.0,0.0,-0.9274,-0.9274,-0.9332,-0.9454,-0.9849,-1.0047,-1.004,-1.0434,-1.0624,-1.0624,-1.0624,-1.0624,-1.0624,-1.0624,-1.0364,-1.0047,-1.0047,-0.9262,-0.8221,0.0,0.0,0.0,0.0,-0.9849,-1.0624,0.0,0.0,0.0,0.0,0.0,0.0,0.0,0.0,0.0,0.0,0.0,0.0,0.0,0.0,0.0,0.0,0.0,0.0,0.0,0.0,0.0,0.0,0.0,0.0,0.0,0.0,0.0,0.0,0.0,0.0,0.0,0.0,0.0,0.0,0.0,0.0,0.0,0.0,0.0,0.0,0.0,0.0,0.0,0.0,0.0,0.0,0.0,0.0,0.0,0.0,0.0,0.0,0.0,0.0,0.0,0.0,0.0,0.0,0.0,0.0,0.0,0.0,0.0,0.0,0.0,0.0,0.0,0.0,0.0,0.0,0.0,0.0,0.0,0.0,0.0,0.0,0.0,-0.842,-0.8156,-0.8613,-0.8285,-0.7832,0.0,0.0,0.0,0.0,0.0,0.0,-0.7697,-0.7897,-0.8285,-0.8941,-0.9204,-0.9594,-1.0238,-1.0309,-1.0341,-1.0341,-1.0413,-1.0315,-1.0049,-1.0049,-1.0012,-1.0014,-1.0014,-0.9976,-0.997,-1.0428,-0.9977,-0.9005,-0.946,-0.9204,-0.8683,-0.9139,-0.9594,-0.997,0.0,0.0,0.0,0.0,0.0,0.0,0.0,0.0,0.0,0.0,0.0,0.0,0.0,0.0,0.0,0.0,0.0,0.0,0.0,0.0,0.0,0.0,0.0,0.0,0.0,0.0,0.0,0.0,0.0,0.0,0.0,0.0,0.0,0.0,0.0,0.0,0.0,0.0,0.0,0.0,0.0,0.0,0.0,0.0,0.0,0.0,0.0,0.0,0.0,0.0,0.0,0.0,0.0,0.0,0.0,0.0,0.0,0.0,0.0,0.0,0.0,0.0,0.0,0.0,0.0,0.0,0.0,0.0,0.0,0.0,0.0,0.0,0.0,0.0,0.0,0.0,0.0,0.0,0.0,-0.6915,-0.7502,0.0,0.0,0.0,0.0,-0.5624,-0.5557,-0.5947,-0.6719,-0.7567,-0.8027,-0.8091,-0.8877,-0.9338,-0.9338,-0.9646,-0.9693,-0.9554,-0.9793,-0.9419,-0.8509,-0.8509,-0.8472,-0.8348,-0.8348,-0.8225,-0.8285,-0.9907,-0.9582,-0.8221,-0.9907,-0.8994,-0.7046,-0.8683,-0.8812,-0.8221,0.0,0.0,0.0,0.0,0.0,0.0,0.0,0.0,0.0,0.0,0.0,0.0,0.0,0.0,0.0,0.0,0.0,0.0,0.0,0.0,0.0,0.0,0.0,0.0,0.0,0.0,0.0,0.0,0.0,0.0,0.0,0.0,0.0,0.0,0.0,0.0,0.0,0.0,0.0,0.0,0.0,0.0,0.0,0.0,0.0,0.0,0.0,0.0,0.0,0.0,0.0,0.0,0.0,0.0,0.0,0.0,0.0,0.0,0.0,0.0,0.0,0.0,0.0,0.0,0.0,0.0,0.0,0.0,0.0,0.0,0.0,0.0,0.0,0.0,0.0,0.0,0.0,0.0,0.0,-0.6654,-0.6465,0.0,0.0,-0.6203,-0.6588,-0.6268,-0.6724,-0.7181,-0.7502,-0.79,-0.8112,-0.8112,-0.8513,-0.8727,-0.8727,-0.8806,-0.8848,-0.8774,-0.8852,-0.8754,-0.8403,-0.8403,-0.8364,-0.8364,-0.8364,-0.8319,-0.8313,-0.8926,-0.8748,-0.8091,-0.8672,-0.835,-0.7632,-0.8226,-0.8285,-0.8027,0.0,0.0,0.0,0.0,0.0,0.0,0.0,0.0,0.0,0.0,0.0,0.0,0.0,0.0,0.0,0.0,0.0,0.0,0.0,0.0,0.0,0.0,0.0,0.0,0.0,0.0,0.0,0.0,0.0,0.0,0.0,0.0,0.0,0.0,0.0,0.0,0.0,0.0,0.0,0.0,0.0,0.0,-0.0268,0.0,0.0,0.0,0.0,0.0,0.0,0.0,0.0,0.0,0.0,0.0,0.0,0.0,0.0,0.0,0.0,0.0,0.0,0.0,0.0,0.0,0.0,0.0,0.0,0.0,0.0,0.0,0.0,0.0,0.0,0.0,0.0,0.0,0.0,0.0,-0.562,-0.6203,-0.5752,-0.5428,-0.5428,-0.5947,-0.6292,-0.6352,-0.6888,-0.718,-0.7248,-0.7646,-0.7725,-0.738,-0.7776,-0.7986,-0.7986,-0.8051,-0.8089,-0.8013,-0.8159,-0.8052,-0.7689,-0.7689,-0.7654,-0.7588,-0.7588,-0.7553,-0.7491,-0.7491,-0.7411,-0.7315,-0.7917,-0.7779,-0.7315,-0.7583,-0.7516,-0.7248,0.0,0.0,0.0,-0.0,0.0,0.0,0.0,0.0,0.0,0.0,0.0,0.0,0.0,0.0,0.0,0.0,0.0,0.0,0.0,0.0,0.0,0.0,0.0,0.0,0.0,0.0,0.0,0.0,0.0,0.0,0.0,0.0,0.0,0.0,0.0,0.0,0.0,0.0,0.0,0.0,0.0,0.0,0.0,0.0,0.0,0.0,0.0,0.0,0.0,0.0,0.0,0.0,0.0,0.0,0.0,0.0,0.0,0.0,0.0,0.0,0.0,0.0,0.0,0.0,0.0,0.0,0.0,0.0,0.0,0.0,0.0,0.0,0.0,0.0,0.0,0.0,-0.5428,-0.5428,-0.5428,-0.5428,-0.5432,-0.5435,-0.5435,-0.5439,-0.5437,-0.5586,-0.5596,-0.5657,-0.5793,-0.6587,-0.6662,-0.5806,-0.6595,-0.7095,-0.7095,-0.7342,-0.7425,-0.7274,-0.7614,-0.7253,-0.6338,-0.6338,-0.6179,-0.6037,-0.6037,-0.5952,-0.5817,-0.5817,-0.5817,-0.5957,-0.7637,-0.7279,-0.5871,-0.6726,-0.6512,-0.58,0.0,0.0,-0.1284,-0.0168,0.0,0.0,0.0,0.0,0.0,0.0,0.0,0.0,0.0,0.0,0.0,0.0,0.0,0.0,0.0,0.0,0.0,0.0,0.0,0.0,0.0,0.0,0.0,0.0,0.0,0.0,0.0,0.0,0.0,0.0,0.0,0.0,0.0,0.0,0.0,0.0,0.0,0.0,0.0,0.0,0.0,0.0,0.0,0.0,0.0,0.0,0.0,0.0,0.0,0.0,0.0,0.0,0.0,0.0,0.0,0.0,0.0,0.0,0.0,0.0,0.0,0.0,0.0,0.0,0.0,0.0,0.0,0.0,0.0,0.0,0.0,-0.5428,-0.5428,-0.5428,-0.5428,-0.5428,-0.546,-0.5528,-0.5528,-0.562,-0.5698,-0.5739,-0.5742,-0.5762,-0.58,-0.6124,-0.6187,-0.5966,-0.63,-0.6511,-0.6511,-0.6627,-0.6572,-0.6572,-0.6696,-0.6567,-0.6338,-0.6338,-0.6237,-0.6196,-0.6196,-0.6173,-0.6135,-0.6135,-0.6135,-0.6187,-0.639,-0.6226,-0.58,-0.6086,-0.6015,-0.58,0.0,-0.3186,-0.2905,-0.2011,-0.1339,-0.0726,-0.0112,0.0,0.0,0.0,0.0,0.0,0.0,0.0,0.0,0.0,0.0,0.0,0.0,0.0,0.0,0.0,0.0,0.0,0.0,0.0,0.0,0.0,0.0,0.0,0.0,0.0,0.0,0.0,0.0,0.0,0.0,0.0,0.0,0.0,0.0,0.0,0.0,0.0,0.0,0.0,0.0,0.0,0.0,0.0,0.0,0.0,0.0,0.0,0.0,0.0,0.0,0.0,0.0,0.0,0.0,0.0,0.0,0.0,0.0,0.0,0.0,0.0,0.0,0.0,0.0,0.0,0.0,0.0,-0.5428,-0.5428,-0.5428,-0.5428,-0.5452,-0.545,-0.5535,-0.5613,-0.5674,-0.5752,-0.5827,-0.5891,-0.5895,-0.5925,-0.5989,-0.6078,-0.6125,-0.6125,-0.6271,-0.6349,-0.6349,-0.6413,-0.6444,-0.6444,-0.6444,-0.6444,-0.6444,-0.6444,-0.6444,0.0,-0.6444,-0.6444,-0.6444,-0.6444,-0.6407,0.0,0.0,0.0,0.0,0.0,-0.5993,-0.5993,-0.448,-0.4487,-0.4494,-0.4494,-0.3355,-0.2007,-0.0726,-0.0223,0.0,0.0,0.0,0.0,0.0,0.0,0.0,0.0,0.0,0.0,0.0,0.0,0.0,0.0,0.0,0.0,0.0,0.0,0.0,0.0,0.0,0.0,0.0,0.0,0.0,0.0,0.0,0.0,0.0,0.0,0.0,0.0,0.0,0.0,0.0,0.0,0.0,0.0,0.0,0.0,0.0,0.0,0.0,0.0,0.0,0.0,0.0,0.0,0.0,0.0,0.0,0.0,0.0,0.0,0.0,0.0,0.0,0.0,0.0,0.0,0.0,0.0,0.0,0.0,0.0,0.0,-0.5428,-0.5432,-0.5452,-0.5456,-0.5437,-0.5576,-0.562,-0.5688,-0.5817,-0.5844,-0.5908,-0.6047,-0.6057,-0.6122,-0.6278,0.0,0.0,0.0,0.0,-0.6498,-0.6498,-0.663,-0.6702,-0.6702,-0.6702,-0.6702,-0.6702,-0.6702,-0.6702,-0.6702,-0.6702,-0.6702,-0.6702,-0.6702,-0.662,-0.6485,-0.6339,-0.6285,-0.6285,-0.6285,-0.6285,-0.6281,-0.4522,-0.4522,-0.4473,-0.448,-0.4255,-0.3971,-0.3699,-0.1564,0.0,0.0,0.0,0.0,0.0,0.0,0.0,0.0,0.0,0.0,0.0,0.0,0.0,0.0,0.0,0.0,0.0,0.0,0.0,0.0,0.0,0.0,0.0,0.0,0.0,0.0,0.0,0.0,0.0,0.0,0.0,0.0,0.0,0.0,0.0,0.0,0.0,0.0,0.0,0.0,0.0,0.0,0.0,0.0,0.0,0.0,0.0,0.0,0.0,0.0,0.0,0.0,0.0,0.0,0.0,0.0,0.0,0.0,0.0,0.0,0.0,0.0,0.0,0.0,0.0,-0.5428,-0.5428,-0.5406,-0.5528,-0.5545,-0.5555,-0.5586,-0.58,-0.5956,-0.5983,-0.6098,-0.6186,-0.6213,-0.6217,-0.6281,-0.6424,-0.643,0.0,-0.661,-0.6644,-0.6658,-0.6658,-0.6685,-0.6702,-0.6702,0.0,0.0,-0.6702,-0.6702,-0.6702,-0.6702,-0.6702,-0.6702,-0.6702,-0.6702,-0.6681,-0.6641,-0.6488,-0.643,-0.643,-0.643,-0.643,-0.6417,-0.4519,-0.4519,-0.4519,-0.4525,-0.4525,-0.4473,-0.4487,-0.3241,-0.1729,-0.0223,0.0,0.0,0.0,0.0,0.0,0.0,0.0,0.0,0.0,0.0,0.0,0.0,0.0,0.0,0.0,0.0,0.0,0.0,0.0,0.0,0.0,0.0,0.0,0.0,0.0,0.0,0.0,0.0,0.0,0.0,0.0,0.0,0.0,0.0,0.0,0.0,0.0,0.0,0.0,0.0,0.0,0.0,0.0,0.0,-0.0536,0.0,0.0,0.0,0.0,0.0,0.0,0.0,0.0,0.0,0.0,0.0,0.0,0.0,0.0,-0.5428,0.0,0.0,-0.5428,-0.5428,-0.5426,-0.5501,-0.5579,-0.5718,-0.581,-0.581,-0.5939,-0.6061,-0.6139,-0.6213,-0.6338,-0.6338,-0.6325,-0.6396,-0.6468,-0.6546,-0.662,-0.6698,-0.6773,-0.6814,-0.6814,-0.6885,-0.6919,-0.6919,-0.6919,-0.6919,-0.6919,-0.6919,-0.6919,-0.6919,-0.6919,-0.6919,-0.6915,-0.6844,-0.6814,-0.6807,-0.6729,-0.6654,-0.6586,-0.6586,-0.6586,-0.6576,-0.4519,-0.4519,-0.4519,-0.4519,-0.4519,-0.4522,-0.4473,-0.4477,-0.3633,-0.1172,-0.0391,0.0,0.0,0.0,0.0,0.0,0.0,0.0,0.0,0.0,0.0,0.0,0.0,0.0,0.0,0.0,0.0,0.0,0.0,0.0,0.0,0.0,0.0,0.0,0.0,0.0,0.0,0.0,0.0,0.0,0.0,0.0,0.0,0.0,0.0,0.0,0.0,0.0,0.0,0.0,0.0,0.0,0.0,-0.0269,-0.0804,-0.2277,-0.3956,0.0,0.0,0.0,0.0,0.0,0.0,0.0,0.0,0.0,-0.5428,-0.5428,-0.5428,-0.5428,-0.5428,-0.5428,-0.5428,-0.5428,-0.5491,-0.5599,-0.5627,-0.5861,-0.604,-0.6071,-0.6074,-0.6125,-0.6247,-0.6338,-0.6349,-0.6298,-0.6407,-0.6498,-0.6559,-0.6678,-0.6756,-0.6783,-0.6905,-0.697,-0.697,-0.7085,-0.7139,-0.7139,-0.7139,-0.7139,-0.7139,-0.7139,-0.7139,-0.7139,-0.7139,-0.7139,-0.7132,-0.7017,-0.697,-0.697,-0.697,-0.6895,-0.6783,-0.6756,-0.6746,-0.6742,0.0,-0.4519,-0.4519,-0.4519,-0.4519,-0.4519,-0.4519,-0.4473,-0.4369,-0.4039,-0.1675,0.0,0.0,0.0,0.0,0.0,0.0,0.0,0.0,0.0,0.0,0.0,0.0,0.0,0.0,0.0,0.0,0.0,0.0,0.0,0.0,0.0,0.0,0.0,0.0,0.0,0.0,0.0,0.0,0.0,0.0,0.0,0.0,0.0,0.0,0.0,0.0,0.0,0.0,0.0,0.0,0.0,0.0,-0.1079,-0.2427,-0.2614,0.0,-0.5389,-0.5432,-0.5428,-0.5428,-0.5428,-0.5428,-0.5428,0.0,0.0,-0.5428,-0.5428,-0.5428,-0.5428,-0.5428,-0.5428,-0.5428,-0.5428,-0.5491,-0.5633,-0.5762,-0.5922,-0.6081,-0.6217,-0.6234,-0.624,-0.6335,-0.6338,-0.6315,-0.6437,-0.6464,-0.659,-0.6865,-0.6895,-0.6959,-0.7088,-0.7105,-0.7115,-0.7115,-0.7132,-0.7139,-0.7139,-0.7139,-0.7139,-0.7139,-0.7139,-0.7139,-0.7139,-0.7139,-0.7139,-0.7139,-0.7122,-0.7115,-0.7115,-0.7115,-0.7105,-0.7075,-0.6949,-0.6902,-0.6881,0.0,-0.4519,-0.4519,-0.4519,-0.4519,-0.4519,-0.4519,-0.4522,-0.4477,-0.4494,-0.2625,-0.0949,-0.0112,0.0,0.0,0.0,0.0,0.0,0.0,0.0,0.0,0.0,0.0,0.0,0.0,0.0,0.0,0.0,0.0,0.0,0.0,0.0,0.0,0.0,0.0,0.0,0.0,0.0,0.0,0.0,0.0,0.0,0.0,0.0,0.0,0.0,0.0,0.0,0.0,0.0,0.0,0.0,0.0,-0.1214,-0.27,-0.2683,-0.3961,0.0,-0.5369,-0.5428,0.0,0.0,-0.5428,-0.5428,-0.5428,-0.5428,-0.5428,-0.5428,-0.5428,-0.5428,-0.5428,-0.5428,-0.5428,0.0,-0.5559,-0.5735,-0.5793,-0.601,-0.6186,-0.6254,-0.6338,-0.6338,-0.6338,-0.6338,-0.6318,-0.6461,-0.6556,-0.6702,-0.6915,-0.7007,-0.7078,-0.7139,-0.7139,-0.7139,-0.7139,-0.7139,-0.7139,-0.7139,-0.7139,-0.7139,-0.7139,-0.7139,-0.7139,-0.7139,-0.7139,-0.7139,-0.7139,-0.7139,-0.7139,-0.7139,-0.7139,-0.7139,-0.7132,-0.7075,-0.7051,-0.7044,0.0,-0.4519,-0.4519,-0.4519,-0.4519,-0.4519,-0.4519,-0.4522,-0.4473,-0.4494,-0.353,-0.2125,-0.0224,0.0,0.0,0.0,0.0,0.0,0.0,0.0,0.0,0.0,0.0,0.0,0.0,0.0,0.0,0.0,0.0,0.0,0.0,0.0,0.0,0.0,0.0,0.0,0.0,0.0,0.0,0.0,0.0,0.0,0.0,0.0,0.0,0.0,0.0,0.0,0.0,0.0,0.0,-0.0202,-0.1146,-0.2362,-0.3374,-0.2817,-0.3956,-0.5382,-0.5432,0.0,0.0,-0.5428,-0.5428,-0.5428,-0.5428,-0.5428,-0.5428,-0.5428,-0.5428,-0.5428,-0.5428,-0.5428,0.0,-0.5428,-0.561,-0.58,-0.58,-0.6067,-0.6338,-0.6338,-0.6338,-0.6338,-0.6338,-0.6295,-0.638,-0.6525,-0.6678,-0.6827,-0.698,-0.7085,-0.7139,-0.7139,-0.7139,-0.7139,-0.7139,-0.7139,-0.7139,-0.7139,-0.7139,-0.7139,-0.7139,-0.7139,-0.7139,-0.7139,-0.7139,-0.7139,-0.7139,-0.7139,-0.7139,-0.7139,-0.7139,-0.7139,-0.7139,-0.7139,-0.7139,-0.7139,0.0,0.0,-0.4519,-0.4519,-0.4519,-0.4519,-0.4519,-0.4473,-0.4484,-0.4494,-0.4448,-0.3317,-0.0336,0.0,0.0,0.0,0.0,0.0,0.0,0.0,0.0,0.0,0.0,0.0,0.0,0.0,0.0,0.0,0.0,0.0,0.0,0.0,0.0,0.0,0.0,0.0,0.0,0.0,0.0,0.0,0.0,0.0,0.0,0.0,0.0,0.0,0.0,0.0,0.0,0.0,0.0,-0.0607,-0.4136,-0.5292,0.0,-0.3218,-0.3949,0.0,0.0,0.0,-0.5428,-0.5428,-0.5428,-0.5428,-0.5428,-0.5428,-0.5428,-0.5428,-0.5428,-0.5428,-0.5428,-0.5428,-0.5428,-0.5428,-0.561,-0.58,-0.58,-0.6067,-0.6338,-0.6338,-0.6338,-0.6338,0.0,-0.6386,-0.6529,-0.6681,-0.6834,-0.6983,-0.7126,-0.7139,-0.7139,-0.7139,-0.7139,-0.7139,-0.7139,-0.7139,-0.7139,-0.7139,-0.7139,-0.7139,-0.7139,-0.7139,-0.7139,-0.7139,-0.7139,-0.7139,-0.7139,-0.7139,-0.7139,-0.7139,-0.7139,-0.7139,-0.7139,-0.7139,-0.7139,-0.7139,0.0,0.0,0.0,0.0,0.0,-0.4519,-0.4519,-0.4522,-0.4245,-0.3572,-0.2347,0.0,0.0,0.0,0.0,0.0,0.0,0.0,0.0,0.0,0.0,0.0,0.0,0.0,0.0,0.0,0.0,0.0,0.0,0.0,0.0,0.0,0.0,0.0,0.0,0.0,0.0,0.0,0.0,0.0,0.0,0.0,-0.027,-0.2695,-0.3574,-0.3437,0.0,0.0,0.0,0.0,0.0,-0.0202,-0.1417,0.0,0.0,-0.4657,-0.4906,-0.5428,0.0,0.0,-0.5428,-0.5428,-0.5428,-0.5428,-0.5428,-0.5428,-0.5428,-0.5428,-0.5428,-0.5428,-0.5428,-0.5428,-0.5428,-0.5428,-0.561,-0.58,-0.58,-0.6067,-0.6338,-0.6338,-0.6338,0.0,0.0,0.0,0.0,-0.6688,-0.6844,-0.699,-0.7132,-0.7139,-0.7139,-0.7139,-0.7139,-0.7139,-0.7139,-0.7241,-0.7292,-0.7295,-0.7397,-0.7444,-0.7444,-0.7444,-0.7444,-0.7444,-0.7444,-0.7444,-0.7444,-0.7444,-0.7444,-0.7444,-0.7444,-0.7444,-0.7444,-0.7444,-0.7444,-0.7417,0.0,0.0,0.0,0.0,0.0,0.0,0.0,0.0,0.0,0.0,0.0,0.0,0.0,0.0,0.0,0.0,0.0,0.0,0.0,0.0,0.0,0.0,0.0,0.0,0.0,0.0,0.0,0.0,0.0,0.0,0.0,0.0,0.0,0.0,0.0,0.0,0.0,0.0,0.0,0.0,0.0,0.0,-0.1209,-0.3565,-0.4855,0.0,0.0,0.0,0.0,0.0,0.0,0.0,-0.0941,-0.303,-0.542,-0.5399,-0.5379,-0.5428,0.0,-0.5432,-0.5428,-0.5428,-0.5428,-0.5428,-0.5428,-0.5428,-0.5428,-0.5428,-0.5428,-0.5428,-0.5428,-0.5428,-0.5428,-0.5428,-0.561,-0.58,-0.58,-0.6067,-0.6338,-0.6338,-0.6338,0.0,0.0,0.0,0.0,-0.6695,-0.6888,-0.7044,-0.7136,-0.7139,-0.7139,-0.7139,-0.7193,-0.7221,-0.7221,-0.7377,-0.7451,-0.7455,-0.7553,-0.76,-0.76,-0.76,-0.76,-0.76,-0.76,-0.76,-0.76,-0.76,-0.76,-0.76,-0.76,-0.76,-0.76,-0.76,-0.76,-0.757,0.0,0.0,0.0,0.0,0.0,0.0,0.0,0.0,0.0,0.0,0.0,0.0,0.0,0.0,0.0,0.0,0.0,0.0,0.0,0.0,0.0,0.0,0.0,0.0,0.0,0.0,0.0,0.0,0.0,0.0,0.0,0.0,0.0,0.0,0.0,0.0,0.0,0.0,0.0,0.0,0.0,0.0,-0.2811,-0.2811,0.0,0.0,0.0,0.0,0.0,0.0,0.0,0.0,0.0,0.0,-0.5376,-0.5432,-0.5428,-0.5428,-0.5428,-0.5428,-0.5428,-0.5428,-0.5428,-0.5428,-0.5428,-0.5428,-0.5428,-0.5428,-0.5428,-0.5428,0.0,0.0,-0.5428,-0.5428,-0.561,-0.58,-0.58,-0.6067,-0.6338,0.0,0.0,0.0,0.0,0.0,0.0,-0.6712,0.0,-0.7139,-0.7139,-0.7139,-0.7143,-0.7153,-0.7295,-0.7373,-0.7383,-0.7536,-0.7614,-0.7621,-0.7621,-0.7621,-0.7621,-0.7621,-0.7621,-0.7621,-0.7621,-0.7621,-0.7621,-0.7621,-0.7621,-0.7621,-0.7621,-0.7621,-0.7621,-0.7621,-0.7621,-0.7621,0.0,0.0,0.0,0.0,0.0,0.0,0.0,0.0,0.0,0.0,0.0,0.0,0.0,0.0,0.0,0.0,0.0,0.0,0.0,0.0,0.0,0.0,0.0,0.0,0.0,0.0,0.0,0.0,0.0,0.0,0.0,0.0,0.0,0.0,0.0,0.0,0.0,0.0,0.0,0.0,0.0,0.0,-0.4709,0.0,0.0,0.0,0.0,0.0,0.0,0.0,0.0,0.0,0.0,0.0,-0.5379,-0.5386,-0.5376,-0.5428,-0.5372,-0.5369,-0.5428,-0.5428,-0.5428,-0.5428,-0.5428,-0.5428,-0.5428,-0.5428,-0.5428,-0.5428,0.0,0.0,0.0,-0.5428,-0.561,0.0,-0.58,-0.6067,0.0,0.0,0.0,-0.6318,-0.6458,-0.661,0.0,0.0,-0.7037,-0.7139,-0.7139,-0.7139,-0.7193,-0.7309,-0.735,-0.7424,-0.7539,-0.7685,-0.7814,-0.7926,-0.7926,-0.7926,-0.7926,-0.7926,-0.7926,-0.7926,-0.7926,-0.7926,-0.7926,-0.7926,-0.7926,-0.7926,-0.7926,-0.7926,-0.7926,-0.7926,-0.7926,-0.7926,0.0,0.0,0.0,0.0,0.0,0.0,0.0,0.0,0.0,0.0,0.0,0.0,0.0,0.0,0.0,0.0,0.0,0.0,0.0,0.0,0.0,0.0,0.0,0.0,0.0,0.0,0.0,0.0,0.0,0.0,0.0,0.0,0.0,0.0,0.0,0.0,0.0,0.0,0.0,0.0,0.0,0.0,0.0,0.0,0.0,0.0,0.0,0.0,0.0,0.0,0.0,-0.4084,-0.5113,-0.5379,-0.5372,-0.5379,0.0,-0.5428,-0.5369,-0.5432,-0.5428,-0.5428,-0.5428,-0.5428,-0.5428,-0.5428,-0.5428,-0.5428,-0.5428,0.0,0.0,0.0,0.0,0.0,0.0,0.0,-0.5793,-0.6006,-0.6183,0.0,-0.6315,0.0,-0.6559,-0.6712,-0.6861,0.0,-0.7095,-0.7139,-0.7139,-0.7204,-0.7282,-0.7366,-0.7495,-0.7638,-0.779,-0.7872,-0.7957,-0.8038,-0.8038,-0.8038,-0.8038,-0.8038,-0.8038,-0.8038,0.0,-0.8038,-0.8038,-0.8038,-0.8038,-0.8038,-0.8038,-0.8038,-0.8038,-0.8038,-0.8038,-0.8038,0.0,0.0,0.0,0.0,0.0,0.0,0.0,0.0,0.0,0.0,-0.4519,0.0,0.0,0.0,0.0,0.0,0.0,0.0,0.0,0.0,0.0,0.0,0.0,0.0,0.0,0.0,0.0,0.0,0.0,0.0,0.0,0.0,0.0,0.0,0.0,0.0,0.0,0.0,0.0,0.0,0.0,0.0,0.0,0.0,0.0,0.0,0.0,0.0,0.0,0.0,-0.5428,-0.5428,-0.5372,-0.5369,-0.5428,-0.5428,-0.5428,-0.5428,-0.5428,-0.5428,-0.5428,-0.5428,-0.5428,-0.5428,-0.5428,-0.5428,-0.5428,-0.5428,0.0,0.0,-0.5428,0.0,-0.5428,-0.5428,0.0,-0.564,-0.5783,-0.5932,-0.6088,-0.6244,-0.6386,-0.6532,-0.6685,-0.6841,-0.6987,-0.7129,-0.716,-0.717,-0.717,-0.7299,-0.739,-0.7428,-0.7695,-0.7906,-0.8038,-0.8038,-0.8038,-0.8038,-0.8038,-0.8038,-0.8038,-0.8038,-0.8038,-0.8038,0.0,0.0,-0.8038,-0.8038,-0.8038,-0.8038,-0.8038,-0.8038,-0.8038,-0.8038,-0.8038,-0.8038,0.0,0.0,0.0,0.0,0.0,0.0,0.0,0.0,0.0,0.0,-0.4519,-0.4519,0.0,0.0,0.0,0.0,0.0,0.0,0.0,0.0,0.0,0.0,0.0,0.0,0.0,0.0,0.0,0.0,0.0,0.0,0.0,0.0,0.0,0.0,0.0,0.0,0.0,0.0,0.0,0.0,0.0,0.0,0.0,0.0,0.0,0.0,0.0,0.0,0.0,0.0,-0.5428,-0.5428,-0.5428,-0.5428,-0.5428,-0.5428,-0.5428,-0.5428,-0.5428,-0.5428,-0.5428,-0.5428,-0.5428,-0.5428,-0.5428,-0.5428,0.0,0.0,0.0,-0.5428,-0.5428,-0.5428,0.0,-0.5428,0.0,0.0,0.0,0.0,-0.6088,0.0,0.0,0.0,0.0,0.0,0.0,0.0,0.0,0.0,-0.7329,-0.7356,-0.7482,-0.7726,-0.7909,-0.8014,-0.8038,-0.8038,-0.8038,-0.8038,-0.8038,-0.8038,-0.8038,-0.8038,-0.8038,-0.8038,-0.8038,0.0,-0.8038,-0.8038,-0.8038,-0.8038,-0.8038,-0.8038,-0.8038,-0.8038,-0.8038,-0.8038,0.0,0.0,0.0,0.0,0.0,0.0,0.0,-0.5171,-0.4519,-0.4519,-0.4519,-0.4519,-0.4519,-0.4519,-0.4519,0.0,0.0,0.0,0.0,0.0,0.0,0.0,0.0,0.0,0.0,0.0,0.0,0.0,0.0,0.0,0.0,0.0,0.0,0.0,0.0,0.0,0.0,0.0,0.0,0.0,0.0,0.0,0.0,0.0,0.0,0.0,0.0,0.0,0.0,0.0,-0.5428,-0.5428,-0.5428,-0.5428,-0.5428,-0.5428,-0.5428,-0.5428,-0.5428,-0.5428,-0.5428,-0.5428,-0.5428,-0.5428,-0.5428,0.0,0.0,0.0,0.0,-0.5428,-0.5428,0.0,0.0,0.0,0.0,0.0,0.0,0.0,0.0,0.0,0.0,0.0,0.0,0.0,0.0,0.0,0.0,0.0,-0.737,-0.7516,-0.7702,-0.7923,-0.8001,-0.8038,-0.8038,-0.8038,-0.8038,-0.8038,-0.8038,-0.8038,-0.8038,-0.8038,-0.8038,-0.8038,-0.8038,0.0,-0.8038,-0.8038,-0.8038,-0.8038,-0.8038,-0.8038,-0.8038,-0.8038,-0.8038,-0.8038,0.0,0.0,0.0,0.0,0.0,0.0,-0.6534,-0.5391,-0.4519,-0.4519,-0.4519,-0.4519,-0.4519,-0.4519,-0.4519,0.0,0.0,0.0,0.0,0.0,0.0,0.0,0.0,0.0,0.0,0.0,0.0,0.0,0.0,0.0,0.0,0.0,0.0,0.0,0.0,0.0,0.0,0.0,0.0,0.0,0.0,0.0,0.0,0.0,0.0,0.0,0.0,0.0,0.0,0.0,-0.5428,-0.5428,-0.5428,-0.5428,-0.5428,-0.5428,-0.5428,-0.5428,-0.5428,-0.5428,-0.5428,-0.5428,-0.5428,-0.5428,-0.5428,-0.5428,0.0,0.0,0.0,0.0,0.0,0.0,0.0,0.0,0.0,0.0,0.0,0.0,0.0,0.0,0.0,0.0,0.0,0.0,0.0,0.0,0.0,0.0,-0.7465,-0.7716,-0.7916,-0.8035,-0.8038,-0.8038,-0.8038,-0.8038,-0.8038,-0.8038,-0.8038,-0.8038,-0.8038,-0.8038,-0.8038,-0.8038,-0.8038,0.0,0.0,-0.8038,-0.8038,-0.8038,-0.8038,-0.8038,-0.8038,-0.8038,-0.8038,-0.8038,0.0,0.0,0.0,0.0,0.0,0.0,-0.6588,-0.5391,-0.4519,-0.4519,-0.4519,-0.4519,-0.4519,-0.4519,-0.4519,0.0,0.0,0.0,0.0,0.0,0.0,0.0,0.0,0.0,0.0,0.0,0.0,0.0,0.0,0.0,0.0,0.0,0.0,0.0,0.0,0.0,0.0,0.0,0.0,0.0,0.0,0.0,0.0,0.0,0.0,0.0,0.0,0.0,0.0,0.0,0.0,-0.5428,-0.5428,-0.5428,-0.5428,-0.5428,0.0,0.0,-0.5428,-0.5428,-0.5428,-0.5428,-0.5428,-0.5428,-0.5428,0.0,0.0,0.0,-0.5428,-0.5428,0.0,0.0,0.0,0.0,0.0,0.0,0.0,0.0,0.0,0.0,0.0,0.0,0.0,0.0,0.0,0.0,0.0,0.0,-0.777,-0.7929,-0.8024,-0.8038,-0.8038,-0.8038,-0.8038,-0.8038,-0.8038,-0.8038,-0.8038,-0.8038,-0.8038,-0.8038,-0.8038,-0.8038,-0.8038,0.0,0.0,-0.8038,-0.8038,-0.8038,-0.8038,-0.8038,-0.8038,-0.8038,-0.8038,-0.8038,0.0,0.0,0.0,0.0,0.0,0.0,-0.5928,-0.5117,-0.4519,-0.4519,-0.4519,-0.4519,-0.4519,-0.4519,-0.4519,-0.4519,0.0,0.0,0.0,0.0,0.0,0.0,0.0,0.0,0.0,0.0,0.0,0.0,0.0,0.0,0.0,0.0,0.0,0.0,0.0,0.0,0.0,0.0,0.0,0.0,0.0,0.0,0.0,0.0,0.0,0.0,0.0,0.0,0.0,0.0,0.0,0.0,-0.5428,-0.5428,0.0,0.0,-0.5428,-0.5428,-0.5428,-0.5428,-0.5428,-0.5428,-0.5428,-0.5428,-0.5428,0.0,0.0,-0.5428,-0.5428,-0.5428,-0.5428,0.0,0.0,0.0,0.0,0.0,0.0,0.0,0.0,0.0,0.0,0.0,0.0,0.0,0.0,0.0,0.0,0.0,-0.7943,-0.8007,-0.8038,-0.8038,-0.8038,-0.8038,-0.8038,-0.8038,-0.8038,-0.8038,-0.8038,-0.8038,-0.8038,-0.8038,-0.8038,-0.8038,-0.8038,0.0,0.0,-0.8038,-0.8038,-0.8038,-0.8038,-0.8038,-0.8038,-0.8038,-0.8038,-0.8038,0.0,0.0,0.0,0.0,0.0,-0.5487,-0.5487,-0.4948,-0.4519,-0.4519,-0.4519,-0.4519,-0.4519,-0.4519,-0.457,-0.4787,-0.4625,0.0,0.0,0.0,0.0,0.0,0.0,0.0,0.0,0.0,0.0,0.0,0.0,0.0,0.0,0.0,0.0,0.0,0.0,0.0,0.0,0.0,0.0,0.0,0.0,0.0,0.0,0.0,0.0,0.0,0.0,0.0,0.0,0.0,0.0,0.0,0.0,0.0,0.0,0.0,-0.5428,-0.5428,-0.5428,-0.5428,-0.5428,-0.5428,-0.5428,-0.5428,0.0,0.0,0.0,-0.5428,-0.5428,-0.5428,-0.5428,-0.5428,0.0,-0.5428,0.0,0.0,0.0,0.0,0.0,0.0,0.0,0.0,0.0,0.0,0.0,0.0,0.0,0.0,0.0,-0.8038,-0.8038,-0.8038,-0.8038,-0.8038,-0.8038,-0.8038,-0.8038,-0.8038,-0.8038,-0.8038,-0.8038,-0.8038,-0.8038,-0.8038,0.0,0.0,0.0,-0.8038,-0.8038,-0.8038,-0.8038,-0.8038,-0.8038,-0.8038,-0.8038,-0.8038,0.0,0.0,0.0,0.0,0.0,0.0,-0.5487,-0.4948,-0.4519,-0.4519,-0.4519,-0.4519,-0.4519,-0.4519,-0.4787,-0.5433,-0.4897,0.0,0.0,0.0,0.0,0.0,0.0,0.0,0.0,0.0,-0.5164,-0.4519,-0.5164,0.0,0.0,0.0,0.0,0.0,0.0,0.0,0.0,0.0,0.0,0.0,0.0,0.0,0.0,0.0,0.0,0.0,0.0,0.0,0.0,0.0,0.0,0.0,0.0,0.0,0.0,0.0,-0.5428,-0.5428,-0.5428,-0.5428,-0.5428,-0.5428,-0.5428,-0.5428,0.0,0.0,0.0,-0.5428,-0.5428,-0.5428,-0.5428,-0.5428,-0.5428,-0.5428,-0.5428,0.0,0.0,0.0,0.0,0.0,0.0,0.0,0.0,0.0,0.0,0.0,0.0,0.0,0.0,-0.8038,-0.8038,-0.8038,-0.8038,-0.8038,-0.8038,-0.8038,-0.8038,-0.8038,-0.8038,-0.8038,-0.8038,-0.8038,-0.8038,0.0,0.0,0.0,0.0,-0.8038,-0.8038,-0.8038,-0.8038,-0.8038,-0.8038,-0.8038,-0.8038,-0.8038,0.0,0.0,0.0,0.0,0.0,0.0,-0.5487,-0.5324,-0.5382,-0.5878,-0.5937,-0.5769,-0.5218,-0.5164,-0.5273,-0.5487,-0.5328,0.0,0.0,0.0,0.0,0.0,0.0,0.0,0.0,0.0,-0.5873,-0.5164,-0.5378,-0.5164,-0.4519,-0.4519,0.0,0.0,0.0,0.0,0.0,0.0,0.0,0.0,0.0,0.0,0.0,0.0,0.0,0.0,0.0,0.0,0.0,0.0,0.0,0.0,0.0,0.0,0.0,-0.5428,-0.5428,0.0,-0.5428,-0.5428,-0.5428,-0.5428,-0.5428,-0.5428,-0.5428,0.0,0.0,0.0,-0.5428,-0.5428,-0.5428,-0.5428,-0.5428,-0.5428,-0.5428,0.0,0.0,0.0,0.0,0.0,0.0,0.0,0.0,0.0,0.0,0.0,0.0,0.0,0.0,-0.8038,-0.8038,-0.8038,-0.8038,-0.8038,-0.8038,-0.8038,-0.8038,-0.8038,-0.8038,-0.8038,-0.8038,-0.8038,0.0,0.0,0.0,0.0,0.0,-0.8038,-0.8038,-0.8038,-0.8038,-0.8038,-0.8038,-0.8038,-0.8038,-0.8038,0.0,0.0,0.0,0.0,0.0,0.0,-0.5923,-0.5923,-0.6091,-0.6534,-0.6588,-0.6421,-0.5982,-0.5923,-0.6032,-0.6303,-0.6357,0.0,0.0,0.0,0.0,0.0,0.0,0.0,-0.702,-0.702,-0.6637,-0.5923,-0.5923,-0.571,-0.5281,-0.5123,-0.521,-0.5501,0.0,0.0,0.0,0.0,0.0,0.0,0.0,0.0,-0.6404,0.0,0.0,0.0,0.0,0.0,0.0,0.0,0.0,0.0,0.0,0.0,0.0,0.0,-0.5428,-0.5428,0.0,-0.5428,-0.5428,-0.5428,-0.5428,0.0,0.0,0.0,0.0,0.0,0.0,-0.5428,-0.5428,-0.5428,-0.5428,-0.5428,-0.5428,0.0,0.0,0.0,0.0,0.0,0.0,0.0,0.0,0.0,0.0,0.0,0.0,0.0,0.0,-0.8038,-0.8038,-0.8038,-0.8038,-0.8038,-0.8038,-0.8038,-0.8038,-0.8038,-0.8038,-0.8038,-0.8038,-0.8038,0.0,0.0,0.0,0.0,0.0,-0.8038,-0.8038,-0.8038,-0.8038,-0.8038,-0.8038,-0.8038,-0.8038,-0.8038,0.0,0.0,0.0,0.0,0.0,0.0,0.0,-0.6696,-0.6696,-0.675,-0.675,-0.675,-0.6696,-0.6696,-0.6966,-0.7616,-0.7723,0.0,0.0,0.0,0.0,0.0,0.0,0.0,-0.7777,-0.7777,-0.7402,-0.6696,-0.6712,-0.6668,-0.6618,-0.6262,-0.6473,-0.712,-0.7405,-0.8051,0.0,0.0,0.0,0.0,0.0,-0.8027,0.0,0.0,0.0,0.0,0.0,0.0,0.0,0.0,0.0,0.0,0.0,0.0,0.0,0.0,0.0,0.0,0.0,-0.5428,-0.5428,-0.5428,-0.5428,-0.5428,0.0,0.0,0.0,0.0,0.0,-0.5428,-0.5428,-0.5428,-0.5428,-0.5428,-0.5435,0.0,0.0,0.0,0.0,0.0,0.0,0.0,0.0,0.0,0.0,0.0,0.0,0.0,0.0,-0.8038,-0.8038,-0.8038,-0.8038,-0.8038,-0.8038,-0.8038,-0.8038,-0.8038,-0.8038,-0.8038,-0.8038,-0.8038,0.0,0.0,0.0,0.0,0.0,-0.8038,-0.8038,-0.8038,-0.8038,-0.8038,-0.8038,-0.8038,-0.8038,-0.8038,0.0,0.0,0.0,0.0,0.0,0.0,0.0,0.0,0.0,0.0,-0.8262,-0.8049,-0.7503,-0.745,-0.7503,0.0,0.0,0.0,0.0,0.0,0.0,0.0,0.0,0.0,-0.8533,-0.8533,-0.8156,-0.745,-0.7703,-0.7516,-0.6961,-0.7118,-0.7224,-0.741,-0.7567,-0.8234,0.0,0.0,0.0,0.0,-0.9011,-0.8613,0.0,0.0,0.0,0.0,-0.7762,-0.7242,0.0,0.0,0.0,0.0,0.0,0.0,0.0,0.0,-0.5428,-0.5428,-0.5428,0.0,-0.5428,-0.5428,-0.5428,-0.5428,0.0,0.0,0.0,0.0,0.0,-0.5428,-0.5428,-0.5428,-0.5428,-0.5428,0.0,0.0,0.0,0.0,0.0,0.0,0.0,0.0,0.0,0.0,0.0,0.0,0.0,0.0,0.0,-0.8038,-0.8038,-0.8038,-0.8038,-0.8038,-0.8038,-0.8038,-0.8038,-0.8038,-0.8038,-0.8038,-0.8038,-0.8038,0.0,0.0,0.0,0.0,-0.8038,-0.8038,-0.8038,-0.8038,-0.8038,-0.8038,-0.8038,-0.8038,-0.8038,-0.8038,0.0,0.0,0.0,0.0,0.0,0.0,0.0,0.0,0.0,0.0,-0.8804,-0.8646,-0.8262,-0.8209,-0.8209,0.0,0.0,0.0,0.0,0.0,0.0,0.0,0.0,-0.8804,-0.8804,-0.8804,-0.8485,-0.7778,-0.804,-0.8051,-0.7706,-0.8006,-0.8363,-0.8675,-0.8927,-0.9379,-0.9919,-1.0428,-1.0301,-0.9919,-0.9919,0.0,0.0,0.0,0.0,0.0,-0.8742,-0.8285,0.0,-0.6981,-0.6396,-0.5947,0.0,0.0,0.0,0.0,-0.5428,-0.5428,-0.5428,-0.5428,-0.5428,-0.5428,-0.5428,-0.5428,-0.5428,0.0,0.0,0.0,0.0,0.0,-0.5428,0.0,0.0,0.0,0.0,0.0,0.0,0.0,0.0,0.0,0.0,0.0,0.0,0.0,0.0,0.0,0.0,0.0,0.0,-0.8038,-0.8038,-0.8038,-0.8038,-0.8038,-0.8038,-0.8038,-0.8038,-0.8038,-0.8038,-0.8038,-0.8038,-0.8038,-0.8038,0.0,0.0,0.0,-0.8038,-0.8038,-0.8038,-0.8038,-0.8038,-0.8038,-0.8038,-0.8038,-0.8038,-0.8038,0.0,0.0,0.0,0.0,0.0,0.0,0.0,0.0,0.0,0.0,0.0,0.0,0.0,0.0,0.0,0.0,0.0,0.0,0.0,0.0,0.0,0.0,-0.8804,-0.8804,-0.8804,-0.8851,-0.86,-0.8087,-0.8351,-0.8564,-0.8658,-0.9053,-0.9555,-1.0194,-1.0448,-1.0624,-1.0624,-1.0624,-1.0624,-1.0624,-1.0624,0.0,0.0,0.0,0.0,0.0,0.0,0.0,0.0,-0.7567,-0.6981,-0.6719,-0.5881,0.0,0.0,0.0,0.0,0.0,-0.5428,-0.5428,-0.5428,-0.5428,-0.5428,-0.5428,0.0,0.0,0.0,0.0,0.0,0.0,0.0,0.0,0.0,0.0,0.0,0.0,0.0,0.0,0.0,0.0,0.0,0.0,0.0,0.0,0.0,0.0,0.0,0.0,0.0,-0.8038,-0.8038,-0.8038,-0.8038,-0.8038,-0.8038,-0.8038,-0.8038,-0.8038,-0.8038,-0.8038,-0.8038,-0.8038,-0.8038,0.0,0.0,0.0,-0.8038,-0.8038,-0.8038,-0.8038,-0.8038,-0.8038,-0.8038,-0.8038,-0.8038,-0.8038,0.0,0.0,0.0,0.0,0.0,0.0,0.0,0.0,0.0,0.0,0.0,0.0,0.0,0.0,0.0,0.0,0.0,0.0,0.0,0.0,0.0,-0.8804,-0.8804,-0.8804,-0.8804,-0.9051,-0.9081,-0.901,-0.9558,-0.982,-0.9866,-1.0161,-1.0425,-1.0557,-1.0604,-1.0624,-1.0624,-1.0624,-1.0624,-1.0624,-1.0624,0.0,0.0,0.0,0.0,0.0,0.0,0.0,0.0,-0.9011,-0.842,-0.7632,-0.6785,0.0,0.0,0.0,0.0,0.0,-0.5428,-0.5428,-0.5428,-0.5428,-0.5428,-0.5428,0.0,0.0,0.0,0.0,0.0,0.0,0.0,0.0,0.0,0.0,0.0,0.0,0.0,0.0,0.0,0.0,0.0,0.0,0.0,0.0,0.0,0.0,0.0,0.0,0.0,0.0,-0.8038,-0.8038,-0.8038,-0.8038,-0.8038,-0.8038,-0.8038,-0.8038,-0.8038,-0.8038,-0.8038,-0.8038,-0.8038,0.0,0.0,-0.8038,-0.8038,-0.8038,-0.8038,-0.8038,-0.8038,-0.8038,-0.8038,-0.8038,-0.8038,-0.8038,0.0,0.0,0.0,0.0,0.0,0.0,0.0,0.0,0.0,0.0,0.0,0.0,0.0,0.0,0.0,0.0,0.0,0.0,0.0,0.0,-0.8804,-0.8804,-0.8804,-0.8804,-0.8804,-0.9037,-0.9032,-0.8769,-0.9662,-0.9949,-0.9662,-1.0305,-1.0624,-1.0624,-1.0624,-1.0624,-1.0624,-1.0624,-1.0624,-1.0624,0.0,0.0,0.0,0.0,0.0,0.0,0.0,0.0,0.0,0.0,-0.8742,-0.7832,-0.6981,0.0,0.0,0.0,0.0,0.0,-0.5428,-0.5428,-0.5428,-0.5428,-0.5428,0.0,0.0,0.0,0.0,0.0,0.0,0.0,0.0,0.0,0.0,0.0,0.0,0.0,0.0,0.0,0.0,0.0,0.0,0.0,0.0,0.0,0.0,0.0,0.0,0.0,0.0,0.0,-0.8038,-0.8038,-0.8038,-0.8038,-0.8038,-0.8038,-0.8038,-0.8038,-0.8038,-0.8038,-0.8038,-0.8038,-0.8038,-0.8038,0.0,-0.8038,-0.8038,-0.8038,-0.8038,-0.8038,-0.8038,-0.8038,-0.8038,-0.8038,-0.8038,-0.8038,0.0,0.0,0.0,0.0,0.0,0.0,0.0,0.0,0.0,0.0,0.0,0.0,0.0,0.0,0.0,0.0,0.0,0.0,0.0,-0.8804,-0.8804,-0.8804,-0.8804,-0.8838,-0.8911,-0.9192,-0.9131,-0.8806,-0.9758,-1.0024,-0.9594,-1.0301,-1.0624,-1.0624,-1.0624,-1.0624,-1.0624,-1.0624,-1.0624,-1.0624,0.0,0.0,0.0,0.0,0.0,0.0,0.0,0.0,0.0,0.0,0.0,0.0,0.0,0.0,0.0,-0.5491,-0.5428,-0.5428,-0.5428,-0.5428,-0.5428,0.0,0.0,0.0,0.0,0.0,0.0,0.0,0.0,0.0,0.0,0.0,0.0,0.0,0.0,0.0,0.0,0.0,0.0,0.0,0.0,0.0,0.0,0.0,0.0,0.0,0.0,0.0,0.0,0.0,-0.8038,-0.8038,-0.8038,-0.8137,-0.8432,-0.8432,-0.8333,-0.8038,-0.8038,-0.8038,-0.8038,-0.8038,-0.8038,-0.8038,-0.8038,-0.8038,-0.8038,-0.8038,-0.8038,-0.8038,-0.8038,-0.8038,-0.8038,-0.8038,-0.8038,-0.8038,0.0,0.0,0.0,0.0,0.0,0.0,0.0,0.0,0.0,0.0,0.0,0.0,0.0,0.0,0.0,0.0,0.0,0.0,0.0,-0.8804,-0.8804,-0.8804,-0.8804,-0.8931,-0.915,-0.9499,-0.9793,-0.9959,-1.0381,-1.0534,-1.0498,-1.0561,-1.0624,-1.0624,-1.0624,-1.0624,-1.0624,-1.0624,-1.0624,-1.0624,-1.0624,0.0,0.0,0.0,0.0,0.0,0.0,0.0,0.0,0.0,0.0,0.0,0.0,0.0,-0.6461,-0.562,-0.5428,-0.5428,-0.5428,-0.5428,-0.5428,-0.5428,0.0,0.0,0.0,0.0,0.0,0.0,0.0,0.0,0.0,0.0,0.0,0.0,0.0,0.0,0.0,0.0,0.0,0.0,0.0,0.0,0.0,0.0,0.0,0.0,0.0,0.0,0.0,0.0,0.0,-0.8038,-0.8038,-0.8627,-0.9801,-0.9903,-0.9217,-0.8038,-0.8038,-0.8038,-0.8038,-0.8038,-0.8038,-0.8038,-0.8038,-0.8038,-0.8038,-0.8038,-0.8038,-0.8038,-0.8038,-0.8038,-0.8038,-0.8038,-0.8038,-0.8137,0.0,0.0,0.0,0.0,0.0,0.0,0.0,0.0,0.0,0.0,0.0,0.0,0.0,0.0,0.0,0.0,0.0,0.0,0.0,-0.8804,-0.8804,-0.8804,-0.8804,-0.9031,-0.9506,-0.9626,-0.9826,-1.0114,-1.0414,-1.0624,-1.0624,-1.0624,-1.0624,-1.0624,-1.0624,-1.0624,-1.0624,-1.0624,-1.0624,-1.0624,-1.0624,-1.0624,0.0,0.0,0.0,0.0,0.0,0.0,0.0,0.0,-0.8941,-0.8285,-0.7111,-0.633,-0.5815,-0.5491,-0.5428,-0.5428,-0.5428,-0.5815,-0.6075,0.0,0.0,0.0,0.0,0.0,0.0,0.0,0.0,0.0,0.0,0.0,0.0,0.0,0.0,0.0,0.0,0.0,0.0,0.0,0.0,0.0,0.0,0.0,0.0,0.0,0.0,0.0,0.0,0.0,0.0,-0.9217,-0.9998,-1.0681,-1.117,-1.117,-1.0974,-1.0386,-1.0386,-0.9608,-0.8038,-0.8821,-0.8825,-0.8038,-0.8924,-0.9217,-0.9217,-0.9217,-0.9217,-0.9217,-0.9217,-0.9702,-1.0386,-1.0386,-0.9899,-0.941,0.0,0.0,0.0,0.0,0.0,0.0,0.0,0.0,0.0,0.0,0.0,0.0,0.0,0.0,0.0,0.0,0.0,0.0,-0.8804,-0.8804,-0.8804,-0.8804,-0.8891,-0.9172,-0.9673,-0.9773,-0.996,-1.0254,-1.0461,-1.0624,-1.0624,-1.0624,-1.0624,-1.0624,-1.0624,-1.0624,-1.0624,-1.0624,-1.0624,-1.0624,-1.0624,-1.0624,0.0,0.0,0.0,0.0,0.0,0.0,0.0,0.0,-0.8742,-0.7832,-0.6981,-0.6071,-0.5428,-0.5428,-0.5624,-0.5815,-0.5815,-0.6268,-0.6588,0.0,0.0,0.0,0.0,0.0,0.0,0.0,0.0,0.0,0.0,0.0,0.0,0.0,0.0,0.0,0.0,0.0,0.0,0.0,0.0,0.0,0.0,0.0,0.0,0.0,0.0,0.0,0.0,0.0,0.0,0.0,-1.1463,-1.2139,-1.2528,-1.2528,-1.2528,-1.2528,-1.2915,-1.1745,-0.9213,-1.0194,-1.0096,-0.9312,-1.019,-1.0583,-1.0583,-1.0583,-1.0583,-1.0583,-1.0583,-1.1165,-1.1945,-1.1945,-1.1365,-1.0779,0.0,0.0,0.0,0.0,0.0,0.0,0.0,0.0,-0.8804,-0.8804,-0.8804,0.0,0.0,0.0,0.0,0.0,0.0,0.0,-0.8804,-0.8804,-0.8804,-0.8804,-0.903,-0.9379,-0.9679,-0.9973,-1.0267,-1.0624,-1.0624,-1.0624,-1.0624,-1.0624,-1.0624,-1.0624,-1.0624,-1.0624,-1.0624,-1.0624,-1.0624,-1.0624,-1.0624,-1.0624,-1.0624,0.0,0.0,0.0,0.0,0.0,0.0,0.0,-0.8742,-0.7832,-0.6981,-0.6071,-0.5428,-0.5428,-0.6009,-0.6719,-0.6719,-0.6719,0.0,0.0,0.0,0.0,0.0,0.0,0.0,0.0,0.0,0.0,0.0,0.0,0.0,0.0,0.0,0.0,0.0,0.0,0.0,0.0,0.0,0.0,0.0,0.0,0.0,0.0,0.0,0.0,0.0,0.0,0.0,0.0,-1.1945,-1.2528,-1.3878,-1.3878,-1.3878,-1.3974,-1.5242,-1.4472,-1.1945,-1.195,-1.195,-1.1945,-1.195,-1.1945,-1.1945,-1.1945,-1.1945,-1.1945,-1.1945,-1.1945,-1.1945,-1.1945,-1.1945,-1.2139,0.0,0.0,0.0,0.0,0.0,0.0,0.0,0.0,-0.8804,-0.8804,-0.8804,0.0,0.0,0.0,0.0,0.0,0.0,0.0,-0.8804,-0.8804,-0.8804,-0.8804,-0.903,-0.9379,-0.9679,-1.0174,-1.0474,-1.0624,-1.0624,-1.0624,-1.0624,-1.0624,-1.0624,-1.0624,-1.0624,-1.0624,-1.0624,-1.0624,-1.0624,-1.0624,-1.0624,-1.0624,-1.0624,0.0,0.0,0.0,0.0,0.0,0.0,0.0,0.0,0.0,-0.6981,-0.6071,-0.5428,-0.5428,-0.5554,-0.5815,-0.5815,0.0,0.0,0.0,0.0,0.0,0.0,0.0,0.0,0.0,0.0,0.0,0.0,0.0,0.0,0.0,0.0,0.0,0.0,0.0,0.0,0.0,0.0,0.0,0.0,0.0,0.0,0.0,0.0,0.0,0.0,0.0,0.0,0.0,-1.4172,-1.4854,-1.5242,-1.5242,-1.5242,-1.5242,-1.5635,-1.4472,-1.1945,-1.2915,-1.2813,-1.1945,-1.2909,-1.3295,-1.3295,-1.3295,-1.3295,-1.3295,-1.3295,-1.3878,-1.4663,-1.4663,-1.4076,-1.3494,0.0,0.0,0.0,0.0,0.0,0.0,0.0,0.0,-0.8804,-0.8804,-0.8804,-0.8804,0.0,0.0,0.0,0.0,0.0,0.0,-0.8804,-0.8804,-0.8858,-0.8971,-0.9259,-0.9606,-1.0027,-1.0436,-1.0624,-1.0624,-1.0624,-1.0624,-1.0624,-1.0624,-1.0624,-1.0624,-1.0624,-1.0624,-1.0624,-1.0624,-1.0624,-1.0624,-1.0624,-1.0624,-1.0624,0.0,0.0,0.0,0.0,0.0,0.0,0.0,0.0,0.0,-0.7502,-0.6593,-0.5947,-0.5947,-0.6141,-0.6535,-0.6863,0.0,0.0,0.0,0.0,0.0,0.0,0.0,0.0,0.0,0.0,0.0,0.0,0.0,0.0,0.0,0.0,0.0,0.0,0.0,0.0,0.0,0.0,0.0,0.0,0.0,0.0,0.0,0.0,0.0,0.0,0.0,0.0,0.0,-1.5439,-1.5832,-1.5832,-1.5832,-1.5832,-1.5832,-1.5832,-1.4956,-1.3494,-1.4268,-1.4172,-1.3499,-1.4268,-1.4657,-1.4657,-1.4657,-1.4657,-1.4657,-1.4657,-1.5146,-1.5832,-1.5832,-1.5337,-1.4752,0.0,0.0,-0.8804,-0.8804,0.0,0.0,0.0,0.0,-0.8804,-0.8804,-0.8804,-0.8804,0.0,0.0,0.0,0.0,0.0,0.0,-0.8804,-0.8804,-0.8938,-0.917,-0.9552,-0.9987,-1.0611,-1.0624,-1.0624,-1.0624,-1.0624,-1.0624,-1.0624,-1.0624,-1.0624,-1.0624,-1.0624,-1.0624,-1.0624,-1.0624,-1.0624,-1.0624,-1.0624,-1.0624,-1.0624,-1.0624,0.0,0.0,0.0,0.0,0.0,0.0,0.0,0.0,-0.8355,-0.7502,-0.6785,-0.6719,-0.7307,-0.8156,0.0,0.0,0.0,0.0,0.0,0.0,0.0,0.0,0.0,0.0,0.0,0.0,0.0,0.0,0.0,0.0,0.0,0.0,0.0,0.0,0.0,0.0,0.0,0.0,0.0,0.0,0.0,0.0,0.0,0.0,0.0,0.0,0.0,0.0,-1.5832,-1.5832,-1.5832,-1.5832,-1.5832,0.0,-1.5832,-1.5832,-1.5832,-1.5832,-1.5832,-1.5832,-1.5832,-1.5832,-1.5832,-1.5832,-1.5832,-1.5832,-1.5832,-1.5832,-1.5832,-1.5832,-1.5832,-1.5832,0.0,0.0,-0.8804,-0.8804,0.0,0.0,0.0,0.0,0.0,0.0,0.0,0.0,0.0,0.0,0.0,0.0,0.0,0.0,-0.8804,-0.8804,-0.8938,-0.917,-0.9746,-1.0194,-1.0618,-1.0624,-1.0624,-1.0624,-1.0624,-1.0624,-1.0624,-1.0624,-1.0624,-1.0624,-1.0624,-1.0624,-1.0624,-1.0624,-1.0624,-1.0624,-1.0624,-1.0624,-1.0624,-1.0624,-1.0624,0.0,0.0,0.0,0.0,0.0,0.0,0.0,-0.9075,-0.842,-0.7567,-0.6915,-0.7307,-0.7767,0.0,0.0,0.0,0.0,0.0,0.0,0.0,0.0,0.0,0.0,0.0,0.0,0.0,0.0,0.0,0.0,0.0,0.0,0.0,0.0,0.0,0.0,0.0,0.0,0.0,0.0,0.0,0.0,0.0,0.0,0.0,0.0,0.0,-1.5832,-1.5832,-1.5832,-1.5832,-1.5832,-1.5832,0.0,-1.5832,-1.5832,-1.5832,-1.5832,-1.5832,-1.5832,-1.5832,-1.5832,-1.5832,-1.5832,-1.5832,-1.5832,-1.5832,-1.5832,-1.5832,-1.5832,-1.5832,-1.5832,0.0,0.0,0.0,0.0,0.0,0.0,0.0,0.0,0.0,0.0,0.0,0.0,0.0,0.0,0.0,0.0,0.0,0.0,-0.8804,-0.8938,-0.9212,-0.9582,-1.0087,-1.0401,-1.0618,-1.0624,-1.0624,-1.0624,-1.0624,-1.0624,-1.0624,-1.0624,-1.0624,-1.0624,-1.0624,-1.0624,-1.0624,-1.0624,-1.0624,-1.0624,-1.0624,-1.0624,-1.0624,-1.0624,-1.0624,-1.0624,-1.0624,0.0,0.0,0.0,0.0,0.0,0.0,0.0,-0.8549,-0.8091,-0.8285,-0.842,0.0,0.0,0.0,0.0,0.0,0.0,0.0,0.0,0.0,0.0,0.0,0.0,0.0,0.0,0.0,0.0,0.0,0.0,0.0,0.0,0.0,0.0,0.0,0.0,0.0,0.0,0.0,0.0,0.0,0.0,0.0,-1.5832,-1.5832,-1.5832,-1.5832,-1.5832,-1.5832,-1.5832,-1.5832,-1.5832,-1.5832,-1.5832,-1.5832,-1.5832,-1.5832,-1.5832,-1.5832,-1.5832,-1.5832,-1.5832,-1.5832,-1.5832,-1.5832,-1.5832,-1.5832,-1.5832,-1.5832,-1.5832,0.0,0.0,0.0,0.0,0.0,0.0,0.0,0.0,0.0,0.0,0.0,0.0,0.0,0.0,0.0,0.0,0.0,0.0,-0.8884,-0.9198,-0.9548,-1.0094,-1.0401,-1.0624,-1.0624,-1.0624,-1.0624,-1.0624,-1.0624,-1.0624,-1.0624,-1.0624,-1.0624,-1.0624,-1.0624,-1.0624,-1.0624,-1.0624,-1.0624,-1.0624,-1.0624,-1.0624,-1.0624,-1.0624,-1.0624,-1.0624,-1.0624,-1.0624,-1.0624,-1.0624,0.0,0.0,0.0,0.0,-0.9466,-0.9338,-0.9402,-0.9402,0.0,0.0,0.0,0.0,0.0,0.0,0.0,0.0,0.0,0.0,0.0,0.0,0.0,0.0,0.0,0.0,0.0,0.0,0.0,0.0,0.0,0.0,0.0,0.0,0.0,0.0,0.0,0.0,0.0,0.0,-1.5832,-1.5832,-1.5832,-1.5832,-1.5832,-1.5832,-1.5832,-1.5832,-1.5832,-1.5832,-1.5832,-1.5832,-1.5832,-1.5832,-1.5832,-1.5832,-1.5832,-1.5832,-1.5832,-1.5832,-1.5832,-1.5832,-1.5832,-1.5832,-1.5832,-1.5832,-1.5832,-1.5832,0.0,0.0,0.0,0.0,0.0,0.0,0.0,0.0,0.0,0.0,-0.8804,-0.8804,0.0,0.0,0.0,0.0,0.0,0.0,-0.913,0.0,0.0,-1.0114,-1.0401,-1.0624,-1.0624,-1.0624,-1.0624,-1.0624,-1.0624,-1.0624,-1.0624,-1.0624,-1.0624,-1.0624,-1.0624,-1.0624,-1.0624,-1.0624,-1.0624,-1.0624,-1.0624,-1.0624,-1.0624,-1.0624,-1.0624,-1.0624,-1.0624,-1.0624,-1.0624,-1.0624,-1.0624,0.0,0.0,0.0,0.0,-0.953,0.0,0.0,0.0,0.0,0.0,0.0,0.0,0.0,0.0,0.0,0.0,0.0,0.0,0.0,0.0,0.0,0.0,0.0,0.0,0.0,0.0,0.0,0.0,0.0,0.0,0.0,0.0,0.0,0.0,0.0,0.0,0.0,-1.5832,-1.5832,-1.5832,-1.5832,-1.5832,-1.5832,-1.5832,-1.5832,-1.5832,-1.5832,-1.5832,-1.5832,-1.5832,-1.5832,-1.5832,-1.5832,-1.5832,-1.5832,-1.5832,-1.5832,-1.5832,-1.5832,-1.5832,-1.5832,-1.5832,-1.5832,-1.5832,-1.5832,0.0,0.0,0.0,0.0,0.0,0.0,0.0,0.0,0.0,0.0,0.0,-0.8804,0.0,0.0,0.0,-0.9031,-0.911,-0.9323,-0.9713,-0.9973,-1.0187,-1.0354,-1.0488,-1.0624,-1.0624,-1.0624,-1.0624,-1.0624,-1.0624,0.0,0.0,-1.0624,-1.0624,0.0,0.0,0.0,-1.0624,0.0,0.0,-1.0624,-1.0624,-1.0624,-1.0624,-1.0624,-1.0624,-1.0624,-1.0624,-1.0624,-1.0624,-1.0624,-1.0624,-1.0624,-1.0624,0.0,0.0,0.0,0.0,0.0,0.0,0.0,0.0,0.0,0.0,0.0,0.0,0.0,0.0,0.0,0.0,0.0,0.0,0.0,0.0,0.0,0.0,0.0,0.0,0.0,0.0,0.0,0.0,0.0,0.0,0.0,0.0,0.0,0.0,-1.5832,-1.5832,-1.5832,-1.5832,-1.5832,-1.5832,-1.5832,-1.5832,-1.5832,-1.5832,-1.5832,-1.5832,-1.5832,-1.5832,-1.5832,-1.5832,-1.5832,-1.5832,-1.5832,-1.5832,-1.5832,-1.5832,-1.5832,-1.5832,-1.5832,-1.5832,-1.5832,-1.5832,-1.5832,0.0,0.0,0.0,0.0,0.0,0.0,0.0,0.0,0.0,0.0,0.0,0.0,0.0,0.0,0.0,0.0,-0.9362,-0.9679,-1.0194,-1.0227,-1.0327,-1.0611,-1.0624,-1.0624,-1.0624,-1.0624,-1.0624,-1.0624,0.0,0.0,-1.0624,-1.0624,-1.0624,0.0,-1.0624,0.0,0.0,0.0,0.0,0.0,-1.0624,-1.0624,-1.0624,-1.0624,-1.0624,-1.0624,-1.0624,-1.0624,-1.0624,-1.0624,-1.0624,-1.0624,-1.0624,-1.0624,0.0,0.0,0.0,0.0,0.0,0.0,0.0,0.0,0.0,0.0,0.0,0.0,0.0,0.0,0.0,0.0,0.0,0.0,0.0,0.0,0.0,0.0,0.0,0.0,0.0,0.0,0.0,0.0,0.0,0.0,0.0,0.0,0.0,-1.5832,-1.5832,-1.5832,-1.5832,-1.5832,-1.5832,-1.5832,-1.5832,-1.5832,-1.5832,-1.5832,-1.5832,-1.5832,-1.5832,-1.5832,-1.5832,-1.5832,-1.5832,-1.5832,-1.5832,-1.5832,-1.5832,-1.5832,-1.5832,-1.5832,-1.5832,-1.5832,-1.5832,-1.5832,0.0,0.0,0.0,0.0,0.0,0.0,0.0,0.0,0.0,0.0,0.0,0.0,-0.913,-0.9163,-0.9339,-0.9633,-0.9913,-1.02,-1.0577,-1.0598,-1.0611,-1.0624,-1.0624,0.0,-1.0624,-1.0624,-1.0624,0.0,0.0,0.0,-1.0624,-1.0624,-1.0624,-1.0624,-1.0624,-1.0624,-1.0624,0.0,0.0,0.0,-1.0624,-1.0624,-1.0624,0.0,0.0,0.0,0.0,0.0,0.0,-1.0624,-1.0624,-1.0624,-1.0624,-1.0624,-1.0624,0.0,0.0,0.0,0.0,0.0,0.0,0.0,0.0,0.0,0.0,0.0,0.0,0.0,0.0,0.0,0.0,0.0,0.0,0.0,0.0,0.0,0.0,0.0,0.0,0.0,0.0,0.0,0.0,0.0,0.0,0.0,0.0,-1.5832,-1.5832,-1.5832,-1.5832,-1.5832,-1.5832,-1.5832,-1.5832,-1.5832,-1.5832,-1.5832,-1.5832,-1.5832,-1.5832,-1.5832,-1.5832,-1.5832,-1.5832,-1.5832,-1.5832,-1.5832,-1.5832,-1.5832,-1.5832,-1.5832,-1.5832,-1.5832,-1.5832,-1.5832,0.0,0.0,0.0,0.0,0.0,0.0,0.0,0.0,0.0,0.0,0.0,0.0,0.0,-0.9526,-0.9639,-0.9933,-1.0234,-1.0448,-1.0618,-1.0624,-1.0624,-1.0624,-1.0624,-1.0624,-1.0624,-1.0624,0.0,0.0,0.0,-1.0624,-1.0624,-1.0624,-1.0624,-1.0624,-1.0624,-1.0624,-1.0624,-1.0624,0.0,0.0,-1.0624,-1.0624,-1.0624,0.0,0.0,0.0,0.0,0.0,0.0,0.0,0.0,-1.0624,-1.0624,-1.0624,-1.0491,-0.9919,0.0,0.0,0.0,0.0,0.0,0.0,0.0,0.0,0.0,0.0,0.0,0.0,0.0,0.0,0.0,0.0,0.0,0.0,0.0,0.0,0.0,0.0,0.0,0.0,0.0,0.0,0.0,0.0,0.0,0.0,0.0,0.0,-1.5832,-1.5832,-1.5832,-1.5832,-1.5832,-1.5832,-1.5832,-1.5832,-1.5832,-1.5832,-1.5832,-1.5832,-1.5832,-1.5832,-1.5832,-1.5832,-1.5832,-1.5832,-1.5832,-1.5832,-1.5832,-1.5832,-1.5832,-1.5832,-1.5832,-1.5832,-1.5832,-1.5832,0.0,0.0,0.0,0.0,0.0,-0.7973,-0.808,-0.7417,-0.7186,-0.7865,0.0,0.0,0.0,0.0,-0.9635,-1.0241,-1.0448,-1.0624,-1.0624,-1.0624,-1.0624,-1.0624,-1.0624,-1.0624,-1.0624,0.0,0.0,0.0,0.0,0.0,0.0,-1.0624,-1.0624,-1.0624,-1.0624,-1.0624,0.0,0.0,0.0,-1.0624,0.0,-1.0624,-1.0624,0.0,0.0,0.0,0.0,0.0,0.0,0.0,0.0,0.0,0.0,0.0,0.0,-0.9663,-0.8459,0.0,-0.7065,0.0,0.0,0.0,0.0,0.0,0.0,0.0,0.0,0.0,0.0,0.0,0.0,0.0,0.0,0.0,0.0,0.0,0.0,0.0,0.0,0.0,0.0,0.0,0.0,0.0,0.0,0.0,0.0,0.0,-1.5832,-1.5832,-1.5832,-1.5832,-1.5832,-1.5832,-1.5832,-1.5832,-1.5832,-1.5832,-1.5832,-1.5832,-1.5832,-1.5832,-1.5832,-1.5832,-1.5832,-1.5832,-1.5832,-1.5832,-1.5832,-1.5832,-1.5832,-1.5832,-1.5832,-1.5832,-1.5832,-1.5832,0.0,0.0,-0.7327,-0.8066,-0.8259,-0.8358,-0.8305,-0.7601,-0.7076,-0.7081,0.0,0.0,0.0,0.0,0.0,-1.0471,-1.0624,-1.0624,-1.0624,-1.0624,-1.0624,-1.0624,-1.0624,-1.0624,-1.0624,0.0,0.0,0.0,0.0,0.0,0.0,0.0,-1.0624,-1.0624,-1.0624,-1.0624,-1.0624,0.0,-1.0624,-1.0624,0.0,-1.0624,-1.0624,0.0,0.0,0.0,-1.0624,-1.0624,0.0,0.0,0.0,0.0,0.0,0.0,0.0,-0.9934,-0.9218,-0.8418,0.0,0.0,0.0,0.0,0.0,0.0,0.0,0.0,0.0,0.0,0.0,0.0,0.0,0.0,0.0,0.0,0.0,0.0,0.0,0.0,0.0,0.0,0.0,0.0,0.0,0.0,0.0,0.0,0.0,-1.5832,-1.5832,-1.5832,-1.5832,-1.5832,-1.5832,-1.5832,-1.5832,-1.5832,-1.5832,-1.5832,-1.5832,-1.5832,-1.5832,-1.5832,-1.5832,-1.5832,-1.5832,-1.5832,-1.5832,-1.5832,-1.5832,-1.5832,-1.5832,-1.5832,-1.5832,-1.5832,-1.5832,-1.5832,0.0,-0.6022,-0.6565,-0.7267,-0.7022,-0.669,-0.6771,-0.6179,-0.5919,0.0,0.0,0.0,0.0,0.0,-1.021,-1.0555,-1.0624,-1.0624,-1.0624,-1.0624,-1.0624,-1.0624,-1.0624,-1.0624,-1.0624,0.0,0.0,0.0,0.0,0.0,0.0,0.0,0.0,0.0,-1.0624,-1.0624,-1.0624,-1.0624,0.0,0.0,-1.0624,-1.0624,0.0,0.0,0.0,0.0,0.0,-1.0624,0.0,0.0,-1.0103,-0.9501,0.0,0.0,0.0,-1.0069,-0.9414,-0.8725,-0.86,0.0,0.0,0.0,0.0,0.0,0.0,0.0,0.0,0.0,0.0,0.0,0.0,0.0,0.0,0.0,0.0,0.0,0.0,0.0,0.0,0.0,0.0,0.0,0.0,0.0,0.0,0.0,-1.5832,-1.5832,-1.5832,-1.5832,-1.5832,-1.5832,-1.5832,-1.5832,-1.5832,-1.5832,-1.5832,-1.5832,-1.5832,-1.5832,-1.5832,-1.5832,-1.5832,-1.5832,-1.5832,-1.5832,-1.5832,-1.5832,-1.5832,-1.5832,-1.5832,-1.5832,-1.5832,-1.5832,-1.5832,-1.5832,-0.5369,-0.58,-0.6284,-0.6712,-0.6533,-0.6312,-0.6413,-0.5735,-0.5452,0.0,0.0,0.0,0.0,0.0,-1.0624,-1.0624,-1.0624,-1.0624,-1.0624,-1.0624,-1.0624,-1.0624,-1.0624,-1.0624,-1.0624,0.0,0.0,0.0,0.0,0.0,0.0,0.0,0.0,0.0,-1.0624,-1.0624,0.0,0.0,0.0,0.0,-1.0624,0.0,0.0,-1.0624,-1.0624,0.0,0.0,0.0,-1.0212,-1.0606,-1.0528,0.0,0.0,0.0,0.0,-1.0829,-1.026,-0.9646,-0.9794,0.0,0.0,0.0,0.0,0.0,-0.921,-0.9513,0.0,0.0,0.0,0.0,0.0,0.0,0.0,0.0,0.0,0.0,0.0,0.0,0.0,0.0,0.0,0.0,0.0,0.0,0.0,-1.5651,-1.5758,-1.5832,-1.5832,-1.5832,-1.5832,-1.5832,-1.5832,-1.5832,-1.5832,-1.5832,-1.5832,-1.5832,-1.5832,-1.5832,-1.5832,-1.5832,-1.5832,-1.5832,-1.5832,-1.5832,-1.5832,-1.5832,-1.5832,-1.5832,-1.5832,-1.5832,-1.5832,-1.5832,-1.5832,-1.5832,0.0,-0.5677,-0.6291,-0.6291,-0.6419,-0.6523,-0.6523,-0.5881,-0.5428,0.0,-0.6268,0.0,0.0,0.0,0.0,0.0,-1.0624,-1.0624,-1.0624,-1.0624,-1.0624,-1.0624,-1.0624,-1.0624,-1.0624,-1.0624,0.0,0.0,0.0,0.0,0.0,0.0,0.0,0.0,-1.0624,-1.0624,0.0,0.0,0.0,-1.0624,-1.0624,-1.0624,0.0,0.0,-1.0645,0.0,-1.0672,-1.0257,-0.9819,-1.067,-1.1195,0.0,0.0,0.0,0.0,-1.1917,-1.1503,-1.0938,0.0,0.0,0.0,0.0,0.0,0.0,-1.0858,-1.0783,-1.1087,0.0,0.0,0.0,0.0,0.0,0.0,0.0,0.0,0.0,0.0,0.0,0.0,0.0,0.0,0.0,0.0,-1.5177,-1.5351,-1.5351,-1.5585,-1.5732,-1.5732,-1.5732,-1.5732,-1.5732,-1.5765,-1.5785,-1.5785,-1.5812,-1.5832,-1.5832,-1.5832,-1.5832,-1.5832,-1.5832,-1.5832,-1.5832,-1.5832,-1.5832,-1.5832,-1.5832,-1.5832,-1.5832,-1.5832,-1.5832,-1.5832,-1.5832,-1.5832,-1.5832,-0.5091,-0.5342,-0.5577,-0.5577,-0.5602,-0.5686,-0.5686,-0.5491,-0.5428,-0.5428,-0.6793,0.0,0.0,0.0,0.0,0.0,-1.0624,-1.0624,-1.0624,-1.0624,-1.0624,-1.0624,-1.0624,-1.0624,-1.0624,-1.0624,-1.0624,0.0,0.0,0.0,0.0,0.0,0.0,0.0,-1.0624,-1.0624,0.0,0.0,0.0,-1.0624,-1.0624,0.0,-1.0624,-1.0624,-1.0701,-1.0909,-1.0909,-1.0962,-1.096,0.0,-1.1083,-1.1675,0.0,0.0,0.0,-1.2218,0.0,0.0,0.0,0.0,0.0,0.0,0.0,0.0,-1.1013,-1.0783,-1.0864,0.0,0.0,0.0,0.0,0.0,0.0,0.0,0.0,0.0,0.0,0.0,0.0,0.0,0.0,0.0,0.0,-1.4877,-1.505,-1.505,-1.5104,-1.5137,-1.5137,-1.5137,-1.5137,-1.5137,-1.5357,-1.5478,-1.5478,-1.5712,-1.5832,-1.5832,-1.5832,-1.5832,-1.5832,-1.5832,-1.5832,-1.5832,-1.5832,-1.5832,-1.5832,-1.5832,-1.5832,-1.5832,-1.5832,-1.5832,-1.5832,-1.5832,-1.5832,-1.5832,-0.5247,-0.5308,-0.5428,-0.5428,-0.5428,-0.5428,-0.5428,-0.5428,-0.5428,-0.5428,-0.6924,0.0,0.0,0.0,0.0,0.0,0.0,0.0,0.0,-1.0624,-1.0428,-0.9977,-1.0364,-1.0428,-0.9983,-1.0364,-1.0624,-1.0624,0.0,0.0,0.0,0.0,0.0,0.0,0.0,0.0,0.0,0.0,-1.0775,-1.0775,-1.0775,0.0,-1.0788,-1.0935,-1.1082,-1.1209,-1.1209,-1.1396,-1.1543,-1.0803,-1.1265,0.0,0.0,-1.1922,-1.2305,0.0,-1.2305,-1.2305,0.0,0.0,0.0,-1.2305,0.0,0.0,0.0,-1.1545,-1.1545,0.0,0.0,0.0,0.0,0.0,0.0,0.0,0.0,0.0,0.0,0.0,0.0,0.0,0.0,0.0,0.0,-1.4569,-1.4803,-1.495,-1.4963,-1.4963,-1.4963,-1.4963,-1.4963,-1.4963,-1.5104,-1.5251,-1.5398,-1.5538,-1.5685,-1.5832,-1.5832,-1.5832,-1.5832,-1.5832,-1.5832,-1.5832,-1.5832,-1.5832,-1.5832,-1.5832,-1.5832,-1.5832,-1.5832,-1.5832,-1.5832,-1.5832,-1.5832,-1.5832,-0.5428,-0.5428,-0.5428,-0.5428,-0.5428,-0.5428,-0.5428,-0.5428,-0.5428,-0.5428,0.0,0.0,0.0,0.0,0.0,0.0,0.0,0.0,0.0,0.0,-1.004,-0.9338,-1.011,-1.0301,-0.9594,-1.0238,-1.0624,-1.0624,0.0,0.0,0.0,0.0,0.0,0.0,0.0,0.0,0.0,0.0,0.0,-1.1082,0.0,-1.1129,-1.1102,-1.1336,-1.1463,-1.1516,-1.1577,-1.175,-1.1912,-1.1316,0.0,-1.2305,-1.2305,-1.2305,0.0,0.0,0.0,0.0,0.0,0.0,0.0,0.0,0.0,-1.2305,0.0,0.0,0.0,0.0,0.0,0.0,0.0,0.0,0.0,0.0,0.0,0.0,0.0,0.0,0.0,0.0,0.0,0.0,0.0,-1.4302,-1.4536,-1.4776,-1.4796,-1.4796,-1.4796,-1.4796,-1.4796,-1.4796,-1.485,-1.5017,-1.5311,-1.5364,-1.5538,-1.5832,-1.5832,-1.5832,-1.5832,-1.5832,-1.5832,-1.5832,-1.5832,-1.5832,-1.5832,-1.5832,-1.5832,-1.5832,-1.5832,-1.5832,-1.5832,-1.5832,-1.5832,-1.5832,-0.5428,-0.5428,-0.5428,-0.5428,-0.5428,-0.5428,-0.5428,-0.5428,-0.5428,0.0,0.0,0.0,0.0,0.0,0.0,0.0,0.0,0.0,-0.8285,0.0,0.0,-0.9274,-1.011,-1.0555,-1.0428,-1.0561,-1.0624,-1.0624,0.0,0.0,0.0,0.0,0.0,0.0,-1.0828,0.0,0.0,0.0,-1.1376,0.0,-1.1663,-1.161,0.0,-1.1416,-1.159,-1.185,-1.2111,-1.2225,-1.2258,0.0,-1.2224,-1.2305,0.0,-1.2305,0.0,0.0,0.0,0.0,0.0,0.0,0.0,0.0,-1.2305,0.0,0.0,0.0,0.0,0.0,0.0,0.0,0.0,0.0,0.0,0.0,0.0,0.0,0.0,0.0,0.0,0.0,0.0,0.0,0.0,0.0,-1.4148,-1.4188,-1.4188,-1.4188,-1.4188,-1.4188,-1.4188,-1.4188,-1.4436,-1.471,-1.501,-1.5264,-1.5538,-1.5832,-1.5832,-1.5832,-1.5832,-1.5832,-1.5832,-1.5832,-1.5832,-1.5832,-1.5832,-1.5832,-1.5832,-1.5832,-1.5832,-1.5832,-1.5832,-1.5832,-1.5832,-1.5832,-0.5428,-0.5428,-0.5428,-0.5428,-0.5428,-0.5428,-0.5428,-0.5428,-0.5554,0.0,0.0,0.0,0.0,0.0,0.0,0.0,0.0,-0.8027,0.0,0.0,0.0,0.0,-0.9849,0.0,-0.9849,-1.0364,-1.0624,-1.0624,-1.0624,0.0,0.0,0.0,0.0,0.0,-1.1116,0.0,-1.1263,0.0,0.0,0.0,0.0,0.0,0.0,-1.1931,-1.2011,-1.2138,-1.2258,-1.2305,-1.2305,0.0,-1.2305,0.0,0.0,0.0,0.0,0.0,0.0,0.0,0.0,0.0,0.0,0.0,0.0,0.0,0.0,0.0,-1.2305,0.0,0.0,0.0,0.0,0.0,0.0,0.0,0.0,0.0,0.0,0.0,0.0,0.0,0.0,0.0,0.0,0.0,0.0,0.0,0.0,-1.4088,-1.4088,-1.4088,-1.4088,-1.4088,-1.4208,-1.4489,-1.4963,-1.5084,-1.5378,-1.5832,-1.5832,-1.5832,-1.5832,-1.5832,-1.5832,-1.5832,-1.5832,-1.5832,-1.5832,-1.5832,-1.5832,-1.5832,-1.5832,-1.5832,-1.5832,-1.5832,-1.5832,-1.5832,-0.5428,0.0,-0.5428,-0.5428,-0.5428,-0.5428,-0.5428,-0.5428,0.0,0.0,0.0,0.0,-0.7312,-0.7837,0.0,0.0,0.0,-0.7312,0.0,0.0,-0.8683,0.0,0.0,0.0,0.0,-1.0301,-1.0624,-1.0624,-1.0641,-1.0681,0.0,0.0,0.0,0.0,0.0,-1.155,-1.1563,0.0,0.0,-1.2004,-1.2218,-1.2305,-1.2305,-1.2305,-1.2305,-1.2305,-1.2305,-1.2305,-1.2305,-1.2305,-1.2305,0.0,-1.2305,0.0,0.0,0.0,0.0,0.0,-1.2305,0.0,0.0,0.0,0.0,0.0,0.0,0.0,0.0,0.0,0.0,0.0,0.0,0.0,0.0,0.0,0.0,0.0,0.0,0.0,0.0,0.0,0.0,0.0,0.0,0.0,0.0,0.0,-1.3968,-1.4001,-1.4082,-1.4088,-1.4088,-1.4088,-1.4088,-1.4369,-1.4957,-1.4963,-1.5257,-1.5832,-1.5832,-1.5832,-1.5832,-1.5832,-1.5832,-1.5832,-1.5832,-1.5832,-1.5832,-1.5832,-1.5832,-1.5832,-1.5832,-1.5832,-1.5832,-1.5832,-1.5832,-1.5832,-0.5428,-0.5428,0.0,0.0,0.0,-0.5428,-0.5428,0.0,0.0,0.0,0.0,0.0,0.0,0.0,0.0,0.0,0.0,-0.5495,-0.5495,0.0,-0.8027,0.0,0.0,0.0,0.0,0.0,-1.0624,-1.0624,-1.0842,-1.0982,0.0,0.0,0.0,0.0,0.0,-1.1857,-1.187,-1.2164,-1.2285,-1.2285,-1.2298,-1.2305,-1.2305,0.0,-1.2305,-1.2305,-1.2305,0.0,0.0,-1.2305,-1.2305,0.0,0.0,0.0,0.0,0.0,0.0,0.0,0.0,0.0,0.0,-1.2305,0.0,0.0,0.0,0.0,-1.2305,0.0,0.0,0.0,0.0,0.0,0.0,-1.2305,0.0,0.0,0.0,0.0,0.0,0.0,0.0,0.0,0.0,0.0,0.0,-1.3634,-1.3661,-1.3781,-1.4075,-1.4088,-1.4088,-1.4088,-1.4088,-1.4369,-1.4957,-1.4963,-1.5257,-1.5832,-1.5832,-1.5832,-1.5832,-1.5832,-1.5832,-1.5832,-1.5832,-1.5832,-1.5832,-1.5832,-1.5832,-1.5832,-1.5832,-1.5832,-1.5832,-1.5832,-1.5832,-1.5832,-0.5428,0.0,0.0,0.0,0.0,0.0,0.0,-0.5428,0.0,0.0,0.0,0.0,0.0,0.0,-0.6009,0.0,0.0,-0.5428,-0.5428,-0.6465,0.0,0.0,0.0,-0.9977,0.0,0.0,-1.0842,-1.0842,-1.1136,0.0,0.0,0.0,0.0,0.0,0.0,-1.2151,0.0,0.0,0.0,0.0,0.0,-1.2305,-1.2305,0.0,0.0,-1.2305,-1.2305,-1.2305,0.0,-1.2305,-1.2305,-1.2305,-1.2305,-1.2305,-1.2305,-1.2305,-1.2305,0.0,0.0,0.0,-1.2305,-1.2305,0.0,0.0,0.0,0.0,0.0,0.0,0.0,0.0,0.0,0.0,-1.2305,-1.2305,-1.2305,0.0,0.0,0.0,0.0,0.0,0.0,0.0,0.0,0.0,0.0,-1.3333,-1.3534,-1.3687,0.0,-1.3981,-1.4088,-1.4088,-1.4088,-1.4369,-1.4957,-1.4963,-1.5257,-1.5832,-1.5832,-1.5832,-1.5832,-1.5832,-1.5832,-1.5832,-1.5832,-1.5832,-1.5832,-1.5832,-1.5832,-1.5832,-1.5832,-1.5832,-1.5832,-1.5832,-1.5832,-1.5832,-0.5428,0.0,0.0,0.0,0.0,0.0,0.0,0.0,0.0,0.0,-0.6268,0.0,-0.6268,0.0,-0.6009,0.0,-0.5428,-0.5428,-0.5428,-0.6531,0.0,-0.7962,-0.9221,0.0,0.0,0.0,-1.1149,-1.1149,0.0,-1.1583,0.0,0.0,0.0,0.0,0.0,0.0,0.0,0.0,-1.2305,0.0,0.0,-1.2305,0.0,0.0,-1.2305,-1.2305,0.0,-1.2305,-1.2305,-1.2305,-1.2305,-1.2305,-1.2305,-1.2305,-1.2305,-1.2305,-1.2305,-1.2305,-1.2305,-1.2305,0.0,-1.2305,-1.2305,0.0,-1.2305,0.0,0.0,0.0,0.0,0.0,0.0,0.0,0.0,-1.2305,-1.2305,-1.2305,0.0,-1.2305,0.0,0.0,0.0,0.0,0.0,0.0,-1.2712,-1.3019,-1.322,-1.342,0.0,0.0,-1.3975,-1.4082,-1.4088,-1.4369,-1.4957,-1.4963,-1.5257,-1.5832,-1.5832,-1.5832,-1.5832,-1.5832,-1.5832,-1.5832,-1.5832,-1.5832,-1.5832,-1.5832,-1.5832,-1.5832,-1.5832,-1.5832,-1.5832,-1.5832,-1.6109,-1.6386,-0.5428,-0.5428,0.0,0.0,-0.5428,0.0,0.0,0.0,-0.5428,0.0,-0.5428,-0.5428,-0.5428,-0.5428,-0.5428,-0.5428,-0.5428,0.0,-0.5505,-0.7003,0.0,0.0,-0.9927,-1.0949,-1.1015,0.0,0.0,0.0,0.0,0.0,0.0,0.0,0.0,0.0,-1.2305,0.0,-1.2305,-1.2305,-1.2305,-1.2305,-1.2305,-1.2305,-1.2305,-1.2305,-1.2305,-1.2305,-1.2305,-1.2305,-1.2305,-1.2305,-1.2305,-1.2305,-1.2305,-1.2305,-1.2305,-1.2305,-1.2305,-1.2305,-1.2318,-1.2311,-1.2311,-1.2338,0.0,0.0,0.0,0.0,-1.2318,0.0,0.0,0.0,0.0,0.0,0.0,-1.2305,-1.2305,-1.2305,0.0,0.0,0.0,0.0,0.0,0.0,0.0,-1.2305,-1.2418,-1.2775,-1.2815,0.0,0.0,0.0,-1.3781,-1.4075,-1.4088,-1.4369,-1.4957,-1.4963,-1.5257,-1.5832,-1.5832,-1.5832,-1.5832,-1.5832,-1.5832,-1.5832,-1.5832,-1.5825,-1.592,-1.5832,-1.5825,-1.592,-1.5825,-1.5825,-1.592,-1.5825,-1.6662,-1.7591,-0.5428,-0.5428,-0.5428,0.0,-0.5428,-0.5428,0.0,0.0,0.0,0.0,-0.5428,-0.5428,-0.5428,-0.5428,-0.5428,-0.5428,-0.5428,0.0,0.0,0.0,0.0,-0.948,-1.0033,-1.0623,-1.1248,-1.1603,0.0,-1.1757,0.0,0.0,-1.2191,0.0,0.0,0.0,0.0,0.0,-1.2305,-1.2305,-1.2305,-1.2305,-1.2305,-1.2305,0.0,0.0,-1.2305,-1.2305,-1.2305,-1.2305,-1.2305,-1.2305,-1.2305,-1.2305,-1.2305,-1.2305,-1.2305,-1.2305,-1.2305,-1.2351,-1.2572,-1.2472,-1.2412,-1.2866,-1.2806,-1.2708,0.0,0.0,0.0,0.0,0.0,0.0,0.0,0.0,0.0,0.0,0.0,0.0,0.0,0.0,0.0,0.0,0.0,0.0,-1.2305,-1.2305,-1.2338,-1.2412,-1.2694,0.0,0.0,0.0,0.0,-1.4075,-1.4088,-1.4369,-1.4957,-1.4963,-1.5257,-1.5832,-1.5832,-1.5832,-1.5832,-1.5832,-1.5832,-1.5832,-1.5832,-1.6386,-1.7131,-1.6204,-1.6386,-1.7131,-1.6197,-1.6386,-1.7131,-1.6109,-1.721,-1.8856,-0.5428,0.0,0.0,-0.5428,0.0,0.0,-0.5428,0.0,0.0,-0.5428,-0.5428,0.0,-0.5428,-0.542,-0.546,-0.546,-0.5518,0.0,0.0,0.0,0.0,-0.8759,-0.9281,-0.976,-1.0254,-1.0593,0.0,-1.1386,0.0,0.0,-1.2305,0.0,0.0,0.0,0.0,-1.2305,0.0,-1.2305,-1.2305,-1.2305,-1.2305,0.0,0.0,-1.2305,-1.2305,-1.2305,-1.2305,-1.2305,-1.2305,-1.2305,-1.2305,-1.2305,-1.2305,-1.2392,-1.2492,-1.2492,-1.2592,-1.2732,-1.2906,-1.2826,-1.2779,-1.3126,-1.308,-1.2946,-1.2946,-1.2946,-1.2899,0.0,0.0,0.0,0.0,0.0,0.0,0.0,0.0,0.0,0.0,0.0,0.0,0.0,0.0,0.0,-1.2305,-1.2305,-1.2305,-1.2305,0.0,0.0,0.0,0.0,0.0,-1.4075,-1.4088,-1.4369,-1.4957,-1.4963,-1.5257,-1.5832,-1.5832,-1.5832,-1.5832,-1.5832,-1.5832,-1.5832,-1.6386,-1.7037,-1.7591,-1.6951,-1.7037,-1.7598,-1.6943,-1.7669,-1.9131,-1.7848,-1.8664,-2.0124,0.0,0.0,0.0,0.0,0.0,0.0,0.0,-0.5439,0.0,-0.5456,0.0,-0.5466,-0.5416,-0.5538,-0.5616,-0.5616,0.0,-0.5882,-0.6043,-0.6757,-0.7195,-0.7364,-0.8311,-0.8841,-0.8841,-0.9265,0.0,0.0,0.0,0.0,0.0,0.0,0.0,0.0,0.0,0.0,0.0,-1.2305,-1.2305,0.0,-1.2305,-1.2305,-1.2305,-1.2305,-1.2305,-1.2305,-1.2305,-1.2305,-1.2305,-1.2305,-1.2325,-1.2365,-1.2365,-1.2565,-1.2882,-1.2882,-1.2999,-1.322,-1.326,-1.324,-1.3227,-1.3307,-1.33,-1.3267,-1.3267,-1.3267,-1.326,-1.322,-1.2993,-1.2882,0.0,0.0,0.0,0.0,0.0,0.0,0.0,0.0,0.0,0.0,0.0,0.0,0.0,-1.2305,0.0,0.0,0.0,0.0,0.0,0.0,0.0,-1.4068,-1.4088,0.0,-1.4957,0.0,-1.5257,-1.5832,-1.5832,-1.5832,-1.5832,-1.5832,-1.592,-1.6109,-1.7225,-1.787,-1.8141,-1.7956,-1.7963,-1.7963,-1.7963,-1.9314,-2.1203,-2.0124,-2.0486,-2.1391,0.0,0.0,0.0,0.0,0.0,-0.5549,-0.5549,-0.5443,-0.5406,-0.5535,-0.5549,-0.5596,-0.5711,-0.5749,-0.5766,-0.5766,-0.5786,0.0,0.0,0.0,0.0,-0.8871,-0.914,-0.9236,-0.9236,-1.0093,-1.0634,0.0,0.0,0.0,0.0,0.0,0.0,0.0,0.0,0.0,-1.2305,-1.2305,0.0,-1.2305,-1.2305,-1.2305,-1.2305,-1.2305,-1.2305,-1.2305,-1.2305,-1.2305,-1.2305,-1.2305,-1.2465,-1.2741,-1.2741,-1.2879,-1.3126,-1.3126,-1.3166,-1.326,-1.35,-1.3394,-1.3327,-1.3814,-1.3748,-1.3567,-1.3567,-1.3567,-1.35,-1.326,-1.3166,-1.3126,-1.3126,0.0,0.0,0.0,0.0,0.0,0.0,0.0,0.0,0.0,0.0,0.0,0.0,0.0,0.0,0.0,0.0,0.0,0.0,0.0,0.0,0.0,-1.4088,0.0,0.0,0.0,-1.5257,-1.5832,-1.5832,-1.5832,-1.5832,-1.5832,-1.6386,-1.7412,-1.7598,-1.8864,-2.0567,-1.9579,-1.9222,-1.9222,-1.9222,-2.0034,-2.1293,-2.1025,-2.1756,-2.2589,0.0,0.0,0.0,0.0,0.0,0.0,0.0,-0.5637,0.0,-0.5691,-0.5698,-0.5725,-0.5793,-0.5871,-0.5918,-0.5918,-0.5993,-0.6293,-0.6817,-0.6897,-0.7159,-0.7702,-0.7783,0.0,-0.7783,-0.8761,-0.9513,-1.004,0.0,0.0,0.0,0.0,0.0,0.0,0.0,-1.2305,0.0,0.0,0.0,-1.2305,-1.2305,-1.2305,-1.2305,-1.2305,-1.2305,-1.2318,-1.2478,-1.2532,-1.2532,-1.2532,-1.2732,-1.2986,-1.2986,-1.3193,-1.3434,-1.3434,-1.3547,-1.3694,-1.3834,-1.3774,-1.3734,-1.4015,-1.3981,-1.3874,-1.3874,-1.3874,-1.3834,-1.3694,-1.354,-1.3387,-1.324,-1.3086,0.0,0.0,0.0,0.0,0.0,0.0,0.0,0.0,0.0,0.0,0.0,0.0,0.0,0.0,0.0,0.0,0.0,0.0,0.0,0.0,0.0,0.0,0.0,0.0,0.0,-1.5832,-1.5832,-1.5832,-1.5832,-1.5832,-1.648,-1.7684,-1.8319,-1.9679,-2.1293,-2.0657,-2.0395,-2.0395,-2.0395,-2.1212,-2.2217,-2.2217,-2.2589,-2.3047,0.0,-0.5637,0.0,0.0,-0.5827,0.0,-0.585,-0.5878,-0.5888,-0.5854,-0.585,-0.5864,-0.5895,-0.6006,-0.6078,-0.6078,-0.619,-0.6338,-0.6338,-0.6338,-0.6338,-0.6338,-0.6338,-0.6412,-0.6644,-0.7629,-0.8613,0.0,0.0,0.0,0.0,0.0,0.0,0.0,0.0,0.0,0.0,0.0,-1.2305,-1.2305,-1.2305,-1.2305,-1.2311,-1.2371,-1.2398,-1.2438,-1.2739,-1.2886,-1.2939,-1.2939,-1.31,-1.3307,-1.3307,-1.3507,-1.3741,-1.3741,-1.3901,-1.4088,-1.4088,-1.4088,-1.4088,-1.4088,-1.4088,-1.4088,-1.4088,-1.4088,-1.4088,-1.4088,-1.3901,-1.3647,-1.3353,-1.3307,0.0,0.0,0.0,0.0,0.0,0.0,0.0,0.0,0.0,0.0,0.0,0.0,0.0,0.0,0.0,0.0,0.0,0.0,0.0,0.0,0.0,-1.4663,-1.4963,0.0,-1.5538,0.0,-1.5832,-1.5832,-1.5832,-1.6109,-1.685,-1.8141,-1.9405,-2.0576,-2.1658,-2.1658,-2.1658,-2.1658,-2.1658,-2.2217,-2.3135,-2.3135,-2.3135,-2.3135,0.0,0.0,0.0,0.0,0.0,0.0,0.0,-0.6129,-0.6166,-0.6027,-0.601,-0.6061,-0.6203,-0.623,-0.624,-0.624,-0.6251,-0.6338,-0.6338,-0.6338,-0.6338,-0.6338,-0.6338,-0.6718,-0.7629,-0.8613,-0.9669,0.0,0.0,0.0,0.0,0.0,0.0,0.0,0.0,0.0,0.0,-1.2305,-1.2305,-1.2305,-1.2305,-1.2305,-1.2331,-1.2681,-1.2782,-1.2822,-1.3053,-1.334,-1.3561,-1.3561,-1.3581,-1.3519,-1.3519,-1.3808,-1.4048,-1.4048,-1.4068,-1.4088,-1.4088,-1.4088,-1.4088,-1.4088,-1.4088,-1.4088,-1.4088,-1.4088,-1.4088,-1.4088,-1.4068,-1.3955,-1.3661,-1.3519,-1.3507,0.0,0.0,0.0,0.0,0.0,0.0,0.0,0.0,0.0,0.0,0.0,0.0,0.0,0.0,0.0,0.0,0.0,0.0,-1.4068,0.0,-1.4663,-1.4963,-1.5251,0.0,-1.5832,-1.5832,-1.5832,-1.5825,-1.7037,-1.8133,-1.9405,-2.0576,-2.1854,-2.295,-2.295,-2.295,-2.295,-2.295,-2.296,-2.3135,-2.3135,-2.3135,-2.3135,0.0,0.0,0.0,0.0,0.0,0.0,0.0,-0.622,-0.6237,-0.6176,-0.6169,-0.6193,-0.6254,-0.6338,-0.6338,-0.6338,-0.6338,-0.6338,-0.6338,-0.6338,-0.6338,-0.6338,-0.6338,-0.6795,-0.7783,-0.877,-0.982,0.0,0.0,0.0,0.0,0.0,0.0,0.0,0.0,-1.2305,-1.2305,-1.2305,-1.2305,-1.2305,-1.2305,-1.2412,-1.2585,-1.2775,-1.2936,-1.3066,-1.336,-1.3547,-1.3667,-1.3848,-1.3908,-1.3908,-1.3908,-1.3988,-1.4088,-1.4088,-1.4088,-1.4088,-1.4088,-1.4215,-1.4349,-1.4349,-1.4482,-1.4616,-1.4616,-1.4616,-1.4563,-1.4382,-1.4208,-1.4048,-1.3928,-1.3908,-1.3814,0.0,0.0,0.0,0.0,0.0,0.0,0.0,0.0,0.0,0.0,0.0,0.0,0.0,0.0,0.0,0.0,0.0,0.0,-1.4075,0.0,-1.595,-1.608,-1.7296,-1.7896,-1.8025,-1.7311,-1.7304,-1.8025,-1.777,-1.8772,-2.0666,-2.1854,-2.2677,-2.3135,-2.3135,-2.3135,-2.3135,-2.3135,-2.3135,-2.3135,-2.3135,-2.3135,-2.3135,-0.6078,0.0,-0.6132,0.0,-0.6338,-0.6338,-0.6338,-0.6338,-0.6338,-0.6338,-0.6338,-0.6338,-0.6338,-0.6338,-0.6338,-0.6338,-0.6338,-0.6338,-0.6338,-0.6338,-0.6338,-0.6338,-0.6338,0.0,-0.8237,-0.8922,-0.997,-1.1236,-1.1922,0.0,0.0,0.0,0.0,0.0,-1.2305,-1.2305,-1.2305,-1.2305,-1.2305,-1.2311,-1.2398,-1.2559,-1.2842,-1.2946,-1.3146,-1.338,-1.3667,-1.3774,-1.3808,-1.4015,-1.4088,-1.4088,-1.4088,-1.4088,-1.4108,-1.4188,-1.4215,-1.4235,-1.4322,-1.4496,-1.4649,-1.4649,-1.481,-1.4963,-1.4963,-1.4963,-1.4903,-1.4696,-1.4416,-1.4215,-1.4215,-1.4142,-1.4015,-1.3808,0.0,0.0,0.0,0.0,0.0,0.0,0.0,-1.2903,-1.3098,0.0,0.0,0.0,0.0,0.0,0.0,0.0,0.0,0.0,0.0,0.0,0.0,-1.8823,-1.9497,-1.9497,-1.868,-1.868,-1.9497,-1.8956,-1.9861,-2.1845,-2.2765,-2.3135,-2.3135,-2.3135,-2.3135,-2.3135,-2.3135,-2.3135,-2.3135,-2.3135,-2.3135,-2.3135,-0.6257,-0.6257,-0.6257,-0.6338,-0.6338,-0.6338,-0.6338,-0.6338,-0.6338,-0.6338,-0.6338,-0.6338,-0.6338,-0.6338,-0.6338,-0.6338,-0.6338,-0.6338,-0.6338,-0.6338,-0.6338,0.0,0.0,-0.7249,-0.9226,-0.9296,-1.0276,-1.2298,0.0,0.0,-1.2305,0.0,-1.2305,-1.2305,-1.2305,-1.2305,-1.2305,-1.2305,-1.2305,-1.2325,-1.2625,-1.2822,-1.2889,-1.3407,-1.3552,-1.3674,-1.3975,-1.4082,-1.4082,-1.4088,-1.4088,-1.4088,-1.4088,-1.4088,-1.4142,-1.4429,-1.4516,-1.4583,-1.4877,-1.4957,-1.4957,-1.4957,-1.4963,-1.4963,-1.4963,-1.4963,-1.4963,-1.4957,-1.4723,-1.4516,-1.4516,-1.4282,-1.4088,-1.4082,0.0,0.0,0.0,0.0,0.0,0.0,-1.4163,-1.4475,-1.5125,0.0,0.0,0.0,0.0,0.0,0.0,0.0,0.0,-1.7937,-1.8225,0.0,-1.904,-1.9315,-1.9497,-1.9497,-1.9497,-1.9497,-1.9588,-2.0755,-2.1933,-2.3047,-2.3047,-2.3135,-2.3135,-2.3135,-2.3135,-2.3135,-2.3135,-2.3135,-2.3135,-2.3135,-2.3135,-2.3135,-0.6338,-0.6338,-0.6338,-0.6338,-0.6338,-0.6338,-0.6338,-0.6338,-0.6338,-0.6338,-0.6338,-0.6338,-0.6338,-0.6338,-0.6338,0.0,-0.6338,-0.6338,0.0,-0.6338,-0.6338,-0.6338,-0.6945,-0.7936,-0.9296,-0.997,-1.0944,-1.2305,0.0,0.0,0.0,-1.2305,-1.2305,-1.2305,-1.2305,-1.2305,-1.2305,-1.2305,-1.2418,-1.2612,-1.2788,-1.2993,-1.338,-1.3574,-1.3768,-1.3955,-1.4055,-1.4088,-1.4115,-1.4315,-1.4382,-1.4416,-1.4623,-1.4549,-1.4442,-1.4736,-1.4823,-1.4843,-1.4937,-1.511,-1.5257,-1.5257,-1.5404,-1.5558,-1.5558,-1.5398,-1.5257,-1.5257,-1.5023,-1.4763,-1.4556,-1.4442,-1.4315,-1.4122,-1.4008,0.0,0.0,0.0,0.0,0.0,0.0,-1.5788,0.0,-1.613,0.0,0.0,0.0,0.0,0.0,0.0,0.0,0.0,-1.941,0.0,-2.0359,-2.1386,-2.1952,-2.1952,-2.1123,-2.0755,-2.0755,-2.1943,-2.2765,-2.3135,-2.3135,-2.3135,-2.3135,-2.3135,-2.3135,-2.3135,-2.3135,-2.3135,-2.3135,-2.3135,-2.3135,-2.3135,-0.6338,-0.6338,-0.6338,-0.6338,-0.6338,-0.6338,-0.6338,-0.6338,-0.6338,-0.6338,-0.6338,-0.6338,-0.6338,-0.6338,0.0,-0.6338,-0.6338,-0.6338,-0.6338,-0.6338,-0.6338,-0.6338,-0.6872,-0.7859,-0.9296,0.0,0.0,-1.2305,-1.2305,-1.2305,-1.2305,-1.2305,-1.2305,-1.2305,-1.2305,-1.2305,-1.2311,-1.2418,-1.2579,-1.2842,-1.2993,-1.3307,-1.3572,-1.3768,-1.3928,-1.4088,-1.4088,-1.4155,-1.4282,-1.4456,-1.4596,-1.4736,-1.5037,-1.5003,-1.4883,-1.507,-1.5124,-1.515,-1.5257,-1.5424,-1.5558,-1.5558,-1.5698,-1.5832,-1.5832,-1.5691,-1.5558,-1.5558,-1.5331,-1.507,-1.4883,-1.4669,-1.4462,-1.4282,-1.448,-1.4894,-1.5621,0.0,0.0,0.0,0.0,0.0,0.0,-1.765,0.0,0.0,0.0,0.0,0.0,0.0,0.0,-1.9649,-2.0909,0.0,-2.1745,-2.264,-2.3135,-2.3047,-2.2306,-2.1943,-2.2031,-2.2765,-2.3135,-2.3135,-2.3135,-2.3135,-2.3135,-2.3135,-2.3135,-2.3135,-2.3135,-2.3135,-2.3135,-2.3135,-2.3135,-2.3135,-0.6338,-0.6338,0.0,0.0,-0.6338,0.0,-0.6338,-0.6338,-0.6338,-0.6338,-0.6338,-0.6338,-0.6338,-0.6338,-0.6338,-0.6338,0.0,0.0,0.0,-0.6338,-0.6338,-0.6338,-0.6338,-0.7326,-0.9221,-0.9372,-1.0346,-1.2305,-1.2305,-1.2305,-1.2305,-1.2305,-1.2305,-1.2305,-1.2305,-1.2311,-1.2351,-1.2701,-1.2849,-1.2936,-1.342,-1.3572,-1.3707,-1.3981,-1.4095,-1.4115,-1.4115,-1.4302,-1.4556,-1.4576,-1.4763,-1.5044,-1.5337,-1.5424,-1.5424,-1.5424,-1.5424,-1.5484,-1.5758,-1.5832,-1.5832,-1.5832,-1.5832,-1.5832,-1.5832,-1.5832,-1.5832,-1.5832,-1.5611,-1.5424,-1.5398,-1.495,-1.4569,-1.4529,-1.5191,-1.5726,-1.5779,0.0,0.0,0.0,0.0,0.0,0.0,-1.9756,-2.001,0.0,0.0,0.0,0.0,0.0,-2.0643,-2.2395,-2.2539,-2.2744,-2.3135,-2.3135,-2.3135,-2.3135,-2.3135,-2.3135,-2.3135,-2.3135,-2.3135,-2.3135,-2.3135,-2.3135,-2.3135,-2.3135,-2.3135,-2.3135,-2.3135,-2.3135,-2.3135,-2.3135,-2.3135,-2.3135,0.0,0.0,-0.6338,-0.6338,-0.6338,-0.6338,-0.6338,-0.6338,-0.6338,-0.6338,-0.6338,-0.6338,-0.6338,-0.6338,-0.6338,-0.6338,-0.6338,-0.6338,-0.6338,-0.6338,-0.6338,-0.6338,-0.7022,-0.8012,-0.9296,-1.004,-1.1019,-1.2305,-1.2305,-1.2305,-1.2305,-1.2305,-1.2305,-1.2305,-1.2305,-1.2425,-1.2721,-1.2795,-1.3013,-1.344,-1.3587,-1.3781,-1.3988,-1.4062,-1.4222,-1.4422,-1.4422,-1.4609,-1.489,-1.511,-1.5237,-1.5344,-1.5631,-1.5732,-1.5732,-1.5732,-1.5732,-1.5745,-1.5812,-1.5832,-1.5832,-1.5832,-1.5832,-1.5832,-1.5832,-1.5832,-1.5832,-1.5832,-1.5772,-1.5658,-1.5438,-1.5284,-1.5044,-1.4589,-1.5376,-1.6232,-1.6804,-1.7908,0.0,0.0,-2.0091,-2.013,-2.0273,-2.0664,-2.0928,0.0,0.0,0.0,0.0,-2.1945,-2.2032,-2.251,-2.2822,-2.3037,-2.3135,-2.3135,-2.3135,-2.3135,-2.3135,-2.3135,-2.3135,-2.3135,-2.3135,-2.3135,-2.3135,-2.3135,-2.3135,-2.3135,-2.3135,-2.3135,-2.3135,-2.3135,-2.3135,-2.3135,-2.3135,-2.3135,-0.6338,-0.6338,-0.6338,-0.6338,-0.6338,-0.6338,-0.6338,-0.6338,-0.6338,-0.6338,-0.6338,-0.6338,-0.6338,-0.6338,-0.6338,-0.6338,-0.6338,-0.6338,-0.6338,-0.6338,-0.6338,-0.6338,-0.6795,-0.7783,-0.9296,-0.982,-1.0795,-1.2305,-1.2305,-1.2305,-1.2305,-1.2305,-1.2378,-1.2505,-1.2505,-1.2672,-1.2966,-1.31,-1.3347,-1.3572,-1.3794,-1.3941,-1.4102,-1.4235,-1.4382,-1.4536,-1.4676,-1.491,-1.519,-1.5344,-1.5484,-1.5618,-1.5778,-1.5832,-1.5832,-1.5832,-1.5832,-1.5832,-1.5832,-1.5832,-1.5832,-1.5832,-1.5832,-1.5832,-1.5832,-1.5832,-1.5832,-1.5832,-1.5832,-1.5785,-1.5625,-1.5484,-1.5291,-1.497,-1.5625,-1.6453,-1.7367,-1.8342,0.0,-2.0479,-2.0742,-2.0869,-2.0869,-2.1269,-2.1533,-2.1533,0.0,0.0,-2.25,-2.2695,-2.2793,-2.2793,-2.3018,-2.3135,-2.3135,-2.3135,-2.3135,-2.3135,-2.3135,-2.3135,-2.3135,-2.3135,-2.3135,-2.3135,-2.3135,-2.3135,-2.3135,-2.3135,-2.3135,-2.3135,-2.3135,-2.3135,-2.3135,-2.3135,-2.3135,-2.3135,-0.6338,-0.6338,-0.6338,-0.6338,-0.6338,-0.6345,-0.6288,-0.6291,-0.6302,-0.6325,-0.6329,-0.6329,-0.6329,-0.6329,-0.6329,-0.6329,-0.6329,-0.6308,-0.6264,-0.6338,-0.6338,-0.6338,-0.6412,-0.7403,-0.9221,-0.9599,-1.0571,-1.2305,-1.2345,-1.2371,-1.2371,-1.2418,-1.2572,-1.2896,-1.2896,-1.2986,-1.3293,-1.354,-1.3667,-1.3734,-1.3981,-1.4115,-1.4182,-1.4429,-1.4576,-1.4683,-1.4937,-1.5217,-1.5464,-1.5464,-1.5625,-1.5832,-1.5832,-1.5832,-1.5832,-1.5832,-1.5832,-1.5832,-1.5832,-1.5832,-1.5832,-1.5832,-1.5832,-1.5832,-1.5832,-1.5832,-1.5832,-1.5832,-1.5832,-1.5832,-1.5832,-1.5625,-1.5444,-1.5404,-1.5835,-1.6574,-1.7464,0.0,-1.9297,-2.0349,-2.0844,-2.1076,-2.1247,-2.1728,-2.1982,-2.1982,-2.2373,-2.2607,0.0,-2.2939,-2.3135,-2.3135,-2.3135,-2.3135,-2.3135,-2.3135,-2.3135,-2.3135,-2.3135,-2.3135,-2.3135,-2.3135,-2.3135,-2.3135,-2.3135,-2.3135,-2.3135,-2.3135,-2.3135,-2.3135,-2.3135,-2.3135,-2.3135,-2.3135,-2.3135,-2.3135,-0.6338,-0.6338,-0.6338,-0.6338,-0.6338,-0.6302,-0.642,-0.6437,-0.6485,-0.6617,-0.663,-0.663,-0.663,-0.663,-0.663,-0.663,-0.663,-0.6525,-0.6278,-0.6338,-0.6338,-0.6338,-0.7099,-0.8084,-0.9301,-1.095,-1.2003,-1.2305,-1.2552,-1.2755,-1.2761,-1.2946,-1.3093,-1.314,-1.314,-1.33,-1.3581,-1.3546,-1.3788,-1.4021,-1.4068,-1.4235,-1.4456,-1.4502,-1.483,-1.5264,-1.5311,-1.5518,-1.5758,-1.5758,-1.5792,-1.5832,-1.5832,-1.5832,-1.5832,-1.5832,-1.5832,-1.5832,-1.5832,-1.5832,-1.5832,-1.5832,-1.5832,-1.5832,-1.5832,-1.5832,-1.5832,-1.5832,-1.5832,-1.5832,-1.5832,-1.5792,-1.5678,-1.5438,-1.6196,-1.6825,-1.6813,0.0,-1.8752,-1.994,-2.0161,-2.0643,-2.1695,-2.2168,-2.2412,-2.2412,-2.2803,-2.3047,-2.3047,-2.3105,-2.3135,-2.3135,-2.3135,-2.3135,-2.3135,-2.3135,-2.3135,-2.3135,-2.3135,-2.3135,-2.3135,-2.3135,-2.3135,-2.3135,-2.3135,-2.3135,-2.3135,-2.3135,-2.3135,-2.3135,-2.3135,-2.3135,-2.3135,-2.3135,-2.3135,-2.3135,-0.6376,-0.64,-0.6437,-0.6488,-0.6458,-0.6461,-0.6576,-0.6597,-0.662,-0.6692,-0.6702,-0.6702,-0.6702,-0.6702,-0.6702,-0.6702,-0.6702,-0.6641,-0.6508,-0.642,-0.6376,-0.6376,-0.7466,-0.8833,-1.0595,-1.2004,-1.2792,-1.2792,-1.2933,-1.2999,-1.2999,-1.314,-1.3293,-1.3447,-1.3447,-1.3607,-1.3881,-1.3881,-1.3961,-1.4102,-1.4255,-1.4402,-1.4556,-1.487,-1.5157,-1.5418,-1.5571,-1.5712,-1.5832,-1.5832,-1.5832,-1.5832,-1.5832,-1.5832,-1.5832,-1.5832,-1.5832,-1.5832,-1.5832,-1.5832,-1.5832,-1.5832,-1.5832,-1.5832,-1.5832,-1.5832,-1.5832,-1.5832,-1.5832,-1.5832,-1.5832,-1.5832,-1.5785,-1.5651,-1.5948,0.0,0.0,-1.714,-1.7723,-1.8922,-1.9797,-2.0625,-2.1165,-2.2246,-2.2852,-2.2852,-2.3027,-2.3135,-2.3135,-2.3135,-2.3135,-2.3135,-2.3135,-2.3135,-2.3135,-2.3135,-2.3135,-2.3135,-2.3135,-2.3135,-2.3135,-2.3135,-2.3135,-2.3135,-2.3135,-2.3135,-2.3135,-2.3135,-2.3135,-2.3135,-2.3135,-2.3135,-2.3135,-2.3135,-2.3135,-2.3135,-0.6525,-0.6563,-0.6617,-0.6688,-0.6641,-0.663,-0.6739,-0.6753,-0.6766,-0.68,-0.6803,-0.6803,-0.6803,-0.6803,-0.6803,-0.6803,-0.6803,-0.679,-0.6756,-0.6644,-0.6563,-0.6525,-0.7645,-0.9303,-1.1576,-1.2393,-1.2962,-1.3213,-1.328,-1.3313,-1.3313,-1.338,-1.3534,-1.3748,-1.3748,-1.3874,-1.4088,-1.4162,-1.4188,-1.4215,-1.4509,-1.4663,-1.477,-1.5224,-1.5438,-1.5524,-1.5752,-1.5832,-1.5832,-1.5832,-1.5832,-1.5832,-1.5832,-1.5832,-1.5832,-1.5832,-1.5832,-1.5832,-1.5832,-1.5832,-1.5832,-1.5832,-1.5832,-1.5832,-1.5832,-1.5832,-1.5832,-1.5832,-1.5832,-1.5832,-1.5832,-1.5832,-1.5832,-1.5832,0.0,0.0,0.0,-1.653,-1.6907,-1.8321,-1.9615,-2.0676,-2.1209,-2.2398,-2.3135,-2.3135,-2.3135,-2.3135,-2.3135,-2.3135,-2.3135,-2.3135,-2.3135,-2.3135,-2.3135,-2.3135,-2.3135,-2.3135,-2.3135,-2.3135,-2.3135,-2.3135,-2.3135,-2.3135,-2.3135,-2.3135,-2.3135,-2.3135,-2.3135,-2.3135,-2.3135,-2.3135,-2.3135,-2.3135,-2.3135,-2.3135,-0.6681,-0.6685,-0.6692,-0.6698,-0.6695,-0.6742,-0.6888,-0.6912,-0.6959,-0.7092,-0.7109,-0.7109,-0.7109,-0.7109,-0.7109,-0.7109,-0.7109,-0.7051,-0.6919,-0.6902,-0.6831,-0.6692,-0.7659,-0.9203,-1.1484,-1.157,-1.2141,-1.3213,-1.348,-1.3614,-1.3621,-1.3895,-1.4035,-1.4055,-1.4055,-1.4068,-1.4108,-1.4376,-1.4489,-1.4516,-1.481,-1.509,-1.5337,-1.5378,-1.5565,-1.5798,-1.5818,-1.5832,-1.5832,-1.5832,-1.5832,-1.5832,-1.5832,-1.5832,-1.5832,-1.5832,-1.5832,-1.5832,-1.5832,-1.5832,-1.5832,-1.5832,-1.5832,-1.5832,-1.5832,-1.5832,-1.5832,-1.5832,-1.5832,-1.5832,-1.5832,-1.5832,-1.5832,-1.5832,0.0,0.0,-1.5886,-1.5866,-1.6771,-1.9141,-1.953,-2.0451,-2.2726,-2.3028,-2.3135,-2.3135,-2.3135,-2.3135,-2.3135,-2.3135,-2.3135,-2.3135,-2.3135,-2.3135,-2.3135,-2.3135,-2.3135,-2.3135,-2.3135,-2.3135,-2.3135,-2.3135,-2.3135,-2.3135,-2.3135,-2.3135,-2.3135,-2.3135,-2.3135,-2.3135,-2.3135,-2.3135,-2.3135,-2.3135,-2.3135,-2.3135,-0.6844,-0.6912,-0.6973,-0.6973,-0.6973,-0.6993,-0.7051,-0.7058,-0.7078,-0.7132,-0.7139,-0.7139,-0.7139,-0.7139,-0.7139,-0.7139,-0.7139,-0.7115,-0.7061,-0.7058,-0.7336,-0.7926,-0.8361,-0.9686,-1.1951,-1.204,-1.2551,-1.3754,-1.3861,-1.3915,-1.3921,-1.4035,-1.4088,-1.4095,-1.4275,-1.4355,-1.4376,-1.4669,-1.4796,-1.4823,-1.5117,-1.5297,-1.5418,-1.5591,-1.5732,-1.5832,-1.5832,-1.5832,-1.5832,-1.5832,-1.5832,-1.5832,-1.5832,-1.5832,-1.5832,-1.5832,-1.5832,-1.5832,-1.5832,-1.5832,-1.5832,-1.5832,-1.5832,-1.5832,-1.5832,-1.5832,-1.5832,-1.5832,-1.5832,-1.5832,-1.5832,-1.5832,-1.5832,-1.5832,0.0,-1.5832,-1.5832,-1.5832,-1.6103,-1.7117,-1.858,-1.9861,-2.0773,-2.2227,-2.3135,-2.3135,-2.3135,-2.3135,-2.3135,-2.3135,-2.3135,-2.3135,-2.3135,-2.3135,-2.3135,-2.3135,-2.3135,-2.3135,-2.3135,-2.3135,-2.3135,-2.3135,-2.3135,-2.3135,-2.3135,-2.3135,-2.3135,-2.3135,-2.3135,-2.3135,-2.3135,-2.3135,-2.3135,-2.3135,-2.3135,-2.3135,-0.6997,-0.7075,-0.7139,-0.7139,-0.7139,-0.7139,-0.7139,-0.7139,-0.7139,-0.7139,-0.7139,-0.7139,-0.7139,-0.7139,-0.7139,-0.7139,-0.7139,-0.7139,-0.7139,-0.7139,-0.7442,-0.8189,-0.8301,-0.9401,-1.1724,-1.1815,-1.251,-1.4088,-1.4088,-1.4088,-1.4088,-1.4088,-1.4135,-1.4229,-1.4429,-1.4569,-1.4676,-1.4977,-1.5104,-1.5124,-1.5418,-1.5531,-1.5558,-1.5752,-1.5832,-1.5832,-1.5832,-1.5832,-1.5832,-1.5832,-1.5832,-1.5832,-1.5832,-1.5832,-1.5832,-1.5832,-1.5832,-1.5832,-1.5832,-1.5832,-1.5832,-1.5832,-1.5832,-1.5832,-1.5832,-1.5832,-1.5832,-1.5832,-1.5832,-1.5832,-1.5832,-1.5832,-1.5832,-1.5832,-1.5832,-1.5832,-1.5832,-1.5832,-1.6103,-1.6835,-1.8488,-1.977,-2.0584,-2.2138,-2.3135,-2.3135,-2.3135,-2.3135,-2.3135,-2.3135,-2.3135,-2.3135,-2.3135,-2.3135,-2.3135,-2.3135,-2.3135,-2.3135,-2.3135,-2.3135,-2.3135,-2.3135,-2.3135,-2.3135,-2.3135,-2.3135,-2.3135,-2.3135,-2.3135,-2.3135,-2.3135,-2.3135,-2.3135,-2.3135,-2.3135,-2.3135,-0.7139,-0.7139,-0.7139,-0.7139,-0.7139,-0.7139,-0.7139,-0.7139,-0.7139,-0.7139,-0.7139,-0.7139,-0.7139,-0.7139,-0.7139,-0.7139,-0.7139,-0.7139,-0.7139,-0.7139,-0.7139,-0.7139,-0.7139,-0.8185,-1.0524,-1.0611,-1.174,-1.4088,-1.4088,-1.4088,-1.4088,-1.4088,-1.4249,-1.4522,-1.4529,-1.4689,-1.4983,-1.5277,-1.5398,-1.5424,-1.5712,-1.5832,-1.5832,-1.5832,-1.5832,-1.5832,-1.5832,-1.5832,-1.5832,-1.5832,-1.5832,-1.5832,-1.5832,-1.5832,-1.5832,-1.5832,-1.5832,-1.5832,-1.5832,-1.5832,-1.5832,-1.5832,-1.5832,-1.5832,-1.5832,-1.5832,-1.5832,-1.5832,-1.5832,-1.5832,-1.5832,-1.5832,-1.5832,-1.5832,-1.5832,-1.5832,-1.5832,-1.5832,-1.6749,-1.9222,-1.9497,-2.0404,-2.2862,-2.3047,-2.3057,-2.3057,-2.3047,-2.3135,-2.3135,-2.3135,-2.3135,-2.3135,-2.3135,-2.3135,-2.3135,-2.3135,-2.3135,-2.3135,-2.3135,-2.3135,-2.3135,-2.3135,-2.3135,-2.3135,-2.3135,-2.3135,-2.3135,-2.3135,-2.3135,-2.3135,-2.3135,-2.3135,-2.3135,-2.3135,-2.3135,-2.3135,-0.7139,-0.7139,-0.7139,-0.7139,-0.7139,-0.7139,-0.7139,-0.7139,-0.7139,-0.7139,-0.7139,-0.7139,-0.7139,-0.7139,-0.7139,-0.7139,-0.7139,-0.7139,-0.7139,-0.7139,-0.7139,-0.7139,-0.7139,-0.7837,-0.9405,-1.0183,-1.13,-1.2851,-1.373,-1.4195,-1.4389,-1.4389,-1.4549,-1.4843,-1.5044,-1.5184,-1.5284,-1.5578,-1.5698,-1.5705,-1.5792,-1.5832,-1.5832,-1.5832,-1.5832,-1.5832,-1.5832,-1.5832,-1.5832,-1.5832,-1.5832,-1.5832,-1.5832,-1.5832,-1.5832,-1.5832,-1.5832,-1.5832,-1.5832,-1.5832,-1.5832,-1.5832,-1.5832,-1.5832,-1.5832,-1.5832,-1.5832,-1.5832,-1.5832,-1.5832,-1.5832,-1.5832,-1.5832,-1.5832,-1.5832,-1.5832,-1.5832,-1.5832,-1.6103,-1.6835,-1.7677,-1.8503,-1.9231,-2.0854,-2.1845,-2.1845,-2.2589,-2.3135,-2.3135,-2.3135,-2.3135,-2.3135,-2.3135,-2.3135,-2.3135,-2.3135,-2.3135,-2.3135,-2.3135,-2.3135,-2.3135,-2.3135,-2.3135,-2.3135,-2.3135,-2.3135,-2.3135,-2.3135,-2.3135,-2.3135,-2.3135,-2.3135,-2.3135,-2.3135,-2.3135,-2.3135,-0.7139,-0.7139,-0.7139,-0.7139,-0.7139,-0.7139,-0.7139,-0.7139,-0.7139,-0.7139,-0.7139,-0.7139,-0.7139,-0.7139,-0.7139,-0.7139,-0.7139,-0.7166,-0.7227,-0.7231,-0.7258,-0.7319,-0.7322,-0.78,-0.8894,-1.0178,-1.1353,-1.248,-1.3832,-1.4522,-1.4696,-1.4696,-1.485,-1.5144,-1.5317,-1.5464,-1.5578,-1.5752,-1.5832,-1.5832,-1.5832,-1.5832,-1.5832,-1.5832,-1.5832,-1.5832,-1.5832,-1.5832,-1.5832,-1.5832,-1.5832,-1.5832,-1.5832,-1.5832,-1.5832,-1.5832,-1.5832,-1.5832,-1.5832,-1.5832,-1.5832,-1.5832,-1.5832,-1.5832,-1.5832,-1.5832,-1.5832,-1.5832,-1.5832,-1.5832,-1.5832,-1.5832,-1.5832,-1.5832,-1.5832,-1.5832,-1.5832,-1.5832,-1.6015,-1.648,-1.7225,-1.787,-1.8411,-2.0124,-2.148,-2.1943,-2.2677,-2.3135,-2.3135,-2.3135,-2.3135,-2.3135,-2.3135,-2.3135,-2.3135,-2.3135,-2.3135,-2.3135,-2.3135,-2.3135,-2.3135,-2.3135,-2.3135,-2.3135,-2.3135,-2.3135,-2.3135,-2.3135,-2.3135,-2.3135,-2.3135,-2.3135,-2.3135,-2.3135,-2.3135,-2.3135,-0.7139,-0.7139,-0.7139,-0.7139,-0.7139,-0.7139,-0.7139,-0.7139,-0.7139,-0.7139,-0.7139,-0.7139,-0.7139,-0.7139,-0.7146,-0.716,-0.7173,-0.7241,-0.7383,-0.7394,-0.7455,-0.7594,-0.7691,-0.8107,-0.8945,-1.0341,-1.1682,-1.2839,-1.4276,-1.4977,-1.5003,-1.5003,-1.5157,-1.5438,-1.5438,-1.5578,-1.5832,-1.5832,-1.5832,-1.5832,-1.5832,-1.5832,-1.5832,-1.5832,-1.5832,-1.5832,-1.5832,-1.5832,-1.5832,-1.5832,-1.5832,-1.5832,-1.5832,-1.5832,-1.5832,-1.5832,-1.5832,-1.5832,-1.5832,-1.5832,-1.5832,-1.5832,-1.5832,-1.5832,-1.5832,-1.5832,-1.5832,-1.5832,-1.5832,-1.5832,-1.5832,-1.5832,-1.5832,-1.5832,-1.5832,-1.5832,-1.5832,-1.5832,-1.6204,-1.7412,-1.7505,-1.8048,-1.9222,-2.0486,-2.1756,-2.3047,-2.3135,-2.3135,-2.3135,-2.3135,-2.3135,-2.3135,-2.3135,-2.3135,-2.3135,-2.3135,-2.3135,-2.3135,-2.3135,-2.3135,-2.3135,-2.3135,-2.3135,-2.3135,-2.3135,-2.3135,-2.3135,-2.3135,-2.3135,-2.3135,-2.3135,-2.3135,-2.3135,-2.3135,-2.3135,-2.3135,-0.7139,-0.7139,-0.7139,-0.7139,-0.7139,-0.7139,-0.7139,-0.7139,-0.7139,-0.7139,-0.7139,-0.7139,-0.7139,-0.7139,-0.7187,-0.7312,-0.7431,-0.7516,-0.755,-0.755,-0.7563,-0.7597,-0.8516,-0.9212,-0.9404,-1.0635,-1.1844,-1.3129,-1.4379,-1.5077,-1.5304,-1.5304,-1.5458,-1.5732,-1.5732,-1.5772,-1.5832,-1.5832,-1.5832,-1.5832,-1.5832,-1.5832,-1.5832,-1.5832,-1.5832,-1.5832,-1.5832,-1.5832,-1.5832,-1.5832,-1.5832,-1.5832,-1.5832,-1.5832,-1.5832,-1.5832,-1.5832,-1.5832,-1.5832,-1.5832,-1.5832,-1.5832,-1.5832,-1.5832,-1.5832,-1.5832,-1.5832,-1.5832,-1.5832,-1.5832,-1.5832,-1.5832,-1.5832,-1.5832,-1.5832,-1.5832,-1.5832,-1.5832,-1.592,-1.6204,-1.6204,-1.6662,-1.7956,-2.0034,-2.1756,-2.3047,-2.3135,-2.3135,-2.3135,-2.3135,-2.3135,-2.3135,-2.3135,-2.3135,-2.3135,-2.3135,-2.3135,-2.3135,-2.3135,-2.3135,-2.3135,-2.3135,-2.3135,-2.3135,-2.3135,-2.3135,-2.3135,-2.3135,-2.3135,-2.3135,-2.3135,-2.3135,-2.3135,-2.3135,-2.3135,-2.3135,-0.7139,-0.7139,-0.7139,-0.7139,-0.7139,-0.7139,-0.7139,-0.7139,-0.7139,-0.7139,-0.7204,-0.7251,-0.7251,-0.7316,-0.739,-0.7472,-0.7553,-0.7628,-0.7695,-0.7699,-0.7733,-0.7804,-0.904,-0.9984,-1.0645,-1.1874,-1.2856,-1.3401,-1.4746,-1.5451,-1.5605,-1.5605,-1.5685,-1.5832,-1.5832,-1.5832,-1.5832,-1.5832,-1.5832,-1.5832,-1.5832,-1.5832,-1.5832,-1.5832,-1.5832,-1.5832,-1.5832,-1.5832,-1.5832,-1.5832,-1.5832,-1.5832,-1.5832,-1.5832,-1.5832,-1.5832,-1.5832,-1.5832,-1.5832,-1.5832,-1.5832,-1.5832,-1.5832,-1.5832,-1.5832,-1.5832,-1.5832,-1.5832,-1.5832,-1.5832,-1.5832,-1.5832,-1.5832,-1.5832,-1.5832,-1.5832,-1.5832,-1.5832,-1.6015,-1.6669,-1.6669,-1.7397,-1.9222,-2.0576,-2.1756,-2.3047,-2.3135,-2.3135,-2.3135,-2.3135,-2.3135,-2.3135,-2.3135,-2.3135,-2.3135,-2.3135,-2.3135,-2.3135,-2.3135,-2.3135,-2.3135,-2.3135,-2.3135,-2.3135,-2.3135,-2.3135,-2.3135,-2.3135,-2.3135,-2.3135,-2.3135,-2.3135,-2.3135,-2.3135,-2.3135,-2.3135,-0.7139,-0.7139,-0.7139,-0.7139,-0.7139,-0.7149,-0.7177,-0.718,-0.719,-0.7214,-0.7329,-0.7411,-0.7411,-0.7546,-0.7638,-0.7638,-0.7658,-0.7726,-0.7841,-0.7848,-0.7906,-0.8035,-0.9509,-1.0779,-1.1853,-1.3397,-1.4165,-1.4048,-1.5233,-1.5832,-1.5832,-1.5832,-1.5832,-1.5832,-1.5832,-1.5832,-1.5832,-1.5832,-1.5832,-1.5832,-1.5832,-1.5832,-1.5832,-1.5832,-1.5832,-1.5832,-1.5832,-1.5832,-1.5832,-1.5832,-1.5832,-1.5832,-1.5832,-1.5832,-1.5832,-1.5832,-1.5832,-1.5832,-1.5832,-1.5832,-1.5832,-1.5832,-1.5832,-1.5832,-1.5832,-1.5832,-1.5832,-1.5832,-1.5832,-1.5832,-1.5832,-1.5832,-1.5832,-1.5832,-1.5832,-1.5832,-1.5832,-1.5832,-1.6292,-1.7598,-1.8048,-1.9131,-2.1114,-2.148,-2.2031,-2.3047,-2.3135,-2.3135,-2.3135,-2.3135,-2.3135,-2.3135,-2.3135,-2.3135,-2.3135,-2.3135,-2.3135,-2.3135,-2.3135,-2.3135,-2.3135,-2.3135,-2.3135,-2.3135,-2.3135,-2.3135,-2.3135,-2.3135,-2.3135,-2.3135,-2.3135,-2.3135,-2.3135,-2.3135,-2.3135,-2.3135,-0.7139,-0.7139,-0.7139,-0.7139,-0.7139,-0.7183,-0.7319,-0.7339,-0.7387,-0.7519,-0.7556,-0.7567,-0.7567,-0.7695,-0.7784,-0.7784,-0.7902,-0.7987,-0.8007,-0.8007,-0.8018,-0.8038,-1.0386,-1.1755,-1.1945,-1.4274,-1.5514,-1.5481,-1.5717,-1.5832,-1.5832,-1.5832,-1.5832,-1.5832,-1.5832,-1.5832,-1.5832,-1.5832,-1.5832,-1.5832,-1.5832,-1.5832,-1.5832,-1.5832,-1.5832,-1.5832,-1.5832,-1.5832,-1.5832,-1.5832,-1.5832,-1.5832,-1.5832,-1.5832,-1.5832,-1.5832,-1.5832,-1.5832,-1.5832,-1.5832,-1.5832,-1.5832,-1.5832,-1.5832,-1.5832,-1.5832,-1.5832,-1.5832,-1.5832,-1.5832,-1.5832,-1.5832,-1.5832,-1.5832,-1.5832,-1.5832,-1.5832,-1.5832,-1.6292,-1.7598,-1.9588,-2.0935,-2.1293,-2.2217,-2.295,-2.3057,-2.3135,-2.3135,-2.3135,-2.3135,-2.3135,-2.3135,-2.3135,-2.3135,-2.3135,-2.3135,-2.3135,-2.3135,-2.3135,-2.3135,-2.3135,-2.3135,-2.3135,-2.3135,-2.3135,-2.3135,-2.3135,-2.3135,-2.3135,-2.3135,-2.3135,-2.3135,-2.3135,-2.3135,-2.3135,-2.3135,-0.7397,-0.7397,-0.7397,-0.7397,-0.7397,-0.7421,-0.7489,-0.7499,-0.7522,-0.759,-0.7668,-0.7719,-0.7719,-0.7848,-0.794,-0.794,-0.8001,-0.8038,-0.8038,-0.8726,-0.9118,-0.9118,-1.1648,-1.3006,-1.3006,-1.4854,-1.5832,-1.5832,-1.5832,-1.5439,-1.4752,-1.5439,-1.5439,-1.4752,-1.5439,-1.5832,-1.5832,-1.5832,-1.5832,-1.5832,-1.5832,-1.5832,-1.5832,-1.5832,-1.5832,-1.5832,-1.5832,-1.5832,-1.5832,-1.5832,-1.5832,-1.5832,-1.5832,-1.5832,-1.5832,-1.5832,-1.5832,-1.5832,-1.5832,-1.5832,-1.5832,-1.5832,-1.5832,-1.5832,-1.5832,-1.5832,-1.5832,-1.5832,-1.5832,-1.5832,-1.5832,-1.5832,-1.5832,-1.5832,-1.5832,-1.5832,-1.5832,-1.6386,-1.7591,-1.9505,-2.1221,-2.2306,-2.2306,-2.2775,-2.3135,-2.3135,-2.3135,-2.3135,-2.3135,-2.3135,-2.3135,-2.3135,-2.3135,-2.3135,-2.3135,-2.3135,-2.3135,-2.3135,-2.3135,-2.3135,-2.3135,-2.3135,-2.3135,-2.3135,-2.3135,-2.3135,-2.3135,-2.3135,-2.3135,-2.3135,-2.3135,-2.3135,-2.3135,-2.3135,-2.3135,-2.3135]}]]